[[{"header":{"parameterUnit":"m.s-1","parameterCategory":1,"la1":30.6,"la2":28.766,"lo1":-90.7593,"lo2":-88.6598,"dy":0.0162,"dx":0.0183,"nx":116,"ny":114,"refTime":"2024-04-21T00:00:00:Z","depth":0,"parameterNumber":2,"parameterNumberName":"U-component_of_WINDS"},"data":[0.0,0.0,0.0,0.0,0.0,0.0,0.0,0.0,0.0,0.0,0.0,0.0,0.0,0.0,0.0,0.0,0.0,0.0,0.0,0.0,0.0,0.0,0.0,0.0,0.0,0.0,0.0,0.0,0.0,0.0,0.0,0.0,0.0,0.0,0.0,0.0,0.0,0.0,0.0,0.0,0.0,0.0,0.0,0.0,0.0,0.0,0.0,0.0,0.0,0.0,0.0,0.0,0.0,0.0,0.0,0.0,0.0,0.0,0.0,0.0,0.0,0.0,0.0,0.0,0.0,0.0,0.0,0.0,0.0,0.0,0.0,0.0,0.0,0.0,0.0,0.0,0.0,0.0,0.0,0.0,0.0,0.0,0.0,0.0,0.0,0.0,0.0,0.0,0.0,0.0,0.0,0.0,0.0,0.0,0.0,0.0,0.0,0.0,0.0,0.0,0.0,0.0,0.0,0.0,0.0,0.0,0.0,0.0,0.0,0.0,0.0,0.0,0.0,0.0,0.0,0.0,0.0,0.0,0.0,0.0,0.0,0.0,0.0,0.0,0.0,0.0,0.0,0.0,0.0,0.0,0.0,0.0,0.0,0.0,0.0,0.0,0.0,0.0,0.0,0.0,0.0,0.0,0.0,0.0,0.0,0.0,0.0,0.0,0.0,0.0,0.0,0.0,0.0,0.0,0.0,0.0,0.0,0.0,0.0,0.0,0.0,0.0,0.0,0.0,0.0,0.0,0.0,0.0,0.0,0.0,0.0,0.0,0.0,0.0,0.0,0.0,0.0,0.0,0.0,0.0,0.0,0.0,0.0,0.0,0.0,0.0,0.0,0.0,0.0,0.0,0.0,0.0,0.0,0.0,0.0,0.0,0.0,0.0,0.0,0.0,0.0,0.0,0.0,0.0,0.0,0.0,0.0,0.0,0.0,0.0,0.0,0.0,0.0,0.0,0.0,0.0,0.0,0.0,0.0,0.0,0.0,0.0,0.0,0.0,0.0,0.0,0.0,0.0,0.0,0.0,0.0,0.0,0.0,0.0,0.0,0.0,0.0,0.0,0.0,0.0,0.0,0.0,0.0,0.0,0.0,0.0,0.0,0.0,0.0,0.0,0.0,0.0,0.0,0.0,0.0,0.0,0.0,0.0,0.0,0.0,0.0,0.0,0.0,0.0,0.0,0.0,0.0,0.0,0.0,0.0,0.0,0.0,0.0,0.0,0.0,0.0,0.0,0.0,0.0,0.0,0.0,0.0,0.0,0.0,0.0,0.0,0.0,0.0,0.0,0.0,0.0,0.0,0.0,0.0,0.0,0.0,0.0,0.0,0.0,0.0,0.0,0.0,0.0,0.0,0.0,0.0,0.0,0.0,0.0,0.0,0.0,0.0,0.0,0.0,0.0,0.0,0.0,0.0,0.0,0.0,0.0,0.0,0.0,0.0,0.0,0.0,0.0,0.0,0.0,0.0,0.0,0.0,0.0,0.0,0.0,0.0,0.0,0.0,0.0,0.0,0.0,0.0,0.0,0.0,0.0,0.0,0.0,0.0,0.0,0.0,0.0,0.0,0.0,0.0,0.0,0.0,0.0,0.0,0.0,0.0,0.0,0.0,0.0,0.0,0.0,0.0,0.0,0.0,0.0,0.0,0.0,0.0,0.0,0.0,0.0,0.0,0.0,0.0,0.0,0.0,0.0,0.0,0.0,0.0,0.0,0.0,0.0,0.0,0.0,0.0,0.0,0.0,0.0,0.0,0.0,0.0,0.0,0.0,0.0,0.0,0.0,0.0,0.0,0.0,0.0,0.0,0.0,0.0,0.0,0.0,0.0,0.0,0.0,0.0,0.0,0.0,0.0,0.0,0.0,0.0,0.0,0.0,0.0,0.0,0.0,0.0,0.0,0.0,0.0,0.0,0.0,0.0,0.0,0.0,0.0,0.0,0.0,0.0,0.0,0.0,0.0,0.0,0.0,0.0,0.0,0.0,0.0,0.0,0.0,0.0,0.0,0.0,0.0,0.0,0.0,0.0,0.0,0.0,0.0,0.0,0.0,0.0,0.0,0.0,0.0,0.0,0.0,0.0,0.0,0.0,0.0,0.0,0.0,0.0,0.0,0.0,0.0,0.0,0.0,0.0,0.0,0.0,0.0,0.0,0.0,0.0,0.0,0.0,0.0,0.0,0.0,0.0,0.0,0.0,0.0,0.0,0.0,0.0,0.0,0.0,0.0,0.0,0.0,0.0,0.0,0.0,0.0,0.0,0.0,0.0,0.0,0.0,0.0,0.0,0.0,0.0,0.0,0.0,0.0,0.0,0.0,0.0,0.0,0.0,0.0,0.0,0.0,0.0,0.0,0.0,0.0,0.0,0.0,0.0,0.0,0.0,0.0,0.0,0.0,0.0,0.0,0.0,0.0,0.0,0.0,0.0,0.0,0.0,0.0,0.0,0.0,0.0,0.0,0.0,0.0,0.0,0.0,0.0,0.0,0.0,0.0,0.0,0.0,0.0,0.0,0.0,0.0,0.0,0.0,0.0,0.0,0.0,0.0,0.0,0.0,0.0,0.0,0.0,0.0,0.0,0.0,0.0,0.0,0.0,0.0,0.0,0.0,0.0,0.0,0.0,0.0,0.0,0.0,0.0,0.0,0.0,0.0,0.0,0.0,0.0,0.0,0.0,0.0,0.0,0.0,0.0,0.0,0.0,0.0,0.0,0.0,0.0,0.0,0.0,0.0,0.0,0.0,0.0,0.0,0.0,0.0,0.0,0.0,0.0,0.0,0.0,0.0,0.0,0.0,0.0,0.0,0.0,0.0,0.0,0.0,0.0,0.0,0.0,0.0,0.0,0.0,0.0,0.0,0.0,0.0,0.0,0.0,0.0,0.0,0.0,0.0,0.0,0.0,0.0,0.0,0.0,0.0,0.0,0.0,0.0,0.0,0.0,0.0,0.0,0.0,0.0,0.0,0.0,0.0,0.0,0.0,0.0,0.0,0.0,0.0,0.0,0.0,0.0,0.0,0.0,0.0,0.0,0.0,0.0,0.0,0.0,0.0,0.0,0.0,0.0,0.0,0.0,0.0,0.0,0.0,0.0,0.0,0.0,0.0,0.0,0.0,0.0,0.0,0.0,0.0,0.0,0.0,0.0,0.0,0.0,0.0,0.0,0.0,0.0,0.0,0.0,0.0,0.0,0.0,0.0,0.0,0.0,0.0,0.0,0.0,0.0,0.0,0.0,0.0,0.0,0.0,0.0,0.0,0.0,0.0,0.0,0.0,0.0,0.0,0.0,0.0,0.0,0.0,0.0,0.0,0.0,0.0,0.0,0.0,0.0,0.0,0.0,0.0,0.0,0.0,0.0,0.0,0.0,0.0,0.0,0.0,0.0,0.0,0.0,0.0,0.0,0.0,0.0,0.0,0.0,0.0,0.0,0.0,0.0,0.0,0.0,0.0,0.0,0.0,0.0,0.0,0.0,0.0,0.0,0.0,0.0,0.0,0.0,0.0,0.0,0.0,0.0,0.0,0.0,0.0,0.0,0.0,0.0,0.0,0.0,0.0,0.0,0.0,0.0,0.0,0.0,0.0,0.0,0.0,0.0,0.0,0.0,0.0,0.0,0.0,0.0,0.0,0.0,0.0,0.0,0.0,0.0,0.0,0.0,0.0,0.0,0.0,0.0,0.0,0.0,0.0,0.0,0.0,0.0,0.0,0.0,0.0,0.0,0.0,0.0,0.0,0.0,0.0,0.0,0.0,0.0,0.0,0.0,0.0,0.0,0.0,0.0,0.0,0.0,0.0,0.0,0.0,0.0,0.0,0.0,0.0,0.0,0.0,0.0,0.0,0.0,0.0,0.0,0.0,0.0,0.0,0.0,0.0,0.0,0.0,0.0,0.0,0.0,0.0,0.0,0.0,0.0,0.0,0.0,0.0,0.0,0.0,0.0,0.0,0.0,0.0,0.0,0.0,0.0,0.0,0.0,0.0,0.0,0.0,0.0,0.0,0.0,0.0,0.0,0.0,0.0,0.0,0.0,0.0,0.0,0.0,0.0,0.0,0.0,0.0,0.0,0.0,0.0,0.0,0.0,0.0,0.0,0.0,0.0,0.0,0.0,0.0,0.0,0.0,0.0,0.0,0.0,0.0,0.0,0.0,0.0,0.0,0.0,0.0,0.0,0.0,0.0,0.0,0.0,0.0,0.0,0.0,0.0,0.0,0.0,0.0,0.0,0.0,0.0,0.0,0.0,0.0,0.0,0.0,0.0,0.0,0.0,0.0,0.0,0.0,0.0,0.0,0.0,0.0,0.0,0.0,0.0,0.0,0.0,0.0,0.0,0.0,0.0,0.0,0.0,0.0,0.0,0.0,0.0,0.0,0.0,0.0,0.0,0.0,0.0,0.0,0.0,0.0,0.0,0.0,0.0,0.0,0.0,0.0,0.0,0.0,0.0,0.0,0.0,0.0,0.0,0.0,0.0,0.0,0.0,0.0,0.0,0.0,0.0,0.0,0.0,0.0,0.0,0.0,0.0,0.0,0.0,0.0,0.0,0.0,0.0,0.0,0.0,0.0,0.0,0.0,0.0,0.0,0.0,0.0,0.0,0.0,0.0,0.0,0.0,0.0,0.0,0.0,0.0,0.0,0.0,0.0,0.0,0.0,0.0,0.0,0.0,0.0,0.0,0.0,0.0,0.0,0.0,0.0,0.0,0.0,0.0,0.0,0.0,0.0,0.0,0.0,0.0,0.0,0.0,0.0,0.0,0.0,0.0,0.0,0.0,0.0,0.0,0.0,0.0,0.0,0.0,0.0,0.0,0.0,0.0,0.0,0.0,0.0,0.0,0.0,0.0,0.0,0.0,0.0,0.0,0.0,0.0,0.0,0.0,0.0,0.0,0.0,0.0,0.0,0.0,0.0,0.0,0.0,0.0,0.0,0.0,0.0,0.0,0.0,0.0,0.0,0.0,0.0,0.0,0.0,0.0,0.0,0.0,0.0,0.0,0.0,0.0,0.0,0.0,0.0,0.0,0.0,0.0,0.0,0.0,0.0,0.0,0.0,0.0,0.0,0.0,0.0,0.0,0.0,0.0,0.0,0.0,0.0,0.0,0.0,0.0,0.0,0.0,0.0,0.0,0.0,0.0,0.0,0.0,0.0,0.0,0.0,0.0,0.0,0.0,0.0,0.0,0.0,0.0,0.0,0.0,0.0,0.0,0.0,0.0,0.0,0.0,0.0,0.0,0.0,0.0,0.0,0.0,0.0,0.0,0.0,0.0,0.0,0.0,0.0,0.0,0.0,0.0,0.0,0.0,0.0,0.0,0.0,0.0,0.0,0.0,0.0,0.0,0.0,0.0,0.0,0.0,0.0,0.0,0.0,0.0,0.0,0.0,0.0,0.0,0.0,0.0,0.0,0.0,0.0,0.0,0.0,0.0,0.0,0.0,0.0,0.0,0.0,0.0,0.0,0.0,0.0,0.0,0.0,0.0,0.0,0.0,0.0,0.0,0.0,0.0,0.0,0.0,0.0,0.0,0.0,0.0,0.0,0.0,0.0,0.0,0.0,0.0,0.0,0.0,0.0,0.0,0.0,0.0,0.0,0.0,0.0,0.0,0.0,0.0,0.0,0.0,0.0,0.0,0.0,0.0,0.0,0.0,0.0,0.0,0.0,0.0,0.0,0.0,0.0,0.0,0.0,0.0,0.0,0.0,0.0,0.0,0.0,0.0,0.0,0.0,0.0,0.0,0.0,0.0,0.0,0.0,0.0,0.0,0.0,0.0,0.0,0.0,0.0,0.0,0.0,0.0,0.0,0.0,0.0,0.0,0.0,0.0,0.0,0.0,0.0,0.0,0.0,0.0,0.0,0.0,0.0,0.0,0.0,0.0,0.0,0.0,0.0,0.0,0.0,0.0,0.0,0.0,0.0,0.0,0.0,0.0,0.0,0.0,0.0,0.0,0.0,0.0,0.0,0.0,0.0,0.0,0.0,0.0,0.0,0.0,0.0,0.0,0.0,0.0,0.0,0.0,0.0,0.0,0.0,0.0,0.0,0.0,0.0,0.0,0.0,0.0,0.0,0.0,0.0,0.0,0.0,0.0,0.0,0.0,0.0,0.0,0.0,0.0,-2.4544,0.0,0.0,0.0,0.0,0.0,0.0,0.0,0.0,0.0,0.0,0.0,0.0,0.0,0.0,0.0,0.0,0.0,0.0,0.0,0.0,0.0,0.0,0.0,0.0,-2.182,-2.3127,-2.3459,-2.4143,-2.4674,-2.5081,0.0,0.0,0.0,0.0,0.0,0.0,0.0,-2.3993,-2.4728,-2.5063,-2.6032,-2.7528,-2.637,-2.4437,-2.1927,0.0,0.0,0.0,0.0,0.0,0.0,0.0,0.0,0.0,0.0,0.0,0.0,0.0,0.0,0.0,0.0,0.0,0.0,0.0,0.0,0.0,0.0,0.0,0.0,0.0,0.0,0.0,0.0,0.0,0.0,0.0,0.0,0.0,0.0,0.0,0.0,0.0,0.0,0.0,0.0,0.0,0.0,0.0,0.0,0.0,0.0,0.0,0.0,0.0,0.0,0.0,0.0,0.0,0.0,0.0,0.0,0.0,0.0,0.0,0.0,0.0,0.0,0.0,0.0,0.0,0.0,0.0,0.0,0.0,0.0,0.0,-2.7309,0.0,0.0,0.0,0.0,0.0,0.0,0.0,0.0,0.0,0.0,0.0,0.0,0.0,0.0,0.0,0.0,0.0,0.0,0.0,0.0,0.0,-2.0116,-2.036,-2.2192,-2.356,-2.3951,-2.4903,-2.5629,-2.5964,-2.6354,0.0,0.0,0.0,-2.5328,-2.4572,-2.4512,-2.5196,-2.6676,-2.7456,-2.8943,-3.1132,-3.2484,-3.0616,-2.6032,-2.4877,0.0,0.0,0.0,0.0,0.0,0.0,0.0,0.0,0.0,0.0,0.0,0.0,0.0,0.0,0.0,0.0,0.0,0.0,0.0,0.0,0.0,0.0,0.0,0.0,0.0,0.0,0.0,0.0,0.0,0.0,0.0,0.0,0.0,0.0,0.0,0.0,0.0,0.0,0.0,0.0,0.0,0.0,0.0,0.0,0.0,0.0,0.0,0.0,0.0,0.0,0.0,0.0,0.0,0.0,0.0,0.0,0.0,0.0,0.0,0.0,0.0,0.0,0.0,-3.7521,-3.8349,-3.947,-3.8841,-3.8761,-3.8988,-3.525,-3.2703,-3.1065,0.0,0.0,0.0,0.0,0.0,0.0,0.0,0.0,0.0,0.0,0.0,0.0,0.0,0.0,0.0,0.0,0.0,0.0,0.0,0.0,-2.062,-2.179,-2.2849,-2.423,-2.6099,-2.5829,-2.6133,-2.7418,-2.6927,-2.659,-2.6556,-2.6438,-2.6017,-2.5279,-2.5747,-2.6745,-2.8225,-3.2232,-3.5026,-3.6653,-3.676,-3.5669,-3.354,-3.0409,-2.8501,-2.7526,0.0,0.0,0.0,0.0,0.0,0.0,0.0,0.0,0.0,0.0,0.0,0.0,0.0,0.0,0.0,0.0,0.0,0.0,0.0,0.0,0.0,0.0,0.0,0.0,0.0,0.0,0.0,0.0,0.0,0.0,0.0,0.0,0.0,0.0,0.0,0.0,0.0,0.0,0.0,0.0,0.0,-2.3541,-2.4998,0.0,0.0,0.0,0.0,0.0,0.0,0.0,0.0,0.0,0.0,0.0,0.0,0.0,0.0,-3.7432,-3.9081,-4.0077,-4.0471,-4.2479,-4.314,-4.2612,-4.316,-4.2995,-4.2322,-4.2523,0.0,-3.6125,-3.4649,0.0,0.0,0.0,0.0,0.0,0.0,0.0,0.0,0.0,0.0,0.0,0.0,0.0,0.0,0.0,0.0,0.0,0.0,0.0,0.0,0.0,-2.4695,-2.6488,-2.7859,-2.882,-2.924,-2.9108,-2.8661,-2.8052,-2.7298,-2.7106,-2.685,-2.6516,-2.794,-3.0015,-3.2828,-3.6693,-3.8874,-3.9539,-3.99,-3.9428,-3.8221,-3.6625,-3.3862,-3.0249,-2.8152,0.0,0.0,0.0,0.0,0.0,0.0,0.0,0.0,0.0,0.0,0.0,0.0,0.0,0.0,0.0,0.0,0.0,0.0,0.0,0.0,0.0,0.0,0.0,0.0,0.0,0.0,0.0,0.0,0.0,0.0,0.0,0.0,0.0,0.0,0.0,0.0,0.0,0.0,0.0,-2.343,-2.6513,-2.6742,-2.7331,-2.6922,0.0,0.0,0.0,0.0,0.0,0.0,0.0,0.0,0.0,-3.7354,-3.9145,-4.0796,-4.2377,-4.3998,-4.5148,-4.5792,-4.6778,-4.7288,-4.7361,-4.7133,-4.6815,-4.6388,-4.6812,-4.5523,-4.2887,-3.9588,-3.6775,-3.4418,0.0,0.0,0.0,0.0,0.0,-3.2472,0.0,0.0,0.0,0.0,0.0,0.0,0.0,0.0,0.0,0.0,0.0,0.0,-2.4292,-2.6641,-2.8617,-3.0006,-3.157,-3.2124,-3.1292,-3.0359,-2.9427,-2.8575,-2.784,-2.7614,-2.8015,-3.08,-3.4049,-3.7669,-4.068,-4.2233,-4.2435,-4.2953,-4.2707,-4.1805,-4.1499,-3.8624,-3.386,-3.1674,-2.9702,-2.7721,0.0,0.0,0.0,0.0,0.0,0.0,0.0,0.0,0.0,0.0,0.0,0.0,0.0,0.0,0.0,0.0,0.0,0.0,0.0,0.0,0.0,0.0,0.0,0.0,0.0,0.0,0.0,0.0,0.0,0.0,0.0,0.0,0.0,0.0,0.0,0.0,0.0,-2.6644,-2.9107,-2.9094,-3.1016,-3.1189,0.0,0.0,0.0,0.0,0.0,0.0,-3.5462,-3.7443,-3.9619,-4.2014,-4.4027,-4.5606,-4.6702,-4.7907,-4.894,-4.9724,-4.9927,-5.0257,-5.0524,-5.0039,-4.9658,-4.9371,-4.9371,-4.9007,-4.8099,-4.3959,-4.0994,-3.8862,-3.7132,-3.6012,-3.5432,-3.6798,-3.7321,-3.7749,0.0,0.0,0.0,0.0,0.0,0.0,0.0,0.0,0.0,0.0,0.0,-2.3444,-2.7112,-2.8238,-2.996,-3.2929,-3.3267,-3.3626,-3.4235,-3.153,-3.0191,-3.081,-2.877,-2.8245,-2.9666,-3.4577,-3.8598,-4.1613,-4.4063,-4.5601,-4.6211,-4.6129,-4.5581,-4.4667,-4.382,-4.2195,-3.9841,-3.5452,-3.3184,-3.215,-2.7117,0.0,0.0,0.0,0.0,0.0,0.0,0.0,0.0,0.0,0.0,0.0,0.0,0.0,0.0,0.0,0.0,0.0,0.0,0.0,0.0,0.0,0.0,0.0,0.0,0.0,0.0,0.0,0.0,0.0,0.0,0.0,0.0,0.0,0.0,0.0,0.0,0.0,0.0,-3.3676,-3.5447,0.0,0.0,0.0,0.0,-3.6371,-3.7874,-3.9481,-4.1198,-4.2122,-4.3734,-4.6142,-4.7186,-4.8426,-4.9973,-5.0295,-5.0492,-5.0529,-5.1458,-5.1339,-5.0435,-5.1164,-5.0984,-5.0039,-5.0039,-5.0069,-4.9901,-4.7494,-4.5491,-4.3777,-4.2159,-4.0962,-4.0257,-4.1089,-4.1415,-4.1524,0.0,0.0,0.0,0.0,0.0,-1.7448,-1.7493,-1.8115,-1.8985,-2.001,-2.2441,-2.5196,-2.807,-3.0763,-3.3195,-3.5385,-3.6375,-3.6565,-3.5824,-3.3728,-3.2648,-3.2927,-3.1175,-3.1743,-3.511,-3.8487,-4.1176,-4.3184,-4.5068,-4.6133,-4.6368,-4.6337,-4.6049,-4.5599,-4.5336,-4.4507,-4.2987,-3.9017,-3.668,-3.5248,-3.0588,-2.6927,0.0,0.0,0.0,0.0,0.0,0.0,0.0,0.0,0.0,0.0,0.0,0.0,0.0,0.0,0.0,0.0,0.0,0.0,0.0,0.0,0.0,0.0,0.0,0.0,0.0,0.0,0.0,0.0,0.0,0.0,0.0,0.0,0.0,0.0,0.0,0.0,0.0,-3.6532,-3.9031,0.0,0.0,-3.8057,-3.9283,-4.0655,-4.1215,-4.246,-4.4673,-4.5055,-4.6106,-4.7968,-4.8865,-4.9829,-5.0917,-5.1514,-5.1835,-5.1887,-5.2222,-5.22,-5.1821,-5.2112,-5.2023,-5.1647,-5.1647,-5.167,-5.157,-5.0235,-4.8789,-4.7248,-4.6078,-4.5111,-4.4331,-4.4114,-4.4331,-4.4838,0.0,0.0,0.0,0.0,0.0,-1.7422,-1.7467,-1.8286,-1.9352,-2.0608,-2.3565,-2.6749,-2.9897,-3.2832,-3.5339,-3.7239,-3.8446,-3.8665,-3.7633,-3.579,-3.4762,-3.4738,-3.3715,-3.5096,-3.9276,-4.14,-4.3322,-4.4997,-4.6383,-4.6982,-4.692,-4.7013,-4.6917,-4.6729,-4.6529,-4.6131,-4.5344,-4.2394,-4.0005,-3.7934,-3.4037,-3.1012,-2.8439,0.0,0.0,0.0,0.0,0.0,0.0,0.0,0.0,0.0,0.0,0.0,0.0,0.0,0.0,0.0,0.0,0.0,0.0,0.0,0.0,0.0,0.0,0.0,0.0,0.0,0.0,0.0,0.0,0.0,0.0,0.0,0.0,0.0,0.0,0.0,-3.842,-3.8941,-4.1929,-4.3123,-4.0979,-4.2241,-4.3671,-4.4838,-4.4847,-4.5549,-4.7207,-4.7047,-4.7663,-4.9257,-4.98,-5.0597,-5.1683,-5.2272,-5.2559,-5.259,-5.2635,-5.2635,-5.259,-5.259,-5.2559,-5.248,-5.248,-5.248,-5.2444,-5.19,-5.1112,-5.0127,-4.8952,-4.8025,-4.7265,-4.6721,-4.6685,-4.6902,0.0,0.0,0.0,0.0,0.0,-1.7383,-1.7395,-1.8729,-2.0456,-2.2572,-2.4929,-2.8044,-3.2503,-3.4307,-3.6085,-3.8413,-3.9276,-3.9703,-3.9703,-3.7502,-3.6195,-3.6228,-3.637,-3.8077,-4.1577,-4.3313,-4.518,-4.7195,-4.8054,-4.8388,-4.8195,-4.8388,-4.8388,-4.8194,-4.7528,-4.7226,-4.7095,-4.5476,-4.316,-4.031,-3.7377,-3.5286,-3.3514,0.0,0.0,0.0,0.0,0.0,0.0,0.0,0.0,0.0,0.0,0.0,0.0,0.0,0.0,0.0,0.0,0.0,0.0,0.0,0.0,0.0,0.0,0.0,0.0,0.0,0.0,0.0,0.0,0.0,0.0,0.0,0.0,0.0,-3.4896,-3.7399,-3.9506,-4.1121,-4.4202,-4.56,-4.4153,-4.6822,-4.8728,-4.8909,-4.8728,-4.8728,-4.8873,-4.8134,-4.8424,-5.0003,-5.0075,-5.0836,-5.2408,-5.2486,-5.2518,-5.2518,-5.2666,-5.2666,-5.2554,-5.2554,-5.2522,-5.248,-5.248,-5.248,-5.248,-5.248,-5.248,-5.2335,-5.0764,-4.9655,-4.8981,-4.8909,-4.8366,-4.7678,0.0,0.0,0.0,-1.6166,-1.6815,-1.7407,-1.7467,-1.8658,-2.018,-2.1879,-2.5443,-2.9118,-3.255,-3.5161,-3.7411,-3.9242,-3.9499,-3.9554,-3.9554,-3.7353,-3.629,-3.6821,-3.9906,-4.2033,-4.3028,-4.5078,-4.6437,-4.6971,-4.7766,-4.813,-4.8195,-4.826,-4.8324,-4.842,-4.8219,-4.7788,-4.7162,-4.6697,-4.5673,-4.4022,-4.0575,-3.7989,-3.5909,0.0,0.0,0.0,0.0,0.0,0.0,0.0,0.0,0.0,0.0,0.0,0.0,0.0,0.0,0.0,0.0,0.0,0.0,0.0,0.0,0.0,0.0,0.0,0.0,0.0,0.0,0.0,0.0,0.0,0.0,0.0,0.0,-3.447,-3.6002,-3.8796,-4.1427,-4.354,-4.527,-4.6311,-4.6356,-4.7248,-4.815,-4.8837,-4.8244,-4.815,-4.8873,-4.8134,-4.817,-4.922,-4.922,-4.9727,-5.0764,-5.0786,-5.0808,-5.0808,-5.083,-5.1121,-5.1679,-5.1679,-5.1982,-5.248,-5.248,-5.248,-5.248,-5.248,-5.248,-5.2408,-5.1357,-5.0814,-5.0488,-4.922,-4.8258,-4.7572,0.0,0.0,0.0,-1.6397,-1.6924,-1.7407,-1.7443,-1.8632,-2.0185,-2.1984,-2.5839,-2.9543,-3.2475,-3.5167,-3.7278,-3.852,-3.879,-3.8745,-3.8524,-3.7783,-3.8096,-3.9725,-4.2241,-4.4029,-4.4956,-4.6245,-4.704,-4.7371,-4.81,-4.8498,-4.8563,-4.8628,-4.8693,-4.8822,-4.8521,-4.809,-4.7595,-4.7231,-4.6771,-4.6013,-4.3326,-4.1044,-3.909,-3.6605,-3.4508,-3.2663,-3.0813,-2.957,-2.8591,-2.7605,0.0,0.0,0.0,0.0,0.0,0.0,0.0,0.0,0.0,0.0,0.0,0.0,0.0,0.0,0.0,0.0,0.0,0.0,0.0,0.0,0.0,0.0,0.0,0.0,-3.3638,-3.5738,-3.731,-3.9921,-4.2604,-4.4943,-4.6126,-4.7025,-4.7715,-4.8301,-4.8829,-4.9365,-4.8612,-4.8302,-4.8873,-4.8134,-4.8098,-4.8873,-4.8909,-4.9293,-5.0112,-5.0112,-5.0112,-5.0112,-5.0112,-5.0365,-5.0814,-5.114,-5.1538,0.0,-5.2335,-5.248,-5.248,-5.248,-5.248,0.0,0.0,0.0,0.0,0.0,-4.7948,-4.7529,0.0,0.0,0.0,-1.6515,-1.6955,-1.7383,-1.7383,-1.8653,-2.035,-2.2517,-2.6002,-2.937,-3.2254,-3.4485,-3.6075,-3.6903,-3.7562,-3.7734,-3.7316,-3.8765,-4.0723,-4.3307,-4.3737,-4.4826,-4.6809,-4.6942,-4.7306,-4.8001,-4.863,-4.8961,-4.9028,-4.9094,-4.916,-4.9193,-4.8494,-4.8195,-4.8162,-4.7368,-4.7006,-4.6775,-4.5384,-4.3893,-4.2208,-3.956,-3.7573,-3.6075,-3.4811,-3.2962,-3.1061,-3.0516,0.0,0.0,0.0,0.0,0.0,0.0,0.0,0.0,0.0,0.0,0.0,0.0,0.0,0.0,0.0,0.0,0.0,0.0,0.0,0.0,0.0,0.0,0.0,0.0,-3.3975,-3.6292,-3.8611,-4.086,-4.3144,-4.5392,-4.6542,-4.7463,-4.829,-4.9234,-4.9858,-4.9858,-4.9184,-4.8764,-4.8764,0.0,0.0,0.0,0.0,-4.9112,-4.98,-4.9858,-4.9858,-4.9858,-4.9858,-4.993,-5.0112,-5.0814,-5.1249,-5.1466,-5.219,-5.248,-5.248,-5.2457,-5.2348,-5.2131,-5.1538,-5.0741,-4.9764,-4.8351,-4.7687,-4.7508,0.0,0.0,-1.7244,-1.7125,-1.7224,-1.7334,-1.7334,-1.8568,-2.0322,-2.2517,-2.5539,-2.8608,-3.1482,-3.3259,-3.475,-3.6108,-3.6878,-3.7687,-3.8572,-4.0438,-4.173,-4.2288,-4.4616,-4.6092,-4.6649,-4.7111,-4.7605,-4.8001,-4.7968,-4.8134,-4.8396,-4.8298,-4.8396,-4.8652,-4.8358,-4.8195,-4.8195,-4.803,-4.7566,-4.6808,-4.5947,-4.4357,-4.2373,-4.1102,-3.9445,-3.7639,-3.667,-3.5737,-3.484,-3.4397,-3.2725,-3.0583,-2.9185,-2.6843,0.0,0.0,0.0,0.0,0.0,0.0,0.0,0.0,0.0,0.0,0.0,0.0,0.0,0.0,0.0,0.0,0.0,0.0,0.0,-3.4101,-3.5971,-3.7719,-3.9468,-4.1181,-4.2929,-4.4621,-4.5194,-4.6025,-4.7392,-4.7912,-4.817,-4.817,-4.8025,-4.7932,-4.7932,-4.7787,0.0,-4.7953,-4.7932,-4.8025,-4.817,-4.817,-4.817,-4.817,0.0,0.0,-5.0112,-5.0257,-5.1031,-5.2263,-5.2408,-5.248,-5.248,-5.2364,-5.1558,-5.0462,-5.1081,-5.0371,-4.8945,-4.8743,-4.8092,-4.7363,0.0,-1.6629,-1.6963,-1.628,-1.6806,-1.7179,-1.6818,-1.7958,-1.9561,-2.1447,-2.4282,-2.698,-2.9218,-3.1073,-3.2464,-3.317,-3.4618,-3.6596,-3.9369,-4.1251,-4.2897,-4.441,-4.6222,-4.721,-4.7308,-4.7605,-4.7836,-4.8001,-4.8266,-4.8498,-4.863,-4.8597,-4.8663,-4.8794,-4.833,-4.8131,-4.8098,-4.7733,-4.7303,-4.6775,-4.5222,-4.3767,-4.2406,-4.1502,-4.0172,-3.8666,-3.8137,-3.739,-3.6605,-3.6386,-3.49,-3.2933,-3.1961,-2.9683,-2.7012,0.0,0.0,0.0,0.0,0.0,0.0,0.0,0.0,0.0,0.0,0.0,0.0,0.0,0.0,-2.9902,-3.126,0.0,-3.3981,-3.606,-3.7398,-3.8754,-4.0289,-4.1895,-4.3322,-4.4442,-4.5194,-4.6061,-4.7212,-4.7515,-4.7699,-4.7699,-4.7699,-4.7699,-4.7699,-4.7699,-4.7699,-4.7699,-4.7699,-4.7699,-4.7699,-4.7699,-4.7916,-4.8294,-4.8294,-4.8931,-5.0112,-5.051,-5.114,-5.19,-5.2229,-5.2387,-5.2387,-5.2353,-5.163,-5.0652,-5.1117,-5.0009,-4.8172,-4.8172,-4.8085,-4.7895,0.0,0.0,-1.6301,-1.5179,-1.6126,-1.6848,-1.6247,-1.7371,-1.8837,-2.035,-2.2913,-2.5141,-2.6682,-2.8536,-2.9827,-3.0257,-3.2519,-3.5555,-3.9408,-4.1502,-4.3836,-4.6481,-4.7307,-4.7704,-4.7704,-4.7671,-4.7737,-4.7802,-4.8498,-4.8862,-4.8895,-4.8895,-4.8895,-4.8862,-4.8133,-4.7802,-4.7736,-4.7007,-4.6609,-4.628,-4.4238,-4.295,-4.2117,-4.1139,-4.0172,-3.9255,-3.8929,-3.8077,-3.707,-3.6937,-3.576,-3.4206,-3.333,-3.159,-2.9576,-2.7879,-2.6031,0.0,0.0,0.0,0.0,0.0,0.0,0.0,0.0,0.0,-2.9476,-3.181,-3.265,-3.3211,-3.4093,-3.496,-3.6043,-3.7612,-3.8647,-3.9753,-4.1145,-4.2715,-4.4,-4.4771,-4.5645,-4.6493,-4.7248,-4.7515,-4.7699,-4.7699,-4.7699,-4.7699,-4.7699,-4.7699,-4.7699,-4.7699,-4.7699,-4.7772,-4.7932,-4.7932,-4.8351,-4.9148,-4.9148,-4.9546,-5.0365,-5.0995,-5.1357,-5.1529,-5.2064,-5.2222,-5.2198,-5.2246,-5.1824,-5.1194,-5.1217,-4.9951,-4.8085,-4.802,-4.8271,-4.8722,0.0,0.0,0.0,-1.4939,-1.5598,-1.6119,-1.6021,-1.7284,-1.8738,-2.0221,-2.1946,-2.3605,-2.5106,-2.6117,-2.7443,-2.9363,-3.2527,-3.5456,-3.7992,-4.1202,-4.3764,-4.5405,-4.6192,-4.6618,-4.6748,-4.6618,-4.6716,-4.7007,-4.7572,-4.7935,-4.8133,-4.8133,-4.8133,-4.81,-4.7338,-4.7007,-4.6974,-4.6245,-4.5487,-4.4702,-4.3902,-4.2683,-4.1181,-3.9797,-3.9253,-3.9189,-3.8401,-3.7316,-3.6237,-3.5656,-3.5026,-3.4269,-3.2964,-3.2849,-3.2622,-2.986,0.0,-2.7638,-2.7669,-2.7746,0.0,-3.0526,-3.0091,-3.0645,0.0,0.0,-3.3403,-3.5692,-3.5285,-3.48,-3.5686,-3.6611,-3.7556,-3.8521,-3.9896,-4.1145,-4.2037,-4.35,-4.4807,-4.5738,-4.6047,-4.6493,-4.7248,-4.7515,-4.7699,-4.7699,-4.7699,-4.7699,-4.7699,-4.7699,-4.7699,-4.7699,-4.7699,-4.804,-4.8764,-4.8764,-4.9184,-4.9945,-4.9945,-5.0379,-5.1176,-5.1249,-5.1615,-5.2185,-5.2138,-5.2054,-5.1956,-5.2078,-5.1587,-5.0797,-5.0915,-5.0351,-4.9487,-4.9577,-4.9604,-4.9562,0.0,0.0,0.0,-1.3579,-1.4894,-1.5857,-1.5358,-1.6593,-1.8072,-1.9516,-2.0678,-2.1965,-2.3374,-2.4227,-2.5428,-2.7226,-3.0204,-3.3322,-3.647,-4.0066,-4.293,-4.49,-4.6088,-4.6747,-4.6778,-4.7143,-4.7407,-4.7537,-4.777,-4.7935,-4.8001,-4.8001,-4.8001,-4.7968,-4.7239,-4.6908,-4.6808,-4.5649,-4.4691,-4.3872,-4.2683,-4.1626,-4.0535,-3.9001,-3.823,-3.793,-3.7015,-3.5976,0.0,-3.471,-3.4028,-3.3303,-3.3079,-3.2686,-3.2071,-3.0935,-3.0375,0.0,-3.0438,0.0,0.0,0.0,-3.1986,-3.2948,-3.6901,-3.665,-3.6169,-3.8038,-3.807,-3.7832,-3.8189,-3.8605,-3.918,0.0,-4.1074,-4.2114,-4.2926,-4.4428,-4.5537,-4.596,-4.65,-4.6982,-4.7371,-4.7593,-4.7699,-4.7699,-4.7699,-4.7699,-4.7699,-4.7699,-4.7699,-4.7699,-4.8149,-4.8547,-4.8909,-4.9365,-4.9981,-5.08,-5.08,-5.1212,-5.2009,-5.194,-5.1957,-5.2054,-5.2005,-5.1956,-5.1907,-5.1956,-5.1825,-5.1527,-5.1575,-5.1383,-5.0987,-5.0006,-4.9923,-5.0271,0.0,0.0,0.0,-1.2568,-1.4058,-1.5183,-1.4839,-1.6088,-1.7481,-1.8677,-1.9552,-2.0619,-2.2052,-2.2867,-2.3813,-2.5157,-2.7905,-3.1046,-3.4634,-3.8315,-4.1337,-4.3635,-4.5156,-4.5949,-4.598,-4.6709,-4.7073,-4.7073,-4.7305,-4.7404,-4.7404,-4.7404,-4.7404,-4.7371,-4.6609,-4.6278,-4.6179,-4.4721,-4.3764,-4.3109,-4.1593,-4.0601,-3.983,-3.8097,-3.6901,-3.6117,-3.5481,-3.4499,-3.3384,-3.2837,-3.2298,-3.1851,-3.1913,-3.1647,-3.1438,-3.1777,-3.2524,-3.3156,-3.2762,0.0,0.0,-3.3136,-3.3788,-3.4931,-3.6865,-3.7596,-3.8082,-3.9005,-3.9478,-3.9736,-3.9736,-4.021,-4.0824,-4.1645,-4.245,-4.3278,-4.4091,-4.5222,-4.6068,-4.6283,-4.6886,-4.732,-4.7428,-4.7515,-4.7593,-4.7593,-4.7593,-4.7615,-4.7636,-4.7636,-4.7766,-4.8004,-4.8583,-4.909,-4.9582,-5.0126,-5.0814,-5.1611,-5.1611,-5.1914,-5.2434,-5.2246,-5.2078,-5.1907,-5.1858,-5.1833,-5.1833,-5.1833,-5.1907,-5.2005,-5.2005,-5.2005,-5.1837,-5.0593,-5.0498,-5.0999,0.0,0.0,0.0,0.0,-1.3094,-1.3833,-1.458,-1.5947,-1.7145,-1.785,-1.8681,-1.9798,-2.1272,-2.2069,-2.2834,-2.36,-2.6325,-2.927,-3.2292,-3.5891,-3.8925,-4.121,-4.2726,-4.3578,-4.3698,-4.4423,-4.4818,-4.4818,-4.5516,-4.5847,-4.5847,-4.5847,-4.5847,-4.5814,-4.5086,-4.4785,-4.4655,-4.3197,-4.2485,-4.2235,-4.0955,-3.9869,-3.8809,-3.6795,-3.5148,-3.3889,-3.3856,-3.2995,-3.1562,-2.9454,-2.9398,-2.9927,-2.8663,-2.9739,0.0,-3.2586,-3.4973,-3.6857,0.0,0.0,-3.6301,-3.5723,-3.6338,-3.7247,-3.7903,-3.8772,-3.9186,-3.8324,-3.8924,-3.9615,-3.96,-4.1024,-4.2465,-4.3322,-4.4157,-4.495,-4.5628,-4.5895,-4.6283,-4.7071,-4.7178,-4.7245,0.0,-4.732,-4.732,-4.732,-4.732,-4.7363,-4.7493,-4.7529,-4.7933,-4.8837,-4.8873,-4.9655,-5.1212,-5.1249,-5.1647,-5.2444,-5.2444,-5.241,-5.2305,-5.2029,-5.1907,-5.1882,-5.1783,-5.1708,-5.1708,-5.1708,-5.1733,-5.1733,-5.1733,-5.1733,-5.1733,-5.1662,-5.1712,-5.1846,0.0,0.0,0.0,0.0,0.0,-1.3536,-1.3865,-1.5149,-1.6658,-1.8226,-1.9555,0.0,0.0,0.0,0.0,0.0,-2.4428,-2.6873,-2.987,-3.3059,-3.5865,-3.8243,-4.0682,-4.2059,-4.2142,-4.3363,-4.3992,-4.3992,-4.4224,-4.4357,-4.4357,-4.4357,-4.4357,-4.4324,-4.3595,-4.3264,-4.3197,-4.2204,-4.1215,-4.0293,-3.9852,-3.8897,-3.7621,-3.6448,-3.4783,-3.2884,0.0,-3.0122,-2.892,-2.8743,-2.8376,-2.8048,-2.8557,-2.9326,-3.0512,-3.2857,-3.4407,-3.5391,0.0,0.0,-3.6721,-3.6708,-3.724,-3.8033,-3.8894,-3.9317,-3.9403,-3.9161,-3.9363,-3.9777,-4.0309,-4.1369,-4.2454,-4.3358,-4.4614,-4.5587,-4.6004,-4.6484,-4.6892,-4.7178,-4.7178,0.0,0.0,0.0,0.0,-4.732,-4.732,-4.7363,-4.7472,-4.7493,-4.7933,-4.8873,-4.9438,-5.0198,-5.1285,-5.1828,-5.218,-5.2376,-5.2269,-5.2174,-5.2029,-5.1932,-5.1858,-5.1783,-5.1733,-5.1708,-5.1708,-5.1708,-5.1708,-5.1708,-5.1708,-5.1708,-5.1708,-5.1708,-5.1683,-5.1632,0.0,0.0,0.0,0.0,0.0,0.0,0.0,0.0,0.0,0.0,0.0,0.0,0.0,0.0,0.0,0.0,0.0,-2.4839,-2.7809,-3.0054,-3.2434,-3.5021,-3.7229,-3.8689,-3.9298,-4.0276,-4.1031,-4.1588,-4.1559,-4.172,-4.2071,-4.1956,-4.1985,-4.2038,-4.1517,-4.1286,-4.1309,-4.058,-3.9752,-3.8858,-3.8354,-3.7209,-3.5794,-3.4793,-3.3038,0.0,-2.9344,-2.7859,-2.6716,-2.7038,-2.6994,-2.6996,-2.8233,-2.9871,-3.1697,-3.3461,-3.4668,-3.5604,0.0,-3.696,-3.7271,-3.7545,-3.8108,-3.8757,-3.9413,-3.9514,-3.9332,-3.8773,-3.8919,-3.9186,-3.9469,-4.0937,-4.2391,-4.3216,-4.5183,-4.6556,-4.644,-4.7062,-4.7433,-4.7147,-4.7133,0.0,0.0,0.0,0.0,-4.7187,-4.7187,-4.7232,-4.7399,-4.7695,-4.8265,-4.9227,-5.0067,-5.0945,-5.1719,-5.218,-5.234,-5.2222,-5.2102,-5.198,-5.1907,-5.1858,-5.1783,-5.1708,-5.1708,-5.1708,-5.1708,-5.1708,-5.1708,-5.1708,-5.1708,-5.1708,-5.1708,-5.1708,-5.1632,-5.1505,0.0,0.0,0.0,0.0,0.0,0.0,0.0,0.0,0.0,0.0,0.0,0.0,0.0,0.0,0.0,0.0,0.0,0.0,-2.6054,-2.7021,-2.8748,-3.1569,-3.2657,-3.3852,-3.5313,-3.548,-3.6295,-3.7814,-3.7682,-3.8124,-3.9056,-3.8815,-3.8842,-3.9056,-3.895,-3.895,-3.899,-3.8268,-3.7937,-3.7772,-3.6348,-3.4877,-3.3363,-3.2034,-3.0129,-2.8075,-2.7476,-2.6356,-2.5096,-2.4792,-2.5698,-2.7163,-2.8082,-3.1451,-3.4967,-3.4436,-3.5869,-3.7498,-3.7065,-3.7496,-3.8117,-3.8305,-3.8944,-3.9509,-3.9438,-3.9403,-3.8904,-3.7255,-3.7525,-3.7851,0.0,0.0,-4.2263,-4.2823,-4.5769,-4.77,-4.686,-4.7463,-4.7724,0.0,0.0,0.0,0.0,0.0,0.0,-4.6998,0.0,-4.7066,-4.7178,-4.8008,-4.8911,-4.9861,-5.0783,-5.1683,-5.248,-5.234,-5.2198,-5.2102,-5.1956,-5.1882,-5.1882,-5.1758,-5.1708,-5.1708,-5.1708,-5.1708,-5.1708,-5.1708,-5.1708,-5.1708,-5.1708,-5.1708,-5.1708,-5.1708,-5.1607,-5.1479,0.0,0.0,0.0,0.0,0.0,0.0,0.0,0.0,0.0,0.0,0.0,0.0,0.0,0.0,0.0,0.0,0.0,0.0,-2.3829,-2.5265,-2.6884,-2.8746,-3.0662,-3.2099,-3.3036,-3.3615,-3.4333,-3.5172,-3.5248,-3.5422,-3.5636,-3.5661,-3.5711,-3.5786,-3.5761,-3.5761,-3.5753,-3.5029,-3.4403,-3.3811,-3.2866,-3.1945,-3.1046,-3.0673,-2.9214,-2.7377,-2.7274,-2.6042,-2.4862,0.0,0.0,0.0,0.0,-3.4356,-3.5878,-3.6588,-3.722,-3.7889,-3.8502,-3.8907,-3.913,-3.9237,-3.9393,-3.9332,-3.8732,-3.8108,-3.7345,-3.6303,-3.5336,-3.4581,0.0,0.0,0.0,-4.0588,-4.3878,0.0,-4.623,-4.6306,0.0,-4.6141,0.0,-4.6998,-4.6998,-4.6998,0.0,0.0,-4.6998,-4.7066,-4.7178,-4.7917,-4.8843,-4.9861,-5.0623,-5.1452,-5.234,-5.2102,-5.198,-5.1956,-5.1833,-5.1758,-5.1758,-5.1733,-5.1708,-5.1708,-5.1708,-5.1708,-5.1708,-5.1708,-5.1708,-5.1708,-5.1708,-5.1708,-5.1708,-5.1582,-5.1479,-5.135,0.0,0.0,0.0,0.0,0.0,0.0,0.0,0.0,0.0,0.0,0.0,0.0,0.0,0.0,0.0,0.0,0.0,0.0,0.0,-2.3884,-2.5176,-2.6928,-2.7994,-2.9027,-2.9964,-3.0204,-3.067,-3.1384,-3.1778,-3.1978,-3.2115,-3.207,-3.2115,-3.2206,-3.1833,-3.1702,-3.1747,-3.1648,-3.1353,0.0,0.0,-2.9899,-2.9136,-2.8555,-2.738,-2.6104,-2.6195,0.0,0.0,0.0,0.0,-3.5246,-3.6036,-3.6908,-3.776,-3.8083,0.0,-3.8517,-3.914,-3.9631,-3.989,-3.9605,-3.9473,-3.9109,-3.8003,-3.6818,-3.5671,-3.4436,-3.3228,0.0,0.0,0.0,0.0,0.0,0.0,0.0,-4.5427,-4.5561,-4.5717,0.0,-4.6212,0.0,-4.6962,-4.6998,-4.6998,0.0,-4.6998,-4.7186,-4.7612,-4.8373,-4.9254,-5.0243,-5.1011,-5.1634,-5.2126,-5.198,-5.1858,-5.1808,-5.1758,-5.1708,-5.1708,-5.1708,-5.1708,-5.1708,0.0,-5.1708,-5.1708,-5.1708,-5.1708,-5.1708,-5.1708,-5.1683,-5.1607,-5.1531,-5.1376,-5.1193,0.0,0.0,0.0,0.0,0.0,0.0,0.0,0.0,0.0,0.0,-1.9327,0.0,0.0,0.0,0.0,0.0,0.0,0.0,0.0,0.0,-2.3909,-2.5681,-2.5468,-2.5847,-2.7031,-2.6675,-2.6869,-2.7721,-2.8315,-2.8744,-2.8993,-2.8733,-2.8786,-2.8981,-2.8204,-2.7963,-2.8096,-2.862,-2.885,-2.885,-2.8764,-2.8257,-2.746,0.0,0.0,0.0,0.0,0.0,0.0,0.0,-3.5543,-3.7115,-3.8227,-3.9408,-4.0227,-3.9373,-3.926,-3.9454,-3.9582,-4.0046,-4.0334,-3.9664,-3.925,-3.862,-3.7145,-3.5565,-3.3896,-3.2283,0.0,-3.0329,-2.9478,-3.3758,-3.727,-3.6696,0.0,-4.5346,-4.4303,-4.4729,-4.5258,-4.5597,-4.5749,-4.6105,-4.6926,-4.6998,-4.6998,-4.6998,-4.7105,-4.7484,-4.8163,-4.9114,-4.9985,-5.0832,-5.1634,-5.2005,-5.1882,-5.1882,-5.1808,-5.1708,-5.1708,-5.1708,-5.1708,-5.1708,-5.1708,-5.1708,0.0,0.0,-5.1708,-5.1708,-5.1708,-5.1708,-5.1683,-5.1607,-5.1479,-5.1454,-5.1298,-5.1096,0.0,0.0,0.0,0.0,0.0,0.0,0.0,0.0,0.0,0.0,-2.0532,-2.0145,0.0,0.0,0.0,0.0,0.0,0.0,0.0,0.0,0.0,-2.4417,-2.4997,-2.5655,-2.6363,-2.6309,-2.6584,0.0,0.0,-2.7708,-2.778,-2.7842,-2.7903,-2.7944,-2.7794,-2.7762,-2.7749,-2.7295,-2.712,-2.7088,-2.6484,-2.605,-2.5812,-2.5713,0.0,0.0,0.0,0.0,0.0,0.0,-3.8348,-4.2019,-4.1239,-4.2165,-4.3138,-4.1302,-4.0894,-4.1028,-4.1305,-4.0983,-4.0419,-3.9664,-3.8536,-3.7279,-3.619,-3.4226,0.0,0.0,0.0,-2.7816,-2.7052,-2.9892,0.0,-3.3932,0.0,0.0,0.0,0.0,-4.3188,0.0,0.0,0.0,0.0,0.0,0.0,0.0,0.0,0.0,-4.8199,-4.9555,-5.0698,-5.1508,-5.1786,-5.1882,-5.1758,-5.1758,-5.1733,-5.1708,-5.1708,-5.1708,-5.1708,-5.1708,-5.1708,-5.1708,0.0,0.0,-5.1708,-5.1708,-5.1708,-5.1708,-5.1582,-5.1505,-5.1454,-5.1246,-5.1149,-5.1096,0.0,0.0,0.0,0.0,0.0,0.0,0.0,-1.9953,-2.1233,-2.3417,-2.3174,-2.2841,-2.2979,-2.2663,-2.2441,0.0,0.0,0.0,0.0,0.0,0.0,0.0,0.0,0.0,0.0,0.0,0.0,0.0,0.0,0.0,0.0,0.0,0.0,0.0,0.0,0.0,-2.5316,-2.5381,-2.5451,-2.5508,0.0,0.0,0.0,0.0,0.0,0.0,0.0,0.0,0.0,0.0,-3.6518,-4.1737,-4.2057,-4.2936,-4.3444,-4.1696,-4.1323,-4.1468,-4.1178,-4.0848,-4.0179,-3.8581,-3.7591,-3.6439,-3.4254,0.0,0.0,0.0,-2.7511,-2.5967,-2.5147,0.0,0.0,0.0,0.0,0.0,0.0,0.0,0.0,0.0,0.0,0.0,0.0,0.0,0.0,0.0,0.0,0.0,-4.8782,-5.0281,-5.128,-5.1672,-5.1758,-5.1783,-5.1708,-5.1708,-5.1708,-5.1708,-5.1708,-5.1708,-5.1708,-5.1708,-5.1708,-5.1708,-5.1708,0.0,-5.1708,-5.1708,-5.1708,-5.1708,-5.1556,-5.1454,-5.1376,-5.1167,-5.0981,-5.0838,0.0,0.0,0.0,0.0,0.0,0.0,0.0,-2.1268,-2.2754,-2.5238,-2.5768,-2.5592,-2.4784,-2.3992,-2.3399,0.0,0.0,0.0,0.0,0.0,0.0,0.0,0.0,0.0,0.0,0.0,0.0,0.0,0.0,0.0,0.0,0.0,0.0,0.0,0.0,0.0,0.0,0.0,-2.4516,0.0,0.0,0.0,0.0,0.0,0.0,0.0,0.0,0.0,0.0,0.0,-3.3428,-3.84,-4.0492,-4.2234,-4.3168,-4.158,-4.13,-4.1362,-4.0691,-4.0095,-3.9266,-3.7406,-3.6381,-3.511,-3.2539,-3.056,0.0,0.0,-2.5734,-2.4565,-2.3908,0.0,-2.9564,0.0,0.0,0.0,0.0,0.0,0.0,0.0,0.0,0.0,0.0,0.0,0.0,0.0,0.0,0.0,-4.9792,-5.0994,-5.1708,-5.1708,-5.1708,-5.1708,-5.1708,-5.1708,-5.1708,-5.1708,-5.1708,-5.1708,-5.1708,-5.1708,-5.1708,-5.1708,-5.1708,0.0,0.0,-5.1708,-5.1708,-5.1658,-5.1505,-5.1376,-5.1246,-5.1123,-5.0838,-5.0612,0.0,0.0,0.0,0.0,0.0,0.0,0.0,-2.2305,-2.4349,-2.7791,-2.7314,-2.682,-2.7319,-2.626,-2.5118,0.0,0.0,0.0,0.0,0.0,0.0,0.0,0.0,0.0,0.0,0.0,0.0,0.0,0.0,0.0,0.0,0.0,0.0,0.0,0.0,0.0,0.0,0.0,0.0,0.0,0.0,0.0,0.0,0.0,0.0,0.0,0.0,0.0,0.0,0.0,0.0,-3.2177,-3.5206,-3.9773,-4.3606,-4.1457,0.0,0.0,-4.0648,-3.8859,-3.7096,-3.6886,-3.4641,-3.2403,-3.1944,0.0,0.0,-2.6215,-2.4799,-2.3719,-2.3707,-2.4093,-2.5335,0.0,0.0,-3.249,0.0,0.0,0.0,0.0,0.0,0.0,0.0,0.0,0.0,0.0,0.0,0.0,0.0,-5.1601,-5.1708,-5.1708,-5.1708,-5.1708,-5.1708,-5.1708,-5.1708,-5.1708,-5.1708,-5.1708,-5.1708,-5.1708,-5.1708,-5.1708,0.0,0.0,0.0,-5.1708,-5.1632,-5.1505,-5.1376,-5.1246,-5.1123,-5.0989,-5.0757,-5.0612,0.0,0.0,0.0,0.0,0.0,0.0,-2.207,-2.3022,-2.4503,-2.7604,-2.7899,-2.7821,-2.7711,-2.6772,-2.5695,-2.4504,0.0,0.0,0.0,0.0,0.0,0.0,0.0,0.0,0.0,0.0,0.0,0.0,0.0,0.0,0.0,0.0,0.0,0.0,0.0,0.0,0.0,0.0,0.0,0.0,0.0,0.0,0.0,0.0,0.0,0.0,0.0,0.0,0.0,0.0,0.0,0.0,-2.9902,-3.3333,0.0,0.0,-3.9582,-3.9544,-3.9118,-3.7915,-3.6402,-3.4987,-3.3966,-3.2791,-3.0816,0.0,-2.7277,-2.5493,-2.3974,-2.2959,-2.2986,-2.337,-2.4422,-2.668,0.0,0.0,0.0,0.0,0.0,0.0,0.0,0.0,0.0,0.0,0.0,0.0,0.0,0.0,0.0,-5.1708,-5.1708,-5.1708,-5.1708,-5.1708,-5.1708,-5.1708,-5.1708,-5.1708,-5.1708,-5.1708,-5.1708,-5.1708,-5.1708,-5.1708,0.0,0.0,0.0,-5.1607,-5.1556,-5.1479,-5.1246,-5.1141,-5.1096,-5.0962,-5.0757,-5.0612,0.0,0.0,0.0,0.0,0.0,-1.9418,-2.2198,-2.3114,-2.4348,-2.6885,-2.7674,-2.7884,-2.765,-2.6722,-2.5772,-2.4875,-2.4563,0.0,0.0,0.0,0.0,0.0,0.0,0.0,0.0,0.0,-2.4823,-2.5484,-2.5557,0.0,0.0,0.0,0.0,0.0,0.0,0.0,0.0,0.0,0.0,0.0,0.0,0.0,0.0,0.0,0.0,0.0,0.0,0.0,0.0,0.0,0.0,0.0,0.0,0.0,0.0,0.0,-3.7406,-3.7469,-3.7513,-3.66,-3.5168,-3.3325,-3.3068,-3.2548,0.0,0.0,-2.7079,-2.4979,-2.343,-2.2446,-2.246,-2.2925,-2.3822,-2.5358,0.0,-2.868,0.0,0.0,0.0,0.0,0.0,0.0,0.0,0.0,0.0,0.0,0.0,0.0,0.0,-5.1708,-5.1708,-5.1708,-5.1708,-5.1708,-5.1708,-5.1708,-5.1708,-5.1708,-5.1708,-5.1708,-5.1708,-5.1708,-5.1708,-5.1708,0.0,0.0,0.0,-5.1531,-5.1454,-5.135,-5.1167,-5.1096,-5.1043,-5.0927,-5.0764,-5.0592,0.0,0.0,0.0,0.0,0.0,0.0,-2.091,-2.2352,-2.404,-2.605,-2.6461,-2.6753,-2.7357,-2.6267,-2.5453,-2.5302,-2.4204,0.0,0.0,0.0,0.0,0.0,0.0,0.0,0.0,0.0,-2.4823,-2.5484,-2.5376,-2.5441,-2.5685,0.0,0.0,0.0,0.0,0.0,0.0,0.0,0.0,0.0,0.0,0.0,0.0,0.0,0.0,0.0,0.0,0.0,0.0,0.0,0.0,0.0,0.0,-2.595,-2.7067,-3.2701,-3.4539,-3.4976,-3.6048,-3.4743,-3.297,-3.2207,-3.1726,-3.0829,0.0,0.0,-2.6269,-2.4704,-2.3268,-2.2307,-2.2377,-2.2391,-2.2929,-2.4447,-2.6015,0.0,0.0,0.0,0.0,0.0,0.0,0.0,0.0,0.0,0.0,0.0,0.0,0.0,0.0,-5.1708,-5.1708,-5.1708,-5.1708,-5.1708,-5.1708,-5.1708,-5.1708,-5.1708,-5.1708,-5.1708,-5.1708,-5.1708,-5.1708,0.0,0.0,0.0,0.0,-5.1505,-5.1324,-5.1123,-5.1123,-5.1043,-5.0873,-5.0873,-5.0682,-5.0425,0.0,0.0,0.0,0.0,0.0,0.0,0.0,-2.1877,-2.3069,-2.4727,-2.5225,-2.5763,-2.6482,-2.5326,-2.4661,-2.5194,-2.4596,0.0,0.0,0.0,0.0,0.0,0.0,0.0,0.0,-2.4845,-2.5574,-2.7072,-2.712,-2.7363,-2.7741,-2.7333,-2.6801,0.0,0.0,0.0,0.0,0.0,0.0,0.0,0.0,0.0,0.0,0.0,0.0,0.0,0.0,0.0,0.0,0.0,0.0,0.0,0.0,0.0,0.0,-2.6902,-3.0149,-3.2913,-3.3543,-3.314,-3.2144,-3.0407,-3.053,-3.0528,-2.8313,0.0,-2.6739,-2.4676,-2.3115,-2.2132,-2.2223,-2.2313,-2.3333,-2.6449,-2.7368,0.0,0.0,0.0,0.0,0.0,0.0,0.0,0.0,0.0,0.0,0.0,0.0,0.0,0.0,-5.1708,-5.1708,-5.1708,-5.1708,-5.1708,-5.1708,-5.1708,-5.1708,-5.1708,-5.1708,-5.1708,-5.1708,-5.1708,0.0,0.0,0.0,0.0,0.0,-5.1298,-5.1202,-5.1096,-5.1016,-5.0962,-5.0873,-5.0873,-5.0764,-5.053,0.0,0.0,0.0,0.0,0.0,0.0,0.0,-2.1252,-2.206,-2.2946,-2.3794,-2.4576,-2.5343,-2.4628,-2.4362,-2.5151,-2.4718,0.0,0.0,0.0,0.0,0.0,0.0,0.0,-2.4762,-2.4654,-2.5591,-2.7576,-2.7625,-2.8056,-2.8858,-2.8541,-2.7843,-2.6879,-2.6626,-2.6413,0.0,0.0,0.0,0.0,0.0,0.0,-2.5358,0.0,0.0,0.0,0.0,0.0,0.0,0.0,0.0,0.0,0.0,0.0,0.0,0.0,-2.6831,-2.9456,-3.0653,-3.1002,-3.0596,-2.8994,-2.9559,0.0,0.0,0.0,-2.6533,-2.4546,-2.2991,-2.2013,-2.2123,-2.2166,-2.3148,-2.6165,-2.6877,0.0,0.0,0.0,0.0,0.0,0.0,0.0,0.0,0.0,0.0,0.0,0.0,0.0,0.0,0.0,-5.1708,-5.1708,-5.1708,-5.1708,-5.1708,-5.1708,-5.1708,-5.1708,-5.1708,-5.1708,-5.1708,-5.1708,0.0,0.0,0.0,0.0,0.0,-5.1176,-5.1096,-5.1043,-5.0927,-5.0873,-5.0873,-5.0873,-5.0764,-5.0502,0.0,0.0,0.0,0.0,0.0,0.0,0.0,-2.0552,-2.1106,-2.1167,-2.2297,-2.3366,-2.409,-2.4202,-2.4447,-2.5037,0.0,0.0,0.0,0.0,0.0,0.0,0.0,0.0,-2.4242,-2.4146,-2.515,-2.7306,-2.7302,-2.8002,-2.9419,-2.9321,-2.8516,-2.7158,-2.7248,-2.6916,-2.6283,-2.6396,-2.6388,-2.6212,-2.5479,-2.5225,0.0,0.0,0.0,0.0,0.0,0.0,0.0,0.0,0.0,0.0,0.0,0.0,0.0,0.0,0.0,0.0,0.0,-2.8308,-2.844,-2.7772,-2.8505,-2.8872,-2.6663,0.0,0.0,-2.4232,-2.2881,-2.2017,-2.2199,-2.2199,-2.2765,-2.4637,0.0,0.0,0.0,0.0,0.0,0.0,0.0,0.0,0.0,0.0,0.0,0.0,0.0,0.0,0.0,0.0,-5.1708,-5.1708,-5.1708,-5.1708,-5.1708,-5.1708,-5.1708,-5.1708,-5.1708,-5.1708,-5.1708,-5.1708,0.0,0.0,0.0,0.0,0.0,-5.1096,-5.1016,-5.0873,-5.0873,-5.0873,-5.0873,-5.0873,-5.0682,-5.0397,0.0,0.0,0.0,0.0,0.0,0.0,0.0,0.0,0.0,0.0,-2.2504,-2.3244,-2.3828,-2.4067,-2.417,0.0,0.0,0.0,0.0,0.0,0.0,0.0,0.0,0.0,-2.4662,-2.5033,-2.6219,-2.8256,-2.9354,-3.0531,-3.1743,-3.1829,-3.1106,-2.9645,-2.9429,-2.8454,-2.6987,-2.701,-2.6658,-2.6016,-2.5324,-2.5116,0.0,0.0,0.0,0.0,-2.3196,-2.3582,0.0,0.0,0.0,0.0,0.0,0.0,0.0,0.0,-2.2794,-2.3025,-2.3665,0.0,-2.6282,-2.5076,-2.5354,-2.5715,0.0,-2.4447,0.0,0.0,0.0,0.0,0.0,0.0,0.0,0.0,0.0,0.0,0.0,0.0,0.0,0.0,0.0,0.0,0.0,0.0,0.0,0.0,0.0,0.0,0.0,0.0,-5.1708,-5.1708,-5.1708,-5.1708,-5.1708,-5.1708,-5.1708,-5.1708,-5.1708,-5.1708,-5.1708,-5.1607,0.0,0.0,0.0,0.0,-5.1096,-5.1016,-5.09,-5.0873,-5.0873,-5.0873,-5.0873,-5.0729,-5.0564,-5.0369,0.0,0.0,0.0,0.0,0.0,0.0,0.0,0.0,0.0,0.0,0.0,-2.2748,-2.3374,-2.3779,0.0,0.0,0.0,0.0,0.0,0.0,0.0,0.0,0.0,-2.4026,-2.4695,-2.4963,-2.623,-2.8528,-2.9375,-3.0546,-3.2048,-3.2136,-3.1446,-3.0043,-2.9324,-2.845,-2.754,-2.7228,-2.6869,-2.6373,-2.5326,0.0,0.0,0.0,0.0,0.0,-2.2628,-2.2855,0.0,-2.3404,-2.3787,-2.4191,0.0,0.0,0.0,0.0,-2.1952,-2.1745,-2.1794,-2.3985,-2.6101,-2.5422,-2.575,-2.6176,-2.5815,-2.4771,0.0,0.0,0.0,0.0,0.0,0.0,0.0,0.0,0.0,0.0,0.0,0.0,0.0,0.0,0.0,0.0,0.0,0.0,0.0,0.0,0.0,0.0,0.0,0.0,-5.1708,-5.1708,-5.1708,-5.1708,-5.1708,-5.1708,-5.1708,-5.1708,-5.1708,-5.1708,-5.1708,-5.1556,0.0,0.0,0.0,0.0,-5.0981,-5.09,-5.0873,-5.0873,-5.0873,-5.0846,-5.0729,-5.0612,-5.0481,-5.0285,0.0,0.0,0.0,0.0,0.0,0.0,0.0,0.0,0.0,0.0,0.0,0.0,0.0,0.0,0.0,0.0,0.0,0.0,0.0,0.0,0.0,0.0,-2.3739,-2.3903,-2.4656,-2.4647,-2.5818,-2.834,-2.8827,-2.9953,-3.1659,-3.1868,-3.1207,-2.9708,-2.8372,-2.7744,-2.7631,-2.6957,-2.6593,-2.6364,-2.5123,0.0,0.0,0.0,0.0,0.0,0.0,0.0,0.0,-2.3272,-2.3745,-2.4074,-2.388,0.0,0.0,0.0,0.0,0.0,-2.147,-2.4209,-2.6886,-2.6455,-2.7068,-2.7767,-2.759,0.0,0.0,0.0,0.0,0.0,0.0,-2.7843,0.0,0.0,0.0,0.0,0.0,0.0,0.0,0.0,0.0,0.0,0.0,0.0,0.0,0.0,0.0,0.0,0.0,0.0,0.0,-5.1708,-5.1708,-5.1708,-5.1708,-5.1708,-5.1708,-5.1708,-5.1708,-5.1708,-5.1672,-5.1531,-5.1402,0.0,0.0,0.0,-5.0873,-5.0873,-5.0873,-5.0873,-5.0873,-5.0792,-5.0585,-5.0557,-5.0397,-5.0178,0.0,0.0,0.0,0.0,0.0,0.0,0.0,0.0,0.0,0.0,0.0,0.0,0.0,0.0,0.0,0.0,0.0,0.0,0.0,0.0,0.0,-2.3696,-2.3458,-2.3918,-2.5059,-2.5112,-2.6115,-2.8154,-3.0142,-3.1481,-3.2229,-3.3576,-3.2885,-3.0448,-2.8609,-2.7182,-2.6089,-2.5425,-2.4724,-2.4094,-2.3893,0.0,0.0,0.0,0.0,0.0,0.0,0.0,0.0,-2.1203,-2.2398,-2.3864,-2.2635,0.0,0.0,0.0,0.0,0.0,-2.3138,-2.5886,-2.7536,-2.4586,-2.5389,-2.6743,-2.6184,-2.5715,0.0,0.0,0.0,0.0,0.0,0.0,0.0,0.0,0.0,0.0,0.0,0.0,0.0,0.0,0.0,0.0,0.0,0.0,0.0,0.0,0.0,0.0,0.0,0.0,0.0,-5.1708,-5.1708,-5.1708,-5.1708,-5.1708,-5.1708,-5.1708,-5.1708,-5.1708,-5.1708,-5.1454,-5.1324,0.0,0.0,-5.09,-5.0873,-5.0873,-5.0873,-5.0873,-5.0873,-5.0792,-5.0585,-5.0481,-5.0228,-4.9982,0.0,0.0,0.0,0.0,0.0,0.0,0.0,0.0,0.0,0.0,0.0,0.0,0.0,0.0,0.0,0.0,0.0,0.0,0.0,0.0,-2.4052,-2.4338,-2.4599,-2.5051,-2.5614,-2.6419,-2.7715,-2.9546,-3.1189,-3.2258,-3.2823,-3.2916,-3.1926,-3.0036,-2.8723,-2.759,-2.6578,-2.5484,-2.4819,-2.4416,0.0,0.0,0.0,0.0,0.0,0.0,0.0,0.0,0.0,0.0,-2.2052,-2.3228,-2.2114,0.0,0.0,0.0,0.0,0.0,-2.2033,-2.4729,-2.7006,-2.5837,-2.8197,-3.0738,-3.0456,-2.9585,-2.8817,0.0,0.0,0.0,0.0,0.0,0.0,0.0,0.0,0.0,0.0,0.0,0.0,0.0,0.0,0.0,0.0,0.0,0.0,0.0,0.0,0.0,0.0,0.0,0.0,0.0,-5.1708,-5.1708,-5.1708,-5.1708,-5.1708,-5.1708,-5.1708,-5.1708,-5.1708,-5.1505,-5.1376,-5.1298,0.0,-5.0989,-5.0873,-5.0873,-5.0873,-5.0873,-5.0792,-5.0647,-5.0453,-5.0143,-5.0154,-5.042,0.0,0.0,0.0,0.0,0.0,0.0,0.0,0.0,0.0,0.0,0.0,0.0,0.0,0.0,0.0,0.0,0.0,0.0,0.0,-2.4279,-2.4458,-2.5038,-2.5854,-2.641,-2.6652,-2.7833,-2.9392,-3.1336,-3.2285,-3.312,-3.3776,-3.2378,-3.1004,-2.9719,-2.8601,-2.7747,-2.7089,-2.5632,-2.5018,-2.4976,0.0,0.0,0.0,0.0,0.0,0.0,0.0,0.0,0.0,0.0,0.0,0.0,0.0,0.0,0.0,-2.1584,-2.119,-2.1142,-2.1665,-2.3941,-2.6425,-2.7422,-3.0458,-3.3478,-3.4643,-3.335,-3.213,0.0,0.0,0.0,0.0,0.0,0.0,0.0,0.0,0.0,0.0,0.0,0.0,0.0,0.0,0.0,0.0,0.0,0.0,0.0,0.0,0.0,0.0,0.0,0.0,0.0,-5.1708,-5.1708,-5.1708,-5.1708,-5.1708,-5.1708,-5.1708,-5.1708,-5.1708,-5.1556,-5.1454,-5.135,-5.1167,-5.1043,-5.0927,-5.09,-5.0873,-5.0873,-5.0675,-5.0509,-5.0285,-4.9825,-5.0022,-5.0536,0.0,0.0,0.0,0.0,0.0,0.0,0.0,0.0,0.0,0.0,0.0,0.0,0.0,0.0,0.0,0.0,0.0,0.0,0.0,-2.4332,-2.4557,-2.5153,-2.6415,-2.76,-2.8669,-2.898,-3.0392,-3.2933,-3.3741,-3.4552,-3.5277,-3.3242,-3.1515,-3.0149,-2.8172,-2.6963,-2.6382,-2.5023,-2.4528,-2.4582,-2.3887,0.0,0.0,0.0,0.0,0.0,0.0,0.0,0.0,0.0,0.0,0.0,0.0,0.0,-2.2789,-2.2754,-2.2329,-2.2216,-2.4163,-2.5433,-2.6532,-2.7901,-2.9064,-3.1001,-3.5375,-3.4651,0.0,-3.7603,0.0,0.0,0.0,0.0,0.0,0.0,0.0,0.0,0.0,0.0,0.0,0.0,0.0,0.0,0.0,0.0,0.0,0.0,0.0,0.0,0.0,0.0,0.0,0.0,0.0,-5.1708,-5.1708,-5.1708,-5.1708,-5.1708,-5.1708,-5.1708,-5.1708,-5.1556,-5.1479,-5.1454,-5.1193,-5.1096,-5.1096,-5.0962,-5.0873,-5.0873,-5.0675,-5.0453,-5.0143,-4.9679,-4.9624,-4.982,0.0,0.0,0.0,0.0,0.0,0.0,0.0,0.0,0.0,0.0,0.0,-2.2942,-2.352,0.0,0.0,0.0,0.0,0.0,0.0,-2.464,-2.5147,-2.5796,-2.7195,-2.8346,-2.9208,-3.0478,-3.199,-3.3769,-3.4641,-3.4735,-3.4105,-3.2883,-3.1366,-2.9616,-2.8275,-2.7421,-2.6815,-2.5292,-2.4687,-2.4646,-2.368,-2.2628,0.0,0.0,0.0,0.0,0.0,0.0,0.0,0.0,-2.1263,-2.2064,-2.1441,-2.2267,-2.3142,-2.1788,-2.1656,-2.1946,-2.2137,-2.4453,-2.701,-2.8005,-2.9775,0.0,0.0,-3.6766,-3.7883,-4.0102,-4.0536,0.0,0.0,0.0,0.0,0.0,0.0,0.0,0.0,0.0,0.0,0.0,0.0,0.0,0.0,0.0,0.0,0.0,0.0,0.0,0.0,0.0,0.0,0.0,0.0,-5.1708,-5.1708,-5.1708,-5.1708,-5.1708,-5.1708,-5.1708,-5.1708,-5.1658,-5.1582,-5.1479,-5.1298,-5.1167,-5.1096,-5.0962,-5.0873,-5.0846,-5.0592,-5.0285,-5.0034,-4.9654,-4.9808,-5.0253,0.0,0.0,0.0,0.0,0.0,0.0,0.0,0.0,-2.0946,0.0,0.0,0.0,0.0,-2.3199,0.0,0.0,0.0,0.0,-2.4105,-2.4605,-2.5158,-2.5835,-2.728,-2.8393,-2.9074,-3.098,-3.2764,-3.4284,-3.5034,-3.4882,-3.3864,-3.2494,-3.1131,-2.9714,-2.8462,-2.7732,-2.731,-2.5583,-2.4898,-2.4801,-2.3639,-2.2637,0.0,0.0,0.0,0.0,0.0,0.0,0.0,0.0,-2.0983,-2.1706,-2.1175,-2.1952,-2.2736,-2.1276,-2.1614,-2.225,-2.1387,-2.3838,-2.6849,-2.7784,0.0,0.0,-3.5792,-3.8048,-4.0183,-4.2549,-4.3059,0.0,0.0,0.0,0.0,0.0,0.0,0.0,0.0,0.0,0.0,0.0,0.0,0.0,0.0,0.0,0.0,0.0,0.0,0.0,0.0,0.0,0.0,0.0,0.0,-5.1708,-5.1708,-5.1708,-5.1708,-5.1708,-5.1708,-5.1708,-5.1708,-5.1708,-5.1658,-5.1556,-5.1428,-5.1298,-5.1141,-5.1008,-5.0873,-5.071,-5.0516,-5.0235,-4.9982,-4.9624,-4.9812,-5.0195,0.0,0.0,0.0,0.0,0.0,0.0,0.0,0.0,-2.0927,-2.1605,-2.2283,0.0,0.0,0.0,0.0,0.0,0.0,0.0,-2.4048,-2.4078,-2.4394,-2.5062,-2.6549,-2.7683,-2.8363,-3.0296,-3.2318,-3.4503,-3.4939,-3.5172,-3.5112,-3.2221,-3.0866,-3.069,-2.8621,-2.7777,-2.7764,-2.5837,-2.5091,-2.5088,-2.3843,-2.3223,-2.3031,0.0,0.0,0.0,0.0,0.0,0.0,0.0,-2.0606,-2.0518,-2.1843,-2.1867,-2.145,-2.1557,-2.2542,-2.346,-2.2774,-2.4064,-2.5975,-2.7354,0.0,0.0,-3.6395,-3.8197,-4.0435,-4.5114,0.0,-4.5078,0.0,0.0,0.0,0.0,0.0,0.0,0.0,0.0,0.0,0.0,0.0,0.0,0.0,0.0,0.0,0.0,0.0,0.0,0.0,0.0,0.0,0.0,0.0,0.0,-5.1708,-5.1708,-5.1708,-5.1708,-5.1708,-5.1708,-5.1708,-5.1708,-5.1708,-5.1708,-5.1556,-5.1428,-5.1298,-5.1141,-5.0819,-5.0397,-5.0397,-5.0235,-4.9982,-4.9624,-4.95,-4.9441,0.0,0.0,0.0,0.0,0.0,0.0,0.0,0.0,-2.1635,-2.2313,-2.2583,0.0,0.0,0.0,0.0,0.0,0.0,0.0,-2.3353,-2.3844,-2.4212,-2.4511,-2.582,-2.6642,-2.6874,-2.8766,-3.0776,-3.2791,-3.3382,-3.2904,-3.1455,-3.0602,-2.9694,-2.8729,-2.8039,-2.7544,-2.7208,-2.6054,-2.5592,-2.5554,-2.4737,-2.3839,-2.2955,0.0,0.0,0.0,0.0,0.0,0.0,0.0,0.0,0.0,-2.0162,-2.1422,-2.2611,-2.1118,-2.24,-2.392,-2.2158,-2.4699,0.0,-2.8862,0.0,0.0,0.0,-4.0134,0.0,0.0,0.0,0.0,0.0,0.0,0.0,0.0,0.0,0.0,0.0,0.0,0.0,0.0,0.0,0.0,0.0,0.0,0.0,0.0,0.0,0.0,0.0,0.0,0.0,0.0,0.0,0.0,-5.1428,-5.1505,-5.1556,-5.1556,-5.1658,-5.1708,-5.1708,-5.1708,-5.1708,-5.1708,-5.1556,-5.1479,-5.1428,-5.1167,-5.09,-5.0502,-5.0425,-5.0285,-5.0092,-4.9683,-4.95,-4.9441,0.0,0.0,0.0,0.0,0.0,0.0,-2.1496,-2.1635,-2.1894,-2.2613,-2.2661,-2.2858,0.0,0.0,0.0,0.0,0.0,0.0,-2.3,-2.3402,-2.3768,-2.4124,-2.5217,-2.6204,-2.7022,-2.8707,-2.9862,-3.0512,-3.1367,-3.1131,-2.9899,-2.9813,-2.9346,-2.856,-2.8505,-2.8011,-2.7219,-2.6236,-2.5633,-2.5342,-2.4733,-2.4007,-2.331,0.0,0.0,0.0,0.0,0.0,0.0,0.0,0.0,0.0,-1.9293,-2.0193,-2.1206,-2.0213,-2.1904,-2.3925,-2.3125,-2.609,0.0,-3.1186,-3.4767,-3.8653,-4.1252,0.0,0.0,0.0,0.0,0.0,0.0,0.0,0.0,0.0,0.0,0.0,0.0,0.0,0.0,0.0,0.0,0.0,0.0,0.0,0.0,0.0,0.0,0.0,0.0,0.0,0.0,0.0,0.0,0.0,-5.1298,-5.1376,-5.1428,-5.1428,-5.1505,-5.1556,-5.1556,-5.1658,-5.1708,-5.1708,-5.1556,-5.1505,-5.1479,-5.1193,-5.0919,-5.0667,-5.0481,-5.0257,-5.0028,-4.9619,-4.9441,-4.932,0.0,0.0,-1.9623,-2.0321,0.0,0.0,-2.1505,-2.1654,-2.1962,-2.2682,-2.2688,-2.2812,0.0,0.0,0.0,-2.3214,-2.3699,-2.3769,-2.3142,-2.3107,-2.3391,-2.3996,-2.4963,-2.6372,-2.834,-2.9498,-2.9444,-2.8098,-2.9253,-2.9811,-2.9752,-2.9609,-2.9523,-2.9523,-2.9523,-2.8826,-2.7521,-2.6329,-2.5429,-2.4766,-2.421,-2.392,-2.3804,-2.3804,0.0,0.0,0.0,0.0,0.0,0.0,0.0,0.0,-1.8929,-1.8616,-1.8391,-1.9008,-2.1196,-2.364,-2.4789,0.0,0.0,-3.3827,-3.6261,0.0,-4.3261,0.0,0.0,0.0,0.0,0.0,0.0,0.0,0.0,0.0,0.0,0.0,0.0,0.0,0.0,0.0,0.0,0.0,0.0,0.0,0.0,0.0,0.0,0.0,0.0,0.0,0.0,0.0,0.0,0.0,-5.122,-5.1246,-5.1246,0.0,-5.1272,-5.1272,-5.1298,-5.1582,-5.1708,-5.1708,-5.1582,-5.1505,-5.1479,-5.122,-5.1034,-5.0776,-5.0537,-5.0228,-4.9913,-4.959,-4.9381,-4.9168,0.0,0.0,-1.9844,-2.0512,0.0,0.0,-2.2332,-2.282,-2.3187,-2.3293,-2.3301,-2.3274,-2.3201,-2.372,0.0,-2.3763,-2.4411,-2.478,-2.4634,-2.4728,-2.4835,-2.4982,-2.6149,-2.7443,-2.8889,-2.8766,-2.85,-2.8181,-2.8893,-2.904,-2.8567,-2.8985,-2.9137,-2.9052,-2.9052,-2.8296,-2.6939,-2.6152,-2.5429,-2.4878,-2.4733,-2.4065,-2.3113,-2.3113,-2.1924,0.0,0.0,0.0,0.0,0.0,0.0,0.0,-1.8182,-1.8522,-1.8817,-1.8466,-2.1062,-2.404,-2.3794,-2.6972,0.0,0.0,-3.8145,-4.2147,-4.3826,0.0,0.0,0.0,0.0,0.0,0.0,0.0,0.0,0.0,0.0,0.0,0.0,0.0,0.0,0.0,0.0,0.0,0.0,0.0,0.0,0.0,0.0,0.0,0.0,0.0,0.0,0.0,0.0,-5.0537,-5.0592,-5.0702,-5.0749,0.0,-5.0865,-5.0972,-5.1141,-5.1428,-5.1607,-5.1708,-5.1683,-5.1607,-5.1479,-5.1428,-5.1246,-5.1008,-5.0702,-5.0397,-5.0086,-4.9649,-4.9381,-4.9168,0.0,0.0,0.0,0.0,0.0,0.0,0.0,0.0,-2.3489,-2.3881,-2.3851,-2.3739,-2.358,-2.4119,0.0,0.0,-2.4078,-2.4551,-2.4599,-2.4652,-2.4963,-2.5702,-2.7022,-2.781,-2.7895,-2.7917,-2.7769,-2.7442,-2.7743,-2.7991,-2.8237,-2.9479,-3.0012,-2.9955,-2.984,-2.8877,-2.7304,-2.589,-2.4791,-2.3925,-2.3925,-2.3519,-2.2888,-2.2888,-2.1924,-2.0544,-2.0584,0.0,0.0,0.0,0.0,0.0,0.0,0.0,-1.8128,-1.8098,-2.0089,-2.2659,-2.4348,0.0,0.0,-3.5677,0.0,0.0,0.0,0.0,0.0,0.0,0.0,0.0,0.0,0.0,0.0,0.0,0.0,0.0,0.0,0.0,0.0,0.0,0.0,0.0,0.0,0.0,0.0,0.0,0.0,0.0,0.0,0.0,0.0,0.0,-5.0057,-5.0086,-5.0171,-5.0222,-5.025,-5.025,-5.0335,-5.0509,-5.0792,-5.122,-5.1454,-5.1531,-5.1582,-5.1556,-5.1505,-5.1505,-5.1402,-5.1246,-5.0784,-5.0418,-5.008,-4.9649,-4.932,-4.9077,0.0,0.0,0.0,0.0,0.0,0.0,0.0,0.0,0.0,-2.4243,-2.4194,-2.4078,-2.4054,-2.4456,-2.4268,0.0,0.0,0.0,-2.4277,-2.4206,-2.4833,-2.6351,-2.748,-2.7727,-2.6961,-2.7255,-2.7225,-2.6752,-2.6608,-2.7373,-2.8968,-3.0362,-3.1131,-3.1309,-3.0896,-2.9606,-2.7674,-2.5537,-2.3925,-2.2714,-2.262,-2.2504,-2.2417,-2.2417,-2.1692,-2.0689,-2.0673,-2.003,-1.9218,-1.9897,0.0,0.0,0.0,0.0,-1.7136,-1.7609,-1.8768,-2.0696,-2.4337,0.0,-3.1622,-3.748,-4.0186,0.0,0.0,0.0,0.0,0.0,0.0,0.0,0.0,0.0,0.0,0.0,0.0,0.0,0.0,0.0,0.0,0.0,0.0,0.0,0.0,0.0,0.0,0.0,0.0,0.0,0.0,0.0,-4.9471,-4.959,-4.959,-4.9649,-4.9767,-4.9767,-4.9767,-4.9796,-4.9854,-5.0028,-5.0285,-5.0811,-5.1105,-5.1211,-5.1376,-5.1428,-5.1428,-5.1454,-5.1428,-5.135,-5.0803,-5.0391,-4.9994,-4.9649,-4.9362,-4.9187,0.0,0.0,0.0,0.0,0.0,0.0,0.0,0.0,0.0,0.0,-2.4101,-2.4054,-2.3938,-2.4002,-2.3949,-2.3775,-2.454,-2.5017,-2.4974,0.0,0.0,-2.7183,-2.6981,-2.732,-2.8308,-2.726,-2.6986,-2.7465,-2.6773,-2.8297,-3.19,-3.1004,-3.1127,-3.2079,-3.0777,-2.9072,-2.7,-2.4893,-2.3281,-2.2062,-2.1481,-2.093,-2.0465,-2.0465,-2.0001,-1.9275,-1.8771,-1.8535,-1.8431,-1.8555,-1.8207,0.0,0.0,0.0,0.0,-1.635,-1.7592,-1.9406,0.0,0.0,-3.2102,0.0,-3.9011,0.0,0.0,0.0,0.0,0.0,0.0,0.0,0.0,0.0,0.0,0.0,0.0,0.0,0.0,0.0,0.0,0.0,0.0,0.0,0.0,0.0,0.0,0.0,0.0,0.0,0.0,-4.8954,-4.9046,-4.9077,-4.9077,-4.9077,-4.9107,-4.9107,-4.9168,-4.929,-4.959,-4.9767,-4.9796,-4.9999,-5.0363,-5.0857,-5.1061,-5.1141,-5.1141,-5.1272,-5.1158,-5.0857,-5.0667,-5.025,-4.9737,-4.956,-4.9699,-4.9932,0.0,0.0,0.0,0.0,0.0,0.0,0.0,0.0,0.0,0.0,0.0,-2.5038,-2.4989,-2.4694,-2.4369,-2.3943,-2.3967,-2.4153,-2.4511,-2.5147,-2.5735,-2.6258,-2.6039,-2.6051,-2.6338,-2.5318,-2.514,-2.5914,-2.5163,-2.725,-3.1929,-3.172,-3.3095,-3.563,-3.3293,-3.1368,-2.963,-2.5991,-2.3514,-2.1946,-2.1278,-2.1714,-2.2585,-2.0785,-2.0996,-2.1982,-1.9566,-1.851,-1.8243,-1.8297,-1.8214,-1.7979,-1.7255,0.0,0.0,0.0,-1.6849,0.0,-2.2432,-2.693,-3.1558,0.0,0.0,0.0,0.0,0.0,0.0,0.0,0.0,0.0,0.0,0.0,0.0,0.0,0.0,0.0,0.0,0.0,0.0,0.0,0.0,0.0,0.0,0.0,0.0,0.0,0.0,0.0,-4.861,-4.8673,-4.8704,-4.8704,-4.8704,-4.8704,-4.8704,-4.8704,-4.8736,-4.8829,-4.9012,-4.9135,-4.9135,-4.932,-4.9703,-5.0307,-5.0446,-5.0592,-5.0737,-5.0838,-5.0803,-5.0667,-5.0481,-5.0114,-4.9679,-4.9411,-4.9675,-5.0101,0.0,0.0,0.0,0.0,0.0,0.0,0.0,0.0,0.0,0.0,0.0,0.0,-2.5546,0.0,0.0,0.0,-2.3314,-2.3346,-2.386,-2.4608,-2.505,-2.5159,-2.5033,-2.4865,-2.4605,-2.3814,-2.3763,-2.4605,-2.4037,-2.6594,-3.2019,-3.2437,-3.5001,-3.9188,-3.5963,-3.3406,-3.1338,-2.7156,-2.4466,-2.2904,-2.2193,-2.3068,-2.4602,-2.2865,-2.3676,-2.5239,-2.1634,-1.9914,0.0,0.0,0.0,0.0,0.0,0.0,0.0,0.0,0.0,0.0,0.0,0.0,-2.9199,0.0,0.0,0.0,0.0,0.0,0.0,0.0,0.0,0.0,0.0,0.0,0.0,0.0,0.0,0.0,0.0,0.0,0.0,0.0,0.0,0.0,0.0,0.0,0.0,0.0,0.0,0.0,-4.8356,-4.8356,-4.8356,-4.8356,-4.8356,-4.8356,-4.8356,-4.842,-4.842,-4.842,-4.8578,-4.8639,-4.8639,-4.8767,-4.9046,-4.9466,-4.9727,-4.9994,-5.0171,-5.0341,-5.0363,-5.0335,-5.0114,-4.9825,-4.9505,-4.9403,-4.9729,-5.0246,0.0,0.0,0.0,0.0,0.0,0.0,0.0,0.0,0.0,0.0,0.0,0.0,-2.494,-2.4326,-2.3688,-2.3004,-2.3029,-2.3186,-2.3319,-2.3393,-2.3763,-2.4505,-2.3992,0.0,-2.4605,-2.3917,-2.3917,-2.4605,-2.4514,-2.7518,-3.3395,-3.3086,-3.6162,-4.1644,-3.7671,-3.3787,-3.0042,-2.7683,-2.6297,-2.5546,-2.4657,-2.4386,-2.4783,-2.7075,0.0,0.0,0.0,0.0,0.0,0.0,0.0,0.0,0.0,0.0,0.0,0.0,0.0,0.0,0.0,-2.1642,0.0,0.0,0.0,0.0,0.0,0.0,0.0,0.0,0.0,0.0,0.0,0.0,0.0,0.0,0.0,0.0,0.0,0.0,0.0,0.0,0.0,0.0,0.0,0.0,0.0,0.0,0.0,0.0,-4.8033,-4.8033,-4.8033,-4.8033,-4.8033,-4.8033,-4.8033,-4.813,-4.8227,-4.8227,-4.842,-4.8515,-4.8515,-4.8324,-4.826,-4.8324,-4.8981,-4.9346,-4.956,-4.9679,-4.9737,-4.9737,-4.959,-4.932,-4.9086,-4.9573,-5.0153,-5.076,0.0,0.0,0.0,0.0,0.0,0.0,0.0,0.0,0.0,0.0,0.0,0.0,0.0,-2.4975,-2.4334,-2.3716,-2.333,-2.3179,-2.3422,-2.3444,-2.3577,-2.3903,-2.3672,-2.3664,-2.3947,-2.316,-2.3139,-2.3888,-2.3363,-2.5503,-3.0119,-3.0806,-3.2727,-3.5596,-3.5722,-3.5242,-3.4006,-2.9784,-2.7636,-2.6999,-2.6527,-2.7622,-2.9375,0.0,0.0,0.0,0.0,0.0,0.0,0.0,0.0,0.0,0.0,0.0,0.0,0.0,0.0,0.0,0.0,0.0,0.0,0.0,0.0,0.0,0.0,0.0,0.0,0.0,0.0,0.0,0.0,0.0,0.0,0.0,0.0,0.0,0.0,0.0,0.0,0.0,0.0,0.0,0.0,0.0,0.0,0.0,0.0,0.0,-4.8001,-4.8001,-4.8001,-4.8001,-4.7869,-4.777,-4.7671,-4.7737,-4.777,-4.777,-4.7836,-4.7869,-4.7869,-4.7803,-4.777,-4.777,-4.8,-4.8322,-4.8671,-4.8733,-4.8827,-4.8923,-4.8892,-4.907,-4.9381,-4.9585,-5.0391,-5.1396,0.0,0.0,0.0,-2.5114,0.0,-2.4949,-2.4515,-2.5156,-2.5506,-2.5127,0.0,0.0,0.0,0.0,-2.5175,-2.4119,-2.3629,-2.3391,-2.3422,-2.3444,-2.3458,-2.361,-2.3545,-2.3545,-2.361,-2.302,-2.2956,-2.3509,-2.3149,-2.4669,-2.7883,-2.8893,-3.0396,-3.2279,-3.2798,-3.3992,-3.5371,-3.1589,-2.9697,-2.9233,0.0,0.0,-3.2315,0.0,0.0,0.0,0.0,0.0,0.0,0.0,0.0,0.0,0.0,0.0,0.0,0.0,0.0,0.0,-1.835,0.0,0.0,0.0,0.0,0.0,0.0,0.0,0.0,0.0,0.0,0.0,0.0,0.0,0.0,0.0,0.0,0.0,0.0,0.0,0.0,0.0,0.0,0.0,0.0,0.0,0.0,0.0,0.0,0.0,-4.7473,-4.7704,-4.7836,-4.7836,-4.7704,-4.7604,-4.7504,-4.7504,-4.7504,-4.7504,-4.7504,-4.7504,-4.7504,-4.7436,-4.7403,-4.7403,-4.7335,-4.7571,-4.8032,-4.8032,-4.8162,-4.8388,-4.8356,-4.8823,-4.9524,-4.9659,-5.0492,-5.1489,-2.4882,-2.5375,-2.5836,-2.589,-2.576,-2.5657,-2.5661,-2.5503,-2.5506,-2.5635,0.0,0.0,0.0,0.0,0.0,-2.4147,-2.3943,-2.3768,-2.3371,-2.3312,-2.3392,-2.3588,-2.361,-2.361,-2.364,-2.3553,-2.3487,-2.3517,-2.4006,-2.5236,-2.7093,-2.7583,-2.9519,-3.2447,-2.9173,-2.9842,-3.3463,-3.2664,-3.2269,-3.231,0.0,-3.3482,-3.3293,0.0,0.0,0.0,-3.6751,-3.5212,0.0,0.0,0.0,0.0,0.0,0.0,0.0,0.0,0.0,0.0,0.0,0.0,0.0,0.0,0.0,0.0,0.0,0.0,0.0,0.0,0.0,0.0,0.0,0.0,0.0,0.0,0.0,0.0,0.0,0.0,0.0,0.0,0.0,0.0,0.0,0.0,0.0,0.0,0.0,-4.6356,-4.6389,-4.711,-4.7504,-4.7437,-4.747,-4.747,-4.747,-4.747,-4.747,-4.747,-4.747,-4.747,-4.747,-4.7301,-4.7167,-4.7167,-4.6961,-4.7201,-4.7638,-4.7671,-4.7869,-4.8163,-4.8033,-4.853,-4.936,-4.9718,-5.0373,-5.1059,-2.6491,-2.6895,-2.7209,-2.781,-2.7463,-2.6946,-2.6538,-2.6454,-2.6454,0.0,0.0,0.0,-2.6928,-2.659,-2.6193,-2.5756,-2.5212,-2.4728,-2.4253,-2.3637,-2.3348,-2.3531,-2.3414,-2.3651,-2.4223,-2.3659,-2.3592,-2.4095,-2.3642,-2.3902,-2.4825,-2.5392,-2.641,-2.7715,-2.7256,-2.7924,-2.9261,-2.8129,0.0,-3.2359,-3.1651,-3.3652,0.0,0.0,0.0,0.0,0.0,-3.8522,-3.6577,0.0,-3.1382,-2.7521,0.0,0.0,0.0,0.0,0.0,0.0,-1.7473,0.0,0.0,0.0,0.0,0.0,0.0,0.0,0.0,0.0,0.0,0.0,0.0,0.0,0.0,0.0,0.0,0.0,0.0,0.0,0.0,0.0,0.0,0.0,0.0,0.0,0.0,0.0,-4.5245,-4.5669,-4.6191,-4.701,-4.7207,-4.6518,-4.7007,-4.7201,-4.7064,-4.7064,-4.7064,-4.7064,-4.7064,-4.7064,-4.7064,-4.6858,-4.6789,-4.6722,-4.6545,-4.6509,-4.658,-4.6961,-4.7268,-4.7471,-4.747,-4.8259,-4.9513,-4.9639,-5.049,-5.1536,-2.7006,-2.7413,-2.7729,-2.8188,-2.8132,-2.7988,-2.7901,-2.7614,-2.7615,0.0,0.0,0.0,-2.8795,-2.9053,-2.8726,-2.7483,-2.67,-2.5844,-2.4828,-2.4056,-2.3585,-2.3422,-2.357,-2.3873,-2.4354,-2.3879,-2.3811,-2.4223,-2.3389,-2.3182,-2.3514,-2.3838,-2.4215,-2.4588,-2.4442,-2.5023,-2.6013,0.0,0.0,0.0,-3.3046,0.0,0.0,-3.9823,-4.1208,0.0,0.0,0.0,-3.9189,-3.7796,-3.4428,0.0,0.0,0.0,0.0,0.0,0.0,0.0,0.0,0.0,0.0,0.0,0.0,0.0,-2.3063,-2.4224,0.0,0.0,0.0,0.0,0.0,0.0,0.0,0.0,0.0,0.0,0.0,0.0,0.0,0.0,0.0,0.0,0.0,0.0,0.0,0.0,-4.3812,-4.4427,-4.517,-4.6015,-4.6115,-4.5369,-4.6049,-4.6336,-4.6233,-4.6488,-4.6649,-4.6649,-4.658,-4.6615,-4.6649,-4.6372,-4.6301,-4.6404,-4.6191,-4.6048,-4.5977,-4.6333,-4.6615,-4.6791,-4.6791,-4.7872,-4.9352,-4.9281,-5.0156,-5.1387,0.0,-2.7432,-2.7869,-2.8072,-2.848,-2.8973,-2.9636,-2.9059,-2.9087,0.0,-3.0791,-3.117,-3.199,-3.2922,-3.2373,-2.9551,-2.8417,-2.7164,-2.5507,-2.4657,-2.4024,-2.3548,-2.4004,-2.4305,-2.4305,-2.4241,-2.4165,-2.4078,-2.3385,-2.2975,-2.2888,-2.2888,-2.283,-2.2649,-2.1511,-2.1946,-2.3484,0.0,0.0,-3.0529,-3.5317,-3.7168,0.0,0.0,-4.2894,0.0,-4.2734,-4.2266,-4.1192,-4.0379,-3.6867,0.0,0.0,0.0,0.0,0.0,-2.1695,0.0,0.0,0.0,0.0,0.0,0.0,0.0,-2.4825,-2.4469,-2.4052,0.0,0.0,0.0,0.0,0.0,0.0,0.0,0.0,0.0,0.0,0.0,0.0,0.0,0.0,0.0,0.0,0.0,-4.1227,-4.129,-4.2151,-4.2986,-4.3695,-4.4458,-4.4655,-4.4253,-4.4795,-4.5211,-4.5336,-4.5879,-4.6163,-4.6227,-4.612,-4.612,-4.6227,-4.5941,-4.5868,-4.6012,-4.5868,-4.576,-4.5687,-4.5724,-4.5977,-4.6301,-4.6301,-4.7345,-4.8921,-4.8707,-4.9603,-5.0781,-2.8041,-2.8447,-2.8971,-3.048,-3.0422,-3.0567,-3.1724,-3.0884,-3.0828,-3.2626,-3.3322,-3.4143,-3.5477,-3.446,-3.3504,0.0,-3.0484,-2.8564,-2.7939,-2.6071,-2.4947,-2.4823,-2.4899,-2.491,-2.491,-2.4742,-2.4485,-2.4078,-2.3845,-2.3432,-2.2888,-2.2888,-2.2359,-2.1365,-2.1104,-2.122,-2.1685,0.0,0.0,-2.9145,-3.0654,0.0,-3.9537,-4.0485,-4.2005,-4.3501,-4.3137,-4.2847,-4.2353,0.0,-3.7738,-3.4317,0.0,0.0,0.0,0.0,0.0,0.0,0.0,0.0,0.0,0.0,0.0,0.0,-2.1416,-2.1812,-2.277,0.0,0.0,0.0,0.0,0.0,0.0,0.0,0.0,0.0,0.0,0.0,0.0,0.0,0.0,0.0,0.0,0.0,-4.0591,-4.1088,-4.1949,-4.2341,-4.2097,-4.3269,-4.3936,-4.3812,-4.3939,-4.4573,-4.5683,-4.5235,-4.5298,-4.5905,-4.5868,-4.5868,-4.5905,-4.5828,-4.5719,-4.5614,-4.5755,-4.5536,-4.5098,-4.5241,-4.5646,-4.6156,-4.6156,-4.7125,-4.8588,-4.8519,-4.9303,-5.0292,-2.7576,-2.8273,-2.8999,-2.9929,-3.0887,-3.1905,-3.2961,-3.278,-3.3329,-3.5671,-3.7099,-3.7689,-3.7155,0.0,0.0,0.0,0.0,0.0,0.0,-2.689,-2.5663,-2.467,-2.4897,-2.5,-2.5,-2.4873,-2.4704,-2.448,-2.4112,-2.3397,-2.2446,-2.2765,0.0,0.0,-2.212,-2.2672,-2.3891,0.0,-2.6039,-2.8999,-3.2164,0.0,-4.0263,-4.1889,-4.3282,-4.4356,-4.3718,-4.3079,-4.2208,-3.9915,-3.8318,0.0,0.0,-3.2751,-3.2378,0.0,-2.8968,-2.9783,0.0,0.0,0.0,-2.5992,0.0,0.0,0.0,-2.2659,-2.2625,0.0,0.0,0.0,0.0,0.0,0.0,0.0,0.0,0.0,0.0,0.0,0.0,0.0,0.0,0.0,0.0,0.0,-3.9508,-4.0223,-4.1041,-4.1395,-4.1221,-4.2504,-4.3134,-4.2928,-4.3207,-4.3741,-4.4468,-4.4432,-4.462,-4.5002,-4.5238,-4.5395,-4.5499,-4.5315,-4.5173,-4.521,-4.5173,-4.5024,-4.4761,-4.498,-4.5315,-4.5646,-4.5646,-4.6682,-4.8179,-4.8179,-4.8961,-5.0018,-2.714,-2.8011,-2.8796,-2.9028,-3.0974,-3.2748,-3.355,-3.4126,-3.549,-3.8355,-4.0451,0.0,0.0,0.0,0.0,0.0,0.0,0.0,0.0,0.0,-2.6879,-2.5248,-2.515,-2.5135,-2.5255,-2.494,-2.4708,-2.45,-2.3978,-2.3107,-2.2004,0.0,0.0,0.0,0.0,0.0,0.0,0.0,0.0,-3.0423,0.0,-3.7999,-3.9363,-4.2557,-4.3863,-4.395,-4.3834,-4.3079,-4.1773,-3.9654,0.0,-3.8783,-3.5334,-3.5363,0.0,0.0,0.0,0.0,0.0,0.0,0.0,0.0,0.0,-2.5957,0.0,0.0,0.0,-2.4423,0.0,0.0,0.0,0.0,0.0,0.0,0.0,0.0,0.0,0.0,0.0,0.0,0.0,0.0,0.0,0.0,-3.7851,-3.918,-3.9428,-3.9804,-4.0498,-4.1705,-4.224,-4.2011,-4.2385,-4.2789,-4.3194,-4.3536,-4.3879,-4.4283,-4.4539,-4.4787,-4.5055,-4.4761,-4.4723,-4.4836,-4.4761,-4.4648,-4.461,-4.4799,-4.4986,-4.5129,-4.5204,-4.6341,-4.7909,-4.7909,-4.8723,-4.9773,-2.8273,-2.8622,-2.9058,-3.0191,-3.1555,-3.2716,-3.3449,-3.4189,-3.5873,-3.9194,0.0,0.0,0.0,0.0,0.0,0.0,0.0,0.0,-3.5314,0.0,0.0,-2.9168,-2.7036,-2.6108,-2.6588,-2.5404,-2.425,-2.3142,-2.3055,-2.2678,0.0,0.0,0.0,0.0,-2.4128,0.0,0.0,0.0,-3.0656,0.0,-3.6577,-3.6402,0.0,-3.8609,-4.0176,-4.0844,-4.2498,-4.2673,-4.2063,0.0,-4.0931,-3.9625,0.0,-3.7499,0.0,0.0,0.0,0.0,0.0,0.0,0.0,0.0,-3.1456,0.0,0.0,0.0,-2.5732,-2.3179,0.0,0.0,0.0,0.0,0.0,0.0,0.0,0.0,0.0,0.0,0.0,0.0,0.0,0.0,0.0,0.0,0.0,-3.8218,-3.6967,-3.7092,-3.9493,-4.0355,-4.1036,-4.1657,-4.1098,-4.1688,-4.3507,-4.2458,-4.2798,-4.4524,-4.4,-4.4062,-4.4648,-4.4799,-4.4761,-4.4648,-4.498,-4.4942,-4.461,-4.4799,-4.4911,-4.4949,-4.5315,-4.6491,-4.7909,-4.7909,-4.8529,-4.934,-2.7652,-2.8296,-2.8822,-2.8912,-3.0366,-3.1853,-3.2937,-3.6641,0.0,0.0,0.0,0.0,0.0,0.0,0.0,0.0,0.0,-3.8565,0.0,0.0,0.0,-3.0981,-2.8763,-2.7486,-2.7345,-2.6068,-2.4762,-2.3484,-2.3484,-2.2788,0.0,0.0,0.0,0.0,-2.5897,0.0,-3.1731,0.0,0.0,0.0,0.0,0.0,0.0,-3.9915,-4.2121,-4.2411,-4.2847,-4.2847,-4.244,0.0,-4.0554,0.0,0.0,0.0,0.0,0.0,0.0,0.0,0.0,0.0,0.0,0.0,0.0,0.0,0.0,0.0,-2.5155,0.0,0.0,0.0,0.0,0.0,0.0,0.0,0.0,0.0,0.0,0.0,0.0,0.0,0.0,0.0,0.0,0.0,0.0,0.0,0.0,-3.5431,-3.8652,-3.9818,-4.0773,-4.1586,-4.1309,-4.174,-4.3002,-4.2448,-4.2786,-4.4024,-4.4148,-4.4332,-4.461,-4.4685,-4.4685,-4.461,-4.4792,-4.4716,-4.4419,-4.4648,-4.4723,-4.4761,-4.5024,-4.6091,-4.7502,-4.7502,-4.8263,-4.9291,-2.7394,-2.805,-2.8497,-2.8095,-2.9551,-3.1448,0.0,0.0,0.0,0.0,0.0,0.0,-4.6563,-4.5603,0.0,0.0,-4.3942,-4.1626,0.0,0.0,-3.501,0.0,0.0,0.0,0.0,-2.7084,-2.5454,-2.4152,-2.3804,-2.2817,0.0,0.0,0.0,0.0,0.0,-3.0713,-3.4811,0.0,0.0,-3.6148,-3.6402,-3.6548,-3.7106,-4.1512,-4.3515,-4.3921,-4.3427,-4.3137,-4.276,-4.1163,-4.0525,0.0,-3.9625,0.0,0.0,0.0,0.0,0.0,-3.6212,0.0,0.0,0.0,0.0,0.0,0.0,0.0,0.0,0.0,0.0,0.0,0.0,0.0,0.0,0.0,0.0,0.0,0.0,0.0,0.0,0.0,0.0,0.0,0.0,0.0,0.0,0.0,0.0,0.0,-3.7447,-3.8944,-4.0017,-4.0861,-4.1111,-4.1576,-4.2252,-4.2289,-4.2663,-4.3347,-4.4024,-4.4332,-4.4332,-4.4517,-4.461,-4.461,-4.461,-4.4496,-4.4305,-4.4458,-4.4496,-4.4534,-4.4685,-4.5672,-4.7076,-4.7162,-4.8066,-4.921,-2.8218,-2.8127,0.0,0.0,0.0,0.0,0.0,0.0,0.0,0.0,0.0,0.0,0.0,0.0,0.0,0.0,0.0,-4.6073,-4.4541,0.0,-3.8243,0.0,0.0,-3.1121,0.0,0.0,0.0,-2.4849,0.0,0.0,0.0,0.0,0.0,0.0,0.0,-3.1032,-3.3736,-3.6112,-3.9276,-4.2644,-4.2063,-4.2934,-4.4269,0.0,-4.2353,-4.3979,-4.3979,0.0,0.0,-4.2237,-4.1599,0.0,0.0,0.0,0.0,0.0,0.0,0.0,0.0,0.0,0.0,-3.4058,0.0,0.0,0.0,0.0,-2.897,0.0,0.0,0.0,0.0,0.0,0.0,0.0,0.0,0.0,0.0,0.0,0.0,0.0,0.0,0.0,0.0,0.0,0.0,0.0,0.0,0.0,-3.5792,-3.7342,-3.8375,-3.9078,-3.9886,-4.0664,-4.1337,-4.1546,-4.1955,-4.2633,-4.3279,-4.3624,-4.3655,-4.4302,-4.461,-4.461,-4.461,-4.4496,-4.4297,-4.4335,-4.4335,-4.4335,-4.4335,-4.5248,-4.6683,-4.7076,-4.7947,-4.8996,-2.839,0.0,0.0,0.0,0.0,0.0,0.0,-3.9587,0.0,0.0,0.0,0.0,0.0,0.0,-5.0631,0.0,0.0,-4.9356,-4.7981,-4.4645,0.0,0.0,0.0,-3.6112,0.0,0.0,0.0,0.0,0.0,0.0,0.0,0.0,0.0,0.0,0.0,-3.1758,0.0,0.0,0.0,0.0,0.0,-4.3079,-4.5401,0.0,0.0,-4.4589,-4.4589,-4.4443,0.0,-4.4008,-4.3224,-4.2382,-4.2615,-4.1802,-4.0844,-4.1279,-4.0786,0.0,0.0,0.0,-3.9974,-3.6073,0.0,0.0,0.0,0.0,0.0,0.0,0.0,0.0,0.0,0.0,0.0,0.0,0.0,0.0,0.0,0.0,0.0,0.0,0.0,0.0,0.0,0.0,0.0,0.0,0.0,0.0,0.0,-3.5574,-3.7091,-3.8314,-3.9051,-3.9964,-4.1091,-4.1193,-4.1601,-4.242,-4.3063,-4.3444,-4.3624,-4.4302,-4.4534,-4.4381,-4.4381,-4.422,-4.391,-4.391,-4.3988,-4.4104,-4.4104,-4.5131,-4.6643,-4.6762,-4.7627,-4.8759,-2.9217,-2.9461,0.0,0.0,0.0,0.0,0.0,0.0,0.0,0.0,-4.748,0.0,-5.1113,0.0,-5.1416,0.0,-5.223,-5.1052,-4.9493,-4.7403,0.0,-4.5605,-4.2586,0.0,0.0,0.0,0.0,0.0,0.0,-2.6646,0.0,0.0,0.0,0.0,0.0,0.0,-3.5264,0.0,-3.9801,0.0,0.0,-4.382,0.0,0.0,-4.5183,-4.5256,0.0,-4.5082,-4.4879,-4.4879,-4.4211,-4.3427,-4.3863,-4.3137,-4.2179,-4.2353,-4.1802,-4.1018,-4.0583,-4.0757,0.0,-3.7418,-3.6054,0.0,-3.0568,0.0,0.0,0.0,0.0,0.0,0.0,0.0,0.0,0.0,0.0,0.0,0.0,-2.0747,0.0,0.0,0.0,0.0,0.0,0.0,0.0,0.0,0.0,0.0,0.0,0.0,-3.5924,-3.7416,-3.8391,-3.9425,-4.051,-4.0855,-4.1176,-4.1504,-4.2419,-4.2921,-4.3063,-4.3738,-4.409,-4.422,-4.422,-4.4026,-4.3675,-4.3675,-4.3754,-4.391,-4.391,-4.4774,-4.6067,-4.6471,-4.7465,-4.8563,-3.0731,-3.062,0.0,0.0,-3.3206,0.0,0.0,0.0,-4.5,0.0,-4.9129,-5.0577,-5.2049,-5.2036,-5.2189,-5.2783,-5.2376,0.0,-4.9443,-4.9029,0.0,0.0,-4.5256,-4.3892,-4.3195,0.0,0.0,0.0,0.0,0.0,0.0,0.0,0.0,0.0,-2.903,0.0,-3.3225,-3.839,-4.1621,-4.3424,-4.4624,-4.5276,-4.5504,-4.5504,0.0,-4.585,-4.5895,-4.5488,-4.4937,-4.4937,-4.456,-4.4066,-4.4066,-4.4037,-4.3863,-4.3224,-4.2992,-4.2673,-4.1482,-4.1134,-4.0554,-3.8115,0.0,0.0,0.0,0.0,-3.4196,0.0,0.0,0.0,0.0,0.0,0.0,0.0,0.0,0.0,0.0,0.0,0.0,0.0,0.0,0.0,0.0,0.0,0.0,0.0,0.0,0.0,0.0,0.0,-3.476,-3.6327,-3.7846,-3.8973,-3.9666,-4.051,-4.0582,-3.9975,-4.1316,-4.1954,-4.2014,-4.2682,-4.335,-4.3988,-4.3988,-4.3871,-4.3675,-4.3675,-4.3675,-4.3675,-4.3735,-4.4316,-4.5221,-4.626,-4.7455,-4.8521,-3.2018,-3.3839,-3.577,0.0,-3.7336,-3.8609,0.0,0.0,0.0,0.0,-5.0219,-5.1374,-5.2785,-5.3138,-5.3347,-5.3525,-5.3465,0.0,0.0,0.0,0.0,-5.1091,-4.8798,-4.6998,-4.5866,-4.1744,0.0,-3.5119,0.0,0.0,-2.7824,0.0,0.0,0.0,0.0,0.0,-3.3106,-3.6684,-4.0303,-4.3754,-4.4704,-4.511,0.0,0.0,-4.5276,-4.5367,-4.573,-4.5779,-4.5634,-4.5634,-4.5518,-4.5401,-4.5401,-4.4763,-4.395,-4.3776,-4.3079,-4.2266,-4.1918,-4.1831,-4.157,-4.0408,-3.9044,-3.7593,0.0,0.0,0.0,0.0,0.0,0.0,0.0,0.0,0.0,0.0,0.0,0.0,0.0,0.0,0.0,0.0,0.0,0.0,0.0,0.0,0.0,0.0,0.0,0.0,0.0,0.0,0.0,-3.4921,-3.6679,-3.8207,-3.9481,-3.9697,-3.9805,-3.9768,-4.0613,-4.1388,-4.2014,-4.2682,-4.3273,-4.3754,-4.3754,-4.3636,-4.3369,-4.3369,-4.3518,-4.3735,-4.4187,-4.5243,-4.6507,-4.6782,-4.7444,-4.8175,-3.3873,0.0,0.0,-4.0868,0.0,0.0,-4.4173,0.0,0.0,-4.9145,-5.0351,0.0,-5.2375,-5.3266,-5.3824,-5.3824,-5.3766,0.0,0.0,0.0,0.0,-5.2165,-5.1033,-4.9814,-4.8537,-4.482,0.0,-3.7708,0.0,0.0,-2.8597,0.0,0.0,0.0,0.0,-2.9934,0.0,-3.642,-4.0266,-4.3359,-4.4401,0.0,0.0,-4.4954,-4.5046,-4.511,-4.5458,-4.5549,-4.5549,-4.5685,-4.573,-4.573,-4.573,-4.5065,-4.4196,-4.3936,-4.3069,-4.2161,-4.1984,-4.1856,-4.1728,-4.1435,-4.0498,-3.9293,-3.8225,-3.789,-3.7613,0.0,0.0,0.0,0.0,0.0,0.0,0.0,0.0,0.0,0.0,0.0,0.0,0.0,0.0,0.0,0.0,0.0,0.0,0.0,0.0,0.0,0.0,0.0,0.0,-3.4222,-3.6081,-3.7777,-3.9235,-3.9265,-3.9373,-3.9553,-3.995,-4.0678,-4.1753,-4.2115,-4.2732,-4.3518,-4.3518,-4.3438,-4.329,-4.329,-4.3369,-4.3548,-4.3908,-4.495,-4.6248,-4.6248,-4.702,-4.7964,-3.6357,0.0,0.0,0.0,0.0,0.0,0.0,-4.6894,0.0,-4.9221,0.0,-5.1498,-5.1896,-5.3128,-5.3919,-5.3867,0.0,-5.2984,-5.1882,-5.2839,-5.3036,-5.1933,-5.2259,-5.1911,-5.0714,-4.7835,0.0,0.0,0.0,0.0,0.0,0.0,0.0,0.0,0.0,0.0,0.0,-3.6968,-4.0757,0.0,-4.3788,-4.4434,-4.4751,-4.4751,-4.4815,-4.4926,-4.5,-4.5046,-4.511,-4.5367,-4.5458,-4.5458,-4.5458,-4.4969,-4.4323,-4.3732,-4.2969,-4.2181,-4.1791,-4.1621,-4.1524,-4.1647,-4.1564,-4.1009,-3.9481,-3.9029,-3.8871,-3.8871,-3.7462,-3.6893,0.0,0.0,0.0,0.0,0.0,0.0,0.0,0.0,0.0,0.0,0.0,0.0,0.0,0.0,0.0,0.0,0.0,0.0,0.0,0.0,0.0,-3.3817,-3.576,0.0,-3.909,0.0,-3.9192,-3.9373,-3.9373,-4.0061,-4.1346,-4.1346,-4.2064,-4.321,-4.325,-4.325,-4.325,-4.325,-4.331,-4.3399,-4.3489,-4.4306,-4.5412,-4.5472,-4.6503,-4.7794,0.0,0.0,0.0,0.0,0.0,-4.9351,-4.9698,-5.0084,-5.0823,-5.2258,-5.3436,-5.4149,-5.4217,-5.4024,-5.3815,-5.3605,-5.353,0.0,0.0,0.0,0.0,-5.3181,-5.2515,-5.1603,-5.0385,-4.7071,-4.3608,0.0,0.0,0.0,0.0,0.0,0.0,0.0,0.0,0.0,-3.4102,-3.7374,0.0,-4.2328,-4.3054,-4.3808,-4.4472,-4.4472,-4.435,-4.4209,-4.4443,-4.4769,-4.511,-4.5155,-4.5184,-4.5184,-4.5184,-4.4428,-4.3484,-4.3398,-4.2868,-4.2196,-4.1609,-4.1767,-4.2024,-4.1552,-4.1438,-4.131,-4.1009,-4.0923,-4.0881,-4.0881,-4.006,-3.8989,-3.7997,0.0,0.0,0.0,0.0,0.0,0.0,0.0,0.0,0.0,0.0,0.0,0.0,0.0,0.0,0.0,0.0,0.0,0.0,0.0,0.0,0.0,0.0,0.0,0.0,0.0,-3.9192,-3.9373,-3.9373,-4.0017,-4.1118,-4.1118,-4.1754,-4.2809,-4.301,-4.3021,-4.3021,-4.3021,-4.3377,-4.3913,-4.4477,-4.5161,-4.5934,-4.644,-4.6723,-4.6887,0.0,0.0,0.0,0.0,0.0,0.0,0.0,-5.2526,0.0,-5.2645,-5.3322,-5.3759,-5.3657,-5.4276,-5.4648,-5.4487,-5.4487,-5.438,-5.4086,-5.4194,-5.4194,-5.4003,-5.3292,0.0,-5.1517,-4.8439,-4.5164,-4.161,0.0,0.0,0.0,0.0,0.0,0.0,0.0,-3.1282,0.0,0.0,0.0,-4.1612,-4.2861,-4.3574,-4.3993,-4.3993,-4.3899,-4.3804,-4.3946,-4.4134,-4.4415,-4.4815,-4.4862,-4.4769,-4.4908,-4.43,-4.356,-4.356,-4.2789,-4.1964,-4.2122,-4.1852,-4.1511,-4.1511,-4.1198,-4.0887,-4.0859,-4.073,-4.0716,-4.0844,-4.0533,-3.962,-3.7518,-3.4804,0.0,0.0,0.0,0.0,0.0,0.0,0.0,0.0,0.0,0.0,0.0,0.0,0.0,0.0,0.0,0.0,0.0,0.0,0.0,0.0,0.0,0.0,0.0,0.0,0.0,-3.909,-3.909,-3.955,-4.0453,-4.0778,-4.142,-4.2216,-4.2662,-4.285,-4.285,-4.285,-4.3027,-4.3382,-4.4063,-4.4714,-4.5365,-4.5973,-4.6372,-4.6594,0.0,-4.7139,0.0,0.0,-5.0287,0.0,-5.21,-5.398,-5.4714,-5.2938,-5.3187,-5.3442,-5.3286,-5.4517,-5.5307,-5.5198,-5.5198,-5.5089,-5.4842,-5.4842,-5.4759,-5.4482,-5.4025,-5.3343,-5.2544,-5.0091,-4.7015,0.0,0.0,0.0,0.0,0.0,0.0,0.0,0.0,0.0,0.0,0.0,-3.9991,-4.1314,-4.2747,-4.3456,-4.3586,-4.3586,-4.3566,-4.3566,-4.3586,-4.3566,-4.3566,-4.4303,-4.4397,-4.4256,-4.449,-4.4114,-4.3561,-4.3561,-4.2722,-4.1959,-4.2503,-4.1924,-4.1215,-4.1551,-4.1056,-4.0479,-4.0423,-4.0209,-4.0067,-4.0241,-4.009,-3.9312,-3.7282,-3.533,0.0,0.0,0.0,0.0,0.0,0.0,0.0,0.0,0.0,0.0,0.0,0.0,0.0,0.0,0.0,-2.1273,-2.2936,-2.5445,0.0,0.0,0.0,-3.5665,-3.7191,0.0,-3.8575,0.0,-3.8797,-3.9209,-3.9959,-4.0498,-4.1106,-4.1821,-4.2401,-4.2607,-4.2677,-4.2754,-4.2813,-4.2901,-4.3696,-4.4314,-4.4814,-4.5491,-4.6035,-4.6359,0.0,0.0,0.0,0.0,0.0,0.0,0.0,-5.3785,-5.5309,-5.5024,-5.5336,-5.5504,-5.5504,-5.5192,-5.4953,-5.4593,-5.4593,-5.4482,-5.4176,-5.437,-5.4537,-5.4482,-5.4231,-5.3468,-5.225,-5.0678,-4.8016,0.0,0.0,0.0,0.0,0.0,0.0,0.0,0.0,0.0,0.0,-3.8972,-4.0576,-4.2266,-4.243,-4.2956,-4.3586,-4.3586,-4.3471,-4.3355,-4.3519,-4.3328,-4.3018,-4.3566,-4.3709,-4.3709,-4.3681,-4.3294,-4.2804,-4.2804,-4.2721,-4.2528,-4.203,-4.2196,-4.2371,-4.1874,-4.1339,-4.0869,-4.0869,-4.0382,-3.9996,-4.0039,-3.9182,-3.8034,-3.6972,-3.6526,-3.5515,0.0,0.0,0.0,0.0,0.0,0.0,0.0,0.0,0.0,0.0,0.0,0.0,0.0,0.0,-2.0427,-2.3302,-2.3731,-2.5902,-3.0269,0.0,-3.4192,-3.5844,-3.7623,0.0,-3.8797,-3.8797,-3.9333,-4.0344,-4.0403,-4.1054,-4.2087,-4.2322,-4.2433,-4.2462,-4.3006,-4.324,-4.3387,-4.4658,-4.5156,-4.523,-4.5903,-4.6077,-4.5869,0.0,0.0,0.0,0.0,0.0,0.0,0.0,-5.4255,-5.5329,-5.5122,-5.5536,-5.5947,-5.6156,-5.599,-5.5764,-5.5651,-5.5651,-5.5566,-5.5253,-5.5339,-5.5339,-5.511,-5.429,-5.3613,-5.3106,-5.1445,-4.9061,0.0,0.0,0.0,0.0,0.0,0.0,0.0,0.0,-3.7439,-3.9316,-4.0114,-4.1358,-4.274,-4.3121,-4.3442,-4.3731,-4.3731,-4.3661,-4.3557,-4.33,-4.3067,-4.2949,-4.3115,-4.3307,-4.3423,-4.3566,-4.3448,-4.3255,-4.3255,-4.2959,-4.2739,-4.2821,-4.2518,-4.2141,-4.2186,-4.17,-4.1078,-4.0586,-4.0312,-4.0039,-3.9887,-3.8971,-3.8104,-3.7688,-3.6385,-3.5287,0.0,0.0,0.0,0.0,0.0,0.0,0.0,0.0,0.0,0.0,0.0,0.0,0.0,0.0,0.0,-2.1683,-2.3278,-2.5449,-2.8426,0.0,-3.4185,-3.5386,-3.72,-3.8443,-3.9011,-3.8602,-3.8856,-3.9683,-4.0061,-4.0924,-4.2092,-4.2022,-4.2063,-4.2245,-4.276,-4.2936,-4.3023,-4.4371,-4.4775,-4.4656,-4.529,-4.5504,-4.5326,-5.3582,0.0,-5.2455,0.0,-5.2775,-5.2543,-5.3646,-5.4575,-5.5108,-5.5128,-5.5503,-5.5963,-5.6337,-5.6365,-5.6308,-5.6308,-5.6193,-5.6077,-5.5845,-5.5845,-5.5673,-5.5243,-5.44,0.0,-5.3726,-5.2012,-5.0213,-4.8274,-4.4968,0.0,0.0,0.0,0.0,0.0,-3.8569,-4.0023,-4.1272,-4.1896,-4.2656,-4.347,-4.3877,-4.404,-4.404,-4.404,-4.404,-4.3986,-4.3579,-4.3308,-4.3172,-4.3362,-4.3454,-4.3457,-4.3383,-4.3375,-4.3375,-4.3375,-4.3101,-4.2854,-4.3266,-4.2771,-4.2203,-4.25,-4.207,-4.1377,-4.064,-4.0323,-4.0069,-3.9677,-3.8714,-3.8033,-3.8048,-3.6368,-3.5234,-3.5925,0.0,0.0,0.0,0.0,0.0,0.0,0.0,-2.675,-2.5653,0.0,0.0,0.0,0.0,0.0,-2.2374,-2.3676,0.0,0.0,0.0,0.0,0.0,-3.7356,-3.8697,-3.9285,-3.8823,-3.8938,-3.9574,-4.018,-4.0989,-4.1885,-4.1689,-4.1616,-4.1683,-4.2537,-4.274,-4.2639,-4.4177,-4.4662,-4.451,-4.4967,-4.511,-4.5052,-5.3582,-5.35,-5.35,-5.35,-5.35,-5.3733,-5.44,-5.4517,-5.4764,-5.5393,-5.5508,-5.5737,-5.6337,-5.6135,-5.5961,-5.5961,-5.5671,-5.5496,-5.5496,-5.5496,-5.5243,0.0,0.0,-5.4288,-5.3726,-5.2433,-5.145,-5.0885,0.0,0.0,-4.3579,0.0,-4.0431,-4.1082,-4.2304,-4.3145,-4.3818,-4.4393,-4.4664,-4.4691,-4.4691,-4.4691,-4.4691,-4.4691,-4.4691,-4.4691,-4.4691,-4.4284,-4.385,-4.4474,-4.4257,-4.371,-4.3112,-4.29,-4.29,-4.29,-4.2873,-4.2873,-4.29,-4.2873,-4.2873,-4.2873,-4.2439,-4.1842,-4.1245,-4.0621,-4.0024,-3.9427,-3.8369,-3.757,-3.7796,-3.6852,-3.5754,-3.4699,0.0,0.0,0.0,0.0,0.0,0.0,-2.7584,-2.5939,-2.6524,0.0,0.0,0.0,0.0,0.0,0.0,0.0,0.0,-3.0538,-3.3152,0.0,-3.5703,-3.8214,-3.947,-3.947,-3.947,-3.9824,-4.0424,-4.1081,-4.1396,-4.1396,-4.1396,-4.1053,-4.0666,-4.2524,-4.2896,-4.2481,-4.4367,-4.511,-4.511,-4.511,-4.511,-4.511,-5.4861,-5.4807,-5.4691,-5.4255,-5.4197,-5.4255,-5.4487,-5.4865,-5.5253,-5.5731,-5.5965,-5.6137,-5.6135,-5.5845,-5.5671,0.0,-5.5554,-5.5496,0.0,-5.5496,-5.5215,-5.4625,-5.4597,-5.4316,-5.3726,-5.3276,-5.2518,-5.1262,0.0,0.0,0.0,-4.4058,-4.3986,-4.4176,-4.4556,-4.5071,-4.5587,-4.4963,-4.4936,-4.5316,-4.5316,-4.5316,-4.5316,-4.5316,-4.5316,-4.5261,-4.4854,-4.4583,-4.4447,-4.4637,-4.4583,-4.4366,-4.4203,-4.3823,-4.3416,-4.3009,-4.29,-4.29,-4.29,-4.29,-4.29,-4.29,-4.2738,-4.2466,-4.1869,-4.092,-4.0024,-3.9427,-3.8369,-3.7528,-3.757,-3.6633,-3.5762,-3.5605,-3.4876,0.0,0.0,0.0,0.0,0.0,-2.9341,-2.8174,0.0,-2.619,0.0,0.0,0.0,0.0,0.0,0.0,0.0,0.0,-3.3472,0.0,-3.6396,-3.8325,-3.9577,-4.0139,-3.9698,-3.9812,-4.0424,-4.1081,-4.1396,-4.1396,-4.1198,-4.1127,-4.1224,-4.2479,-4.2918,-4.2861,-4.4294,-4.4769,-4.463,-4.463,-4.463,-4.463,-5.5471,-5.5242,-5.4952,-5.4575,-5.4313,-5.4313,-5.4778,-5.5155,-5.5571,-5.6047,-5.628,-5.625,-5.5845,-5.5613,0.0,-5.5496,-5.5496,-5.5496,-5.5496,-5.5496,-5.5215,-5.4625,-5.4372,-5.4063,-5.3726,0.0,0.0,-5.1738,-5.0159,-4.8349,-4.6374,-4.6509,-4.6591,-4.6591,-4.6347,-4.6455,-4.6779,-4.5777,-4.5587,-4.5912,-4.5912,-4.5912,-4.5912,-4.5912,-4.5912,-4.5885,-4.5505,-4.5234,-4.5071,-4.5288,-4.5234,-4.5044,-4.5044,-4.4773,-4.4284,-4.347,-4.3063,-4.29,-4.29,-4.29,-4.29,-4.29,-4.29,-4.2738,-4.2141,-4.1055,-4.0078,-3.9726,-3.8695,-3.7756,-3.754,-3.6714,-3.6022,-3.5965,-3.4889,-3.4175,-3.4431,0.0,0.0,0.0,0.0,0.0,0.0,-2.841,0.0,0.0,0.0,0.0,0.0,0.0,0.0,-3.1273,-3.486,0.0,-3.7877,-3.9147,-4.0024,-4.0517,-4.0107,-4.0135,-4.0546,-4.0943,-4.1142,-4.1142,-4.0944,-4.0845,-4.0915,-4.226,-4.2608,-4.2435,-4.4019,-4.4518,-4.4256,-4.4378,-4.4425,-4.4425,-5.5326,-5.4865,0.0,0.0,-5.3941,0.0,-5.5188,-5.5391,-5.5635,-5.6308,-5.6394,-5.6193,-5.5613,-5.5496,-5.5496,-5.5496,0.0,0.0,0.0,-5.5496,-5.5215,-5.4625,-5.4091,-5.3754,-5.3726,-5.2574,-5.2071,-5.224,-5.0519,-4.95,-4.9169,-4.8571,-4.83,-4.83,-4.7758,-4.754,-4.7486,-4.6861,-4.6589,-4.6589,-4.6535,-4.6482,-4.6482,-4.6482,-4.6482,-4.6482,-4.6482,-4.613,-4.575,-4.6292,-4.6102,-4.5641,-4.5641,-4.5614,-4.537,-4.4176,-4.3416,-4.2955,-4.2955,-4.2928,-4.29,-4.29,-4.29,-4.2738,-4.2141,-4.1137,-4.0296,-4.0214,-3.9264,-3.8288,-3.7621,-3.7012,-3.6388,-3.5764,-3.4666,-3.3919,-3.4121,0.0,0.0,0.0,0.0,0.0,0.0,-3.0439,-3.135,0.0,0.0,0.0,0.0,0.0,-3.105,-3.517,-3.7074,-3.8608,-3.9802,-4.0407,-4.0688,-4.0688,-4.0716,-4.0716,-4.0688,-4.0716,-4.0673,-4.0673,-4.0645,-4.0336,-3.9943,-4.1767,-4.2055,-4.1541,-4.3556,-4.4162,-4.3974,-4.4256,-4.435,-4.435,0.0,0.0,-5.4342,-5.3849,-5.4215,-5.4771,-5.506,-5.53,-5.5735,-5.6308,-5.625,-5.6019,-5.5932,-5.5613,-5.5496,-5.5496,-5.5496,-5.5496,-5.5496,-5.5496,-5.5215,-5.4625,-5.4906,-5.4625,-5.3754,-5.3611,-5.2905,-5.1618,-5.0919,-5.0311,-4.9793,-4.9657,-4.9576,-4.9576,-4.8979,-4.8707,-4.8653,-4.7595,-4.7214,-4.716,-4.6725,-4.6482,-4.6482,-4.6482,-4.6482,-4.6482,-4.6482,-4.6374,-4.6292,-4.6428,-4.6374,-4.6265,-4.6265,-4.5967,-4.5451,-4.4719,-4.404,-4.3579,-4.3579,-4.3226,-4.29,-4.29,-4.29,-4.2738,-4.2141,-4.1788,-4.13,-4.0377,-3.9617,-3.8776,-3.7675,-3.7012,-3.6252,-3.5181,-3.4395,-3.3783,-3.3397,-3.2581,0.0,0.0,-3.1979,-3.2168,-3.1465,-3.2803,-3.3309,0.0,0.0,0.0,0.0,-3.3812,-3.4677,-3.609,-3.8211,-3.9562,-4.0039,-4.0492,-4.0688,-4.0688,-4.0544,-4.0544,-4.0688,-4.0544,-4.0485,-4.0485,-4.0241,-4.0087,-4.0059,-4.1446,-4.1872,-4.1827,-4.323,-4.3757,-4.3709,-4.3757,-4.3804,-4.3804,-5.4255,-5.4458,-5.4575,-5.4807,-5.4992,-5.5259,-5.5382,-5.556,-5.585,-5.6165,-5.6077,-5.5932,-5.5787,-5.5613,-5.5496,-5.5496,-5.5496,-5.5496,-5.5496,-5.5496,-5.5355,-5.5018,-5.5046,-5.4708,-5.3862,-5.3746,-5.2957,-5.1391,-5.0805,-5.0335,-5.001,-5.001,-5.001,-4.9983,-4.9386,-4.9114,-4.9005,-4.8165,-4.7758,-4.7703,-4.7106,-4.6942,-4.6888,-4.6643,-4.6482,-4.6482,-4.6482,-4.6482,-4.6482,-4.6482,-4.6482,-4.6482,-4.6297,-4.6029,-4.5705,-4.5225,-4.4678,-4.4203,-4.4203,-4.3742,-4.3226,-4.2955,-4.29,-4.2792,-4.2493,-4.2195,-4.1815,-4.1164,-4.0323,-3.9427,-3.8505,-3.7609,-3.6632,-3.5398,-3.4477,-3.3691,-3.3196,-3.2816,0.0,-3.2354,-3.3046,-3.3557,-3.3496,-3.4551,-3.503,-3.4501,0.0,0.0,-3.5551,-3.6631,-3.7155,-3.695,-3.8572,-3.9718,-4.021,-4.0547,-4.0688,-4.0688,-4.0529,-4.0485,-4.0544,-4.0606,-4.0475,-4.0225,-4.0648,-4.0686,-4.0493,-4.1736,-4.2141,-4.2103,-4.318,-4.3566,-4.3471,-4.3566,-4.3586,-4.3586,-5.5068,-5.501,-5.5097,-5.6084,-5.5884,-5.5687,-5.5816,-5.5847,-5.5936,-5.5905,-5.5932,-5.5787,-5.5496,-5.5496,-5.5496,-5.5496,-5.5496,-5.5496,-5.5496,-5.5496,-5.5496,-5.5437,-5.4932,-5.445,-5.399,-5.349,-5.2648,-5.147,-5.0748,-5.0308,-5.0146,-5.0146,-5.0091,-4.9983,-4.9494,-4.9277,-4.9223,-4.8571,-4.8327,-4.8273,-4.7568,-4.7351,-4.735,-4.6699,-4.6482,-4.6482,-4.6482,-4.6482,-4.6482,-4.6482,-4.6482,-4.635,-4.6086,-4.5954,-4.5901,-4.5662,-4.523,-4.4834,-4.4753,-4.4312,-4.3682,-4.3036,-4.29,-4.29,-4.29,-4.2493,-4.2114,-4.2032,-4.111,-4.0106,-3.9427,-3.8342,-3.7052,-3.5791,-3.4694,-3.3772,-3.3088,0.0,-3.337,-3.3383,-3.3941,-3.4582,-3.5268,-3.5976,-3.6579,-3.7195,-3.791,-3.8338,0.0,-3.8876,-3.8725,-3.7825,-3.8754,-3.967,-4.0442,-4.0628,-4.0714,-4.0673,-4.0414,-4.0356,-4.0356,-4.0703,-4.0587,-4.0173,-4.1214,-4.1406,-4.0993,-4.215,-4.245,-4.2363,-4.3176,-4.3375,-4.3259,-4.3423,-4.3519,-4.3519,-5.4604,-5.5445,-5.5997,-5.562,-5.6152,-5.6448,-5.5707,-5.5794,-5.5876,-5.5613,-5.5554,-5.5554,-5.5496,-5.5496,-5.5496,-5.5496,-5.5496,-5.5496,-5.5496,-5.5496,-5.5379,-5.5085,-5.5001,-5.4519,-5.3727,-5.3382,-5.2701,-5.1751,-5.2099,-5.1774,-5.077,-5.077,-5.0498,-5.001,-4.9901,-4.9874,-4.9847,-4.925,-4.8923,-4.8842,-4.7514,-4.7136,-4.7296,-4.6408,-4.6245,-4.6482,-4.6482,-4.6482,-4.6482,-4.6482,-4.6297,-4.6086,-4.6007,-4.5848,-4.5662,-4.5609,-4.5529,-4.5394,-4.5094,-4.4408,-4.3682,-4.3036,-4.29,-4.29,-4.29,-4.2819,-4.2602,-4.2114,-4.1462,-4.0621,-3.9509,-3.8342,-3.6943,-3.5209,-3.4775,-3.4136,-3.2572,0.0,-3.4353,-3.3865,-3.5221,-3.6307,-3.6593,-3.7208,-3.7895,-3.8668,-3.8876,-3.8974,-3.8974,-3.9381,-3.9278,-3.8538,-3.9612,-4.0331,-4.0673,-4.0829,-4.0741,-4.0442,-4.0198,-4.0039,-4.0067,-4.0481,-4.0594,-4.0539,-4.0995,-4.1148,-4.1121,-4.1801,-4.21,-4.2107,-4.2753,-4.297,-4.297,-4.297,-4.3018,-4.3018,-5.4458,-5.5242,-5.5881,-5.5939,-5.6582,-5.6934,-5.6336,-5.6251,-5.6135,-5.5787,-5.5613,-5.5496,-5.5496,-5.5496,-5.5496,-5.5496,-5.5496,-5.5496,-5.5496,-5.5496,-5.532,-5.5026,-5.5026,-5.4651,-5.3901,-5.3216,-5.2706,-5.2289,-5.1909,-5.1448,-5.0878,-5.058,-5.0281,-5.001,-5.001,-5.001,-4.9983,-4.9543,-4.9378,-4.9241,-4.8074,-4.767,-4.7726,-4.6972,-4.6733,-4.6731,-4.6731,-4.6515,-4.6245,-4.6245,-4.6034,-4.5742,-4.5609,-4.5502,-4.5341,-4.518,-4.5341,-4.5395,-4.4646,-4.4208,-4.3791,-4.2922,-4.2803,-4.29,-4.29,-4.29,-4.2819,-4.2548,-4.2005,-4.1435,-4.0865,-3.9509,-3.8206,-3.7365,-3.6103,0.0,0.0,-3.4787,-3.5154,-3.4883,-3.6157,-3.7271,-3.7682,-3.7954,-3.8406,-3.9136,-3.9191,-3.9191,-3.9191,-3.9376,-3.9567,-3.971,-4.025,-4.0609,-4.0801,-4.0858,-4.0736,-4.0399,-4.0023,-4.0013,-4.0371,-4.0704,-4.0886,-4.0895,-4.1726,-4.1896,-4.1652,-4.2249,-4.2466,-4.2493,-4.2792,-4.29,-4.29,-4.29,-4.29,-4.29,-5.4604,-5.5213,-5.5852,-5.649,-5.6984,-5.7191,-5.6936,-5.6652,-5.6308,-5.6048,-5.5671,-5.5496,-5.5496,-5.5496,-5.5496,-5.5496,-5.5496,-5.5496,-5.5496,-5.5496,-5.532,-5.5026,-5.4849,-5.4552,-5.4014,-5.3277,-5.2913,-5.2913,-5.1991,-5.1448,-5.1312,-5.0851,-5.0498,-5.0227,-5.017,-5.0032,-4.9897,-4.9613,-4.9442,-4.9415,-4.8516,-4.8163,-4.8139,-4.7442,-4.7129,-4.6973,-4.6973,-4.6732,-4.6303,-4.6303,-4.6116,-4.582,-4.5472,-4.5337,-4.5202,-4.4828,-4.5046,-4.5156,-4.4147,-4.4088,-4.4026,-4.2896,-4.2748,-4.2917,-4.2831,-4.2803,-4.2852,-4.29,-4.2412,-4.2005,-4.2005,-4.0648,-3.9427,-3.9156,0.0,0.0,0.0,-3.5954,-3.6144,-3.6144,-3.701,-3.7876,-3.8472,-3.8482,-3.8671,-3.9176,-3.9203,-3.9247,-3.9292,-3.9427,-3.9951,-4.0896,-4.0941,-4.0986,-4.0907,-4.1,-4.0741,-4.0225,-4.0013,-4.0093,-4.0513,-4.093,-4.1191,-4.1354,-4.2141,-4.2385,-4.2222,-4.2548,-4.2765,-4.29,-4.29,-4.29,-4.29,-4.29,-4.29,-4.29,-5.5213,-5.5881,-5.652,-5.7129,-5.7274,-5.7191,-5.6936,-5.6652,-5.6308,-5.6048,-5.5671,-5.5496,-5.5496,-5.5496,-5.5496,-5.5496,-5.5496,-5.5496,-5.5496,-5.5496,-5.532,-5.5026,-5.4433,-5.4014,-5.3652,-5.3565,-5.3537,-5.3537,-5.3429,-5.313,-5.2588,-5.2533,-5.1909,-5.0824,-5.059,-5.0151,-4.9613,-4.9297,-4.9125,-4.9072,-4.8175,-4.7993,-4.8083,-4.7245,-4.7036,-4.7287,-4.7287,-4.7234,-4.7207,-4.7207,-4.7041,-4.6684,-4.6101,-4.5779,-4.5454,-4.4905,-4.4722,-4.4699,-4.4362,-4.4467,-4.4383,-4.3261,-4.2968,-4.2935,-4.257,-4.2511,-4.2609,-4.2852,-4.2412,-4.2005,-4.2005,-4.0974,-3.9753,-3.8667,0.0,0.0,-3.5954,-3.6645,-3.735,-3.735,-3.7747,-3.828,-3.8818,-3.8702,-3.8684,-3.8908,-3.8908,-3.9042,-3.9292,-3.9834,-4.0675,-4.1889,-4.2078,-4.1764,-4.0907,-4.1233,-4.0795,-3.9744,-4.0247,-4.0431,-4.026,-4.0838,-4.1408,-4.1924,-4.1462,-4.1842,-4.2792,-4.2276,-4.2385,-4.29,-4.29,-4.29,-4.29,-4.29,-4.29,-4.29,-5.472,-5.5358,-5.5997,-5.6636,-5.7042,-5.7191,-5.6936,-5.6652,-5.6308,-5.6048,-5.5671,-5.5496,-5.5496,-5.5496,-5.5496,-5.5496,-5.5496,-5.5496,-5.5496,-5.5496,-5.5261,-5.4758,-5.4314,-5.3954,-5.3592,-5.3592,-5.3592,-5.3592,-5.3239,-5.294,-5.2696,-5.2079,-5.1588,-5.113,-5.0515,-5.0046,-4.9805,-4.9169,-4.8837,-4.8811,-4.8284,-4.809,-4.8179,-4.7827,-4.7652,-4.7645,-4.7645,-4.738,-4.7063,-4.7063,-4.6866,-4.6589,-4.6379,-4.6271,-4.6029,-4.5454,-4.4955,-4.4696,-4.4594,-4.4493,-4.4282,-4.3461,-4.3086,-4.2995,-4.2854,-4.2507,-4.2289,-4.2387,-4.2372,-4.2307,-4.2307,-4.1775,-4.13,-4.1191,0.0,-3.8857,-3.8532,-3.826,-3.8147,-3.8324,-3.8845,-3.914,-3.9219,-3.9154,-3.9108,-3.9173,-3.9219,-3.9451,-3.9872,-4.0649,-4.1255,-4.1713,-4.2331,-4.2187,-4.1187,-4.1205,-4.0886,-4.0247,-4.0331,-4.0686,-4.13,-4.1191,-4.1435,-4.2005,-4.1761,-4.1924,-4.2358,-4.2493,-4.2683,-4.29,-4.29,-4.29,-4.29,-4.29,-4.29,-4.29,-5.4981,-5.5445,-5.5884,-5.6466,-5.693,-5.7078,-5.6766,-5.648,-5.6193,-5.6019,-5.5671,-5.5496,-5.5496,-5.5496,-5.5496,-5.5496,-5.5496,-5.5496,-5.5496,-5.5496,-5.5261,-5.4758,-5.4401,-5.4074,-5.3773,-5.3652,-5.3592,-5.3592,-5.3185,-5.2995,-5.2995,-5.2323,-5.1847,-5.1573,-5.0901,-5.0292,-4.9802,-4.9112,-4.8732,-4.8548,-4.8315,-4.8172,-4.8172,-4.8172,-4.8079,-4.7911,-4.7911,-4.7648,-4.728,-4.728,-4.7166,-4.697,-4.6813,-4.663,-4.6395,-4.6003,-4.548,-4.5009,-4.5009,-4.4699,-4.4282,-4.3677,-4.3412,-4.3273,-4.3139,-4.2711,-4.2259,-4.2358,-4.2373,-4.2418,-4.2606,-4.2296,-4.2172,-4.2577,-4.112,-3.9986,-4.0202,-3.96,-3.9177,-3.931,-3.9738,-3.986,-3.9555,-3.9488,-3.9488,-3.9555,-3.9555,-3.9867,-4.0526,-4.1143,-4.1582,-4.1743,-4.2318,-4.2241,-4.1354,-4.1381,-4.1202,-4.0741,-4.0767,-4.1191,-4.2005,-4.1571,-4.1625,-4.2005,-4.1815,-4.1768,-4.1937,-4.2343,-4.2614,-4.2803,-4.2803,-4.2852,-4.29,-4.29,-4.29,-4.29,-5.6287,-5.6403,-5.6495,-5.6821,-5.688,-5.6766,-5.6451,-5.6193,-5.599,-5.599,-5.5671,-5.5496,-5.5496,-5.5496,-5.5496,-5.5496,-5.5496,-5.5496,-5.5496,-5.5496,-5.532,-5.5026,-5.4758,-5.446,-5.4134,-5.3773,-5.3592,-5.3592,-5.3592,-5.3592,-5.3592,-5.3592,-5.3085,-5.2218,-5.1944,-5.0943,-4.9475,-4.9206,-4.8721,-4.8172,-4.8172,-4.8172,-4.8172,-4.8172,-4.8172,-4.8172,-4.8172,-4.8172,-4.8172,-4.8172,-4.8172,-4.8094,-4.7519,-4.6944,-4.6499,-4.6499,-4.6081,-4.5637,-4.5581,-4.5192,-4.4591,-4.4016,-4.3912,-4.3834,-4.3466,-4.299,-4.2644,-4.2947,-4.2518,-4.2278,-4.2891,-4.2518,-4.2092,-4.2119,-4.1612,-4.1026,-4.0393,-4.0522,-4.0616,-4.036,-4.0287,-4.0192,-3.9928,-3.9743,-3.9695,-3.9881,-3.9907,-4.0288,-4.1138,-4.1213,-4.1479,-4.2065,-4.2065,-4.1799,-4.1213,-4.1719,-4.1707,-4.109,-4.1734,-4.2005,-4.2005,-4.2005,-4.2005,-4.1978,-4.1381,-4.1295,-4.157,-4.1597,-4.1947,-4.2511,-4.2511,-4.2658,-4.29,-4.29,-4.29,-4.29,-5.5926,-5.5902,-5.5935,-5.648,-5.6537,-5.648,-5.6135,-5.6019,-5.5932,-5.5671,-5.5554,-5.5496,-5.5496,-5.5496,-5.5496,-5.5496,-5.5496,-5.5496,-5.5496,-5.5496,-5.532,-5.5026,-5.4908,-5.4612,-5.4134,-5.4014,-5.3833,-5.3592,-5.3592,-5.3592,-5.3592,-5.3349,-5.3086,-5.2776,-5.1862,-5.0975,-5.0115,-4.9363,-4.8721,-4.8172,-4.8172,-4.8172,-4.8172,-4.8172,-4.8172,-4.8172,-4.8172,-4.8172,-4.8172,-4.8172,-4.8172,-4.8146,-4.7989,-4.7545,-4.7074,-4.7074,-4.6682,-4.6133,-4.5741,-4.5506,-4.5218,-4.4617,-4.4173,-4.3886,-4.3756,-4.3284,-4.2865,-4.2968,-4.3042,-4.3065,-4.3251,-4.3298,-4.3293,-4.3293,-4.2468,-4.1799,-4.1564,-4.0914,-4.0494,-4.0632,-4.0658,-4.0562,-4.0293,-4.0223,-4.0174,-4.0245,-4.0638,-4.1028,-4.1235,-4.1433,-4.161,-4.1819,-4.1993,-4.1985,-4.1826,-4.1571,-4.1373,-4.1138,-4.1564,-4.1908,-4.2312,-4.21,-4.191,-4.174,-4.1551,-4.1388,-4.1336,-4.1785,-4.2079,-4.2239,-4.2239,-4.2289,-4.2338,-4.2338,-4.2338,-4.2338,-5.5963,-5.5965,-5.5937,-5.6193,-5.625,-5.6135,-5.5845,-5.5787,-5.5729,-5.5496,-5.5496,-5.5496,-5.5496,-5.5496,-5.5496,-5.5496,-5.5379,-5.532,-5.532,-5.5203,-5.5054,-5.4877,-5.4877,-5.4612,-5.4134,-5.3954,-5.3773,-5.3592,-5.3592,-5.3592,-5.3592,-5.341,-5.3227,-5.3044,-5.233,-5.1387,-5.0379,-4.9857,-4.9049,-4.8172,-4.8172,-4.8172,-4.8172,-4.8172,-4.8172,-4.8172,-4.8172,-4.8172,-4.8172,-4.8172,-4.8172,-4.8172,-4.8172,-4.7937,-4.7675,-4.7675,-4.7257,-4.6682,-4.6107,-4.5794,-4.548,-4.4824,-4.446,-4.4225,-4.4225,-4.3781,-4.3363,-4.3363,-4.3284,-4.3284,-4.3572,-4.3545,-4.3569,-4.3807,-4.3067,-4.238,-4.2142,-4.1607,-4.1161,-4.1021,-4.1071,-4.1021,-4.0775,-4.0775,-4.0775,-4.0775,-4.1115,-4.1324,-4.1324,-4.1448,-4.1547,-4.1547,-4.1696,-4.1796,-4.1796,-4.1452,-4.1364,-4.1559,-4.1753,-4.1989,-4.2338,-4.2108,-4.1812,-4.1453,-4.1694,-4.1523,-4.1073,-4.1705,-4.1944,-4.1944,-4.1944,-4.2043,-4.2065,-4.2065,-4.2065,-4.2065,-5.6223,-5.6337,-5.625,-5.5961,-5.599,-5.5845,-5.5554,-5.5496,-5.5496,-5.5496,-5.5496,-5.5496,-5.5496,-5.5437,-5.5437,-5.5437,-5.5144,-5.4967,-5.4967,-5.4758,-5.4607,-5.4548,-5.4548,-5.4401,-5.4074,-5.3773,-5.3652,-5.3592,-5.3592,-5.3592,-5.3592,-5.3592,-5.341,-5.3132,-5.3132,-5.2097,-5.0465,-5.0405,-4.9541,-4.8257,-4.8172,-4.8172,-4.8172,-4.8172,-4.8172,-4.8172,-4.8172,-4.8172,-4.8172,-4.8172,-4.8172,-4.8172,-4.8172,-4.8172,-4.8172,-4.8172,-4.7806,-4.7283,-4.6708,-4.6186,-4.5581,-4.4903,-4.4746,-4.48,-4.4694,-4.433,-4.3938,-4.3938,-4.352,-4.3337,-4.3859,-4.352,-4.3337,-4.3859,-4.3467,-4.2918,-4.2447,-4.2443,-4.2257,-4.1455,-4.155,-4.1547,-4.1324,-4.1324,-4.1324,-4.1324,-4.1324,-4.1324,-4.1324,-4.1324,-4.1324,-4.1324,-4.1324,-4.1324,-4.1324,-4.1324,-4.1547,-4.2043,-4.2016,-4.2065,-4.2065,-4.2065,-4.1799,-4.1271,-4.1852,-4.1576,-4.0909,-4.1436,-4.1647,-4.1647,-4.1647,-4.1796,-4.2043,-4.2043,-4.2043,-4.2043,-5.5964,-5.5903,-5.5671,-5.5613,-5.5613,-5.5554,-5.5496,-5.5496,-5.5496,-5.5496,-5.5496,-5.5496,-5.5496,-5.5261,-5.5085,-5.5085,-5.4877,-5.4699,-5.4699,-5.4667,-5.446,-5.4194,-5.4194,-5.4074,-5.3713,-5.3894,-5.3833,-5.3592,-5.3592,-5.3592,-5.3592,-5.3592,-5.3531,-5.347,-5.3254,-5.24,-5.1121,-5.0645,-4.966,-4.8548,-4.8315,-4.8172,-4.8172,-4.8172,-4.8172,-4.8172,-4.8172,-4.8172,-4.8172,-4.8172,-4.8172,-4.8172,-4.8172,-4.8172,-4.8172,-4.8172,-4.8094,-4.7885,-4.731,-4.6991,-4.6708,-4.5634,-4.5373,-4.5268,-4.4826,-4.4643,-4.4539,-4.4539,-4.4434,-4.4408,-4.4513,-4.4434,-4.4408,-4.4513,-4.4068,-4.365,-4.3572,-4.2787,-4.2236,-4.2054,-4.1636,-4.1374,-4.1324,-4.1324,-4.1324,-4.1324,-4.1324,-4.1324,-4.1324,-4.1324,-4.1324,-4.1324,-4.1324,-4.1324,-4.1324,-4.1324,-4.1374,-4.1448,-4.1696,-4.1796,-4.1796,-4.1993,-4.1914,-4.161,-4.1743,-4.1568,-4.1191,-4.1322,-4.1424,-4.1424,-4.1424,-4.1398,-4.1448,-4.1448,-4.1448,-4.1448,-5.556,-5.5613,-5.5496,-5.5496,-5.5496,-5.5496,-5.5496,-5.5496,-5.5496,-5.5496,-5.5379,-5.5261,-5.5261,-5.4995,-5.4817,-5.4817,-5.452,-5.4341,-5.4341,-5.4221,-5.4151,-5.4303,-5.4269,-5.4209,-5.4026,-5.4209,-5.4045,-5.3592,-5.3592,-5.3592,-5.3592,-5.3592,-5.3592,-5.3592,-5.3112,-5.2251,-5.1094,-5.0445,-4.954,-4.8431,-4.8257,-4.8172,-4.8172,-4.8172,-4.8172,-4.8172,-4.8172,-4.8172,-4.8172,-4.8172,-4.8172,-4.8172,-4.8172,-4.8172,-4.8172,-4.8172,-4.8172,-4.8068,-4.7492,-4.7278,-4.7127,-4.6264,-4.6029,-4.582,-4.4931,-4.4668,-4.4668,-4.4668,-4.4668,-4.4668,-4.4668,-4.4668,-4.4668,-4.4668,-4.4487,-4.4173,-4.3965,-4.3415,-4.2866,-4.2605,-4.2082,-4.1611,-4.135,-4.1324,-4.1324,-4.1324,-4.1324,-4.1324,-4.1324,-4.1324,-4.1324,-4.1324,-4.1324,-4.1324,-4.1324,-4.1324,-4.1324,-4.1324,-4.1448,-4.1498,-4.1498,-4.1647,-4.1647,-4.1498,-4.1498,-4.1398,-4.1324,-4.1324,-4.1324,-4.1324,-4.1324,-4.1324,-4.1324,-4.1324,-4.1324,-4.1324,-5.5271,-5.5496,-5.5496,-5.5496,-5.5496,-5.5496,-5.5496,-5.5496,-5.5496,-5.5496,-5.5203,-5.5026,-5.5026,-5.4699,-5.446,-5.4401,-5.4161,-5.4014,-5.4014,-5.3773,-5.3863,-5.446,-5.4487,-5.4541,-5.465,-5.4541,-5.4189,-5.3592,-5.3592,-5.3592,-5.3592,-5.3592,-5.3592,-5.3504,-5.2908,-5.1955,-5.089,-5.0185,-4.9308,-4.8315,-4.823,-4.8172,-4.8172,-4.8172,-4.8172,-4.8172,-4.8172,-4.8172,-4.8172,-4.8172,-4.8172,-4.8172,-4.8114,-4.8114,-4.8172,-4.8114,-4.8198,-4.8068,-4.7597,-4.7466,-4.7336,-4.6761,-4.663,-4.6342,-4.5271,-4.5036,-4.5009,-4.4905,-4.4824,-4.4798,-4.4748,-4.4668,-4.4668,-4.4668,-4.4668,-4.4565,-4.4095,-4.3938,-4.3702,-4.3232,-4.2527,-4.19,-4.1276,-4.1198,-4.1198,-4.1198,-4.1274,-4.1324,-4.1324,-4.1324,-4.1324,-4.1324,-4.1324,-4.1324,-4.1324,-4.1324,-4.1324,-4.1324,-4.1324,-4.1274,-4.1198,-4.1198,-4.1224,-4.1174,-4.1174,-4.1174,-4.1174,-4.1198,-4.1198,-4.1274,-4.1274,-4.1324,-4.1324,-4.1324,-4.1324,-4.1324,-5.5271,-5.5496,-5.5496,-5.5496,-5.5496,-5.5496,-5.5496,-5.5496,-5.5496,-5.5496,-5.5203,-5.5026,-5.5026,-5.4493,-5.4074,-5.3773,-5.3713,-5.3652,-5.3652,-5.3652,-5.3863,-5.446,-5.4487,-5.4731,-5.5274,-5.4758,-5.4189,-5.3592,-5.3592,-5.3592,-5.3592,-5.3592,-5.347,-5.3139,-5.2634,-5.1776,-5.083,-4.9923,-4.925,-4.8606,-4.8315,-4.8172,-4.8172,-4.8172,-4.8172,-4.8172,-4.8172,-4.8172,-4.8172,-4.8172,-4.8172,-4.8114,-4.788,-4.7938,-4.8114,-4.788,-4.7997,-4.8172,-4.8094,-4.8068,-4.7937,-4.7362,-4.7205,-4.7048,-4.6395,-4.6238,-4.6107,-4.5611,-4.5506,-4.5294,-4.4826,-4.4668,-4.4668,-4.4668,-4.4668,-4.4642,-4.4617,-4.4173,-4.3833,-4.3781,-4.2606,-4.1594,-4.0998,-4.0946,-4.0946,-4.0946,-4.1147,-4.1324,-4.1324,-4.1324,-4.1324,-4.1324,-4.1324,-4.1324,-4.1324,-4.1324,-4.1324,-4.1324,-4.1324,-4.1147,-4.0946,-4.0946,-4.0846,-4.0618,-4.0618,-4.0618,-4.0618,-4.0846,-4.0946,-4.0997,-4.1198,-4.1324,-4.1324,-4.1324,-4.1324,-4.1324,-5.5271,-5.5496,-5.5496,-5.5496,-5.5496,-5.5496,-5.5496,-5.5496,-5.5437,-5.5261,-5.4995,-5.4699,-5.4493,-5.4074,-5.3773,-5.3592,-5.3592,-5.3592,-5.3592,-5.3592,-5.3863,-5.446,-5.4813,-5.4976,-5.4894,-5.4976,-5.4541,-5.3592,-5.3592,-5.347,-5.3288,-5.3288,-5.3105,-5.2746,-5.1897,-5.1156,-5.0565,-4.9488,-4.8843,-4.8431,-4.8257,-4.8172,-4.8172,-4.8172,-4.8172,-4.8172,-4.8172,-4.8172,-4.8172,-4.8172,-4.8055,-4.788,-4.7762,-4.7677,-4.7619,-4.7442,-4.7501,-4.7645,-4.7645,-4.7645,-4.7567,-4.7334,-4.7373,-4.7438,-4.7236,-4.7325,-4.71,-4.5872,-4.5581,-4.5399,-4.4826,-4.4668,-4.4668,-4.4668,-4.4668,-4.4668,-4.4668,-4.4225,-4.3624,-4.3049,-4.2658,-4.2034,-4.1024,-4.0896,-4.0846,-4.0694,-4.0795,-4.0846,-4.0846,-4.0846,-4.0846,-4.0846,-4.0846,-4.0846,-4.0846,-4.0846,-4.0896,-4.1097,-4.1097,-4.1097,-4.1097,-4.0997,-4.1001,-4.1158,-4.0696,-4.0875,-4.1362,-4.1209,-4.1106,-4.1106,-4.1286,-4.113,-4.0846,-4.0846,-4.0846,-4.0846]},{"header":{"parameterUnit":"m.s-1","parameterCategory":1,"la1":30.6,"la2":28.766,"lo1":-90.7593,"lo2":-88.6598,"dy":0.0162,"dx":0.0183,"nx":116,"ny":114,"refTime":"2024-04-21T00:00:00:Z","depth":0,"parameterNumber":3,"parameterNumberName":"V-component_of_WINDS"},"data":[0.0,0.0,0.0,0.0,0.0,0.0,0.0,0.0,0.0,0.0,0.0,0.0,0.0,0.0,0.0,0.0,0.0,0.0,0.0,0.0,0.0,0.0,0.0,0.0,0.0,0.0,0.0,0.0,0.0,0.0,0.0,0.0,0.0,0.0,0.0,0.0,0.0,0.0,0.0,0.0,0.0,0.0,0.0,0.0,0.0,0.0,0.0,0.0,0.0,0.0,0.0,0.0,0.0,0.0,0.0,0.0,0.0,0.0,0.0,0.0,0.0,0.0,0.0,0.0,0.0,0.0,0.0,0.0,0.0,0.0,0.0,0.0,0.0,0.0,0.0,0.0,0.0,0.0,0.0,0.0,0.0,0.0,0.0,0.0,0.0,0.0,0.0,0.0,0.0,0.0,0.0,0.0,0.0,0.0,0.0,0.0,0.0,0.0,0.0,0.0,0.0,0.0,0.0,0.0,0.0,0.0,0.0,0.0,0.0,0.0,0.0,0.0,0.0,0.0,0.0,0.0,0.0,0.0,0.0,0.0,0.0,0.0,0.0,0.0,0.0,0.0,0.0,0.0,0.0,0.0,0.0,0.0,0.0,0.0,0.0,0.0,0.0,0.0,0.0,0.0,0.0,0.0,0.0,0.0,0.0,0.0,0.0,0.0,0.0,0.0,0.0,0.0,0.0,0.0,0.0,0.0,0.0,0.0,0.0,0.0,0.0,0.0,0.0,0.0,0.0,0.0,0.0,0.0,0.0,0.0,0.0,0.0,0.0,0.0,0.0,0.0,0.0,0.0,0.0,0.0,0.0,0.0,0.0,0.0,0.0,0.0,0.0,0.0,0.0,0.0,0.0,0.0,0.0,0.0,0.0,0.0,0.0,0.0,0.0,0.0,0.0,0.0,0.0,0.0,0.0,0.0,0.0,0.0,0.0,0.0,0.0,0.0,0.0,0.0,0.0,0.0,0.0,0.0,0.0,0.0,0.0,0.0,0.0,0.0,0.0,0.0,0.0,0.0,0.0,0.0,0.0,0.0,0.0,0.0,0.0,0.0,0.0,0.0,0.0,0.0,0.0,0.0,0.0,0.0,0.0,0.0,0.0,0.0,0.0,0.0,0.0,0.0,0.0,0.0,0.0,0.0,0.0,0.0,0.0,0.0,0.0,0.0,0.0,0.0,0.0,0.0,0.0,0.0,0.0,0.0,0.0,0.0,0.0,0.0,0.0,0.0,0.0,0.0,0.0,0.0,0.0,0.0,0.0,0.0,0.0,0.0,0.0,0.0,0.0,0.0,0.0,0.0,0.0,0.0,0.0,0.0,0.0,0.0,0.0,0.0,0.0,0.0,0.0,0.0,0.0,0.0,0.0,0.0,0.0,0.0,0.0,0.0,0.0,0.0,0.0,0.0,0.0,0.0,0.0,0.0,0.0,0.0,0.0,0.0,0.0,0.0,0.0,0.0,0.0,0.0,0.0,0.0,0.0,0.0,0.0,0.0,0.0,0.0,0.0,0.0,0.0,0.0,0.0,0.0,0.0,0.0,0.0,0.0,0.0,0.0,0.0,0.0,0.0,0.0,0.0,0.0,0.0,0.0,0.0,0.0,0.0,0.0,0.0,0.0,0.0,0.0,0.0,0.0,0.0,0.0,0.0,0.0,0.0,0.0,0.0,0.0,0.0,0.0,0.0,0.0,0.0,0.0,0.0,0.0,0.0,0.0,0.0,0.0,0.0,0.0,0.0,0.0,0.0,0.0,0.0,0.0,0.0,0.0,0.0,0.0,0.0,0.0,0.0,0.0,0.0,0.0,0.0,0.0,0.0,0.0,0.0,0.0,0.0,0.0,0.0,0.0,0.0,0.0,0.0,0.0,0.0,0.0,0.0,0.0,0.0,0.0,0.0,0.0,0.0,0.0,0.0,0.0,0.0,0.0,0.0,0.0,0.0,0.0,0.0,0.0,0.0,0.0,0.0,0.0,0.0,0.0,0.0,0.0,0.0,0.0,0.0,0.0,0.0,0.0,0.0,0.0,0.0,0.0,0.0,0.0,0.0,0.0,0.0,0.0,0.0,0.0,0.0,0.0,0.0,0.0,0.0,0.0,0.0,0.0,0.0,0.0,0.0,0.0,0.0,0.0,0.0,0.0,0.0,0.0,0.0,0.0,0.0,0.0,0.0,0.0,0.0,0.0,0.0,0.0,0.0,0.0,0.0,0.0,0.0,0.0,0.0,0.0,0.0,0.0,0.0,0.0,0.0,0.0,0.0,0.0,0.0,0.0,0.0,0.0,0.0,0.0,0.0,0.0,0.0,0.0,0.0,0.0,0.0,0.0,0.0,0.0,0.0,0.0,0.0,0.0,0.0,0.0,0.0,0.0,0.0,0.0,0.0,0.0,0.0,0.0,0.0,0.0,0.0,0.0,0.0,0.0,0.0,0.0,0.0,0.0,0.0,0.0,0.0,0.0,0.0,0.0,0.0,0.0,0.0,0.0,0.0,0.0,0.0,0.0,0.0,0.0,0.0,0.0,0.0,0.0,0.0,0.0,0.0,0.0,0.0,0.0,0.0,0.0,0.0,0.0,0.0,0.0,0.0,0.0,0.0,0.0,0.0,0.0,0.0,0.0,0.0,0.0,0.0,0.0,0.0,0.0,0.0,0.0,0.0,0.0,0.0,0.0,0.0,0.0,0.0,0.0,0.0,0.0,0.0,0.0,0.0,0.0,0.0,0.0,0.0,0.0,0.0,0.0,0.0,0.0,0.0,0.0,0.0,0.0,0.0,0.0,0.0,0.0,0.0,0.0,0.0,0.0,0.0,0.0,0.0,0.0,0.0,0.0,0.0,0.0,0.0,0.0,0.0,0.0,0.0,0.0,0.0,0.0,0.0,0.0,0.0,0.0,0.0,0.0,0.0,0.0,0.0,0.0,0.0,0.0,0.0,0.0,0.0,0.0,0.0,0.0,0.0,0.0,0.0,0.0,0.0,0.0,0.0,0.0,0.0,0.0,0.0,0.0,0.0,0.0,0.0,0.0,0.0,0.0,0.0,0.0,0.0,0.0,0.0,0.0,0.0,0.0,0.0,0.0,0.0,0.0,0.0,0.0,0.0,0.0,0.0,0.0,0.0,0.0,0.0,0.0,0.0,0.0,0.0,0.0,0.0,0.0,0.0,0.0,0.0,0.0,0.0,0.0,0.0,0.0,0.0,0.0,0.0,0.0,0.0,0.0,0.0,0.0,0.0,0.0,0.0,0.0,0.0,0.0,0.0,0.0,0.0,0.0,0.0,0.0,0.0,0.0,0.0,0.0,0.0,0.0,0.0,0.0,0.0,0.0,0.0,0.0,0.0,0.0,0.0,0.0,0.0,0.0,0.0,0.0,0.0,0.0,0.0,0.0,0.0,0.0,0.0,0.0,0.0,0.0,0.0,0.0,0.0,0.0,0.0,0.0,0.0,0.0,0.0,0.0,0.0,0.0,0.0,0.0,0.0,0.0,0.0,0.0,0.0,0.0,0.0,0.0,0.0,0.0,0.0,0.0,0.0,0.0,0.0,0.0,0.0,0.0,0.0,0.0,0.0,0.0,0.0,0.0,0.0,0.0,0.0,0.0,0.0,0.0,0.0,0.0,0.0,0.0,0.0,0.0,0.0,0.0,0.0,0.0,0.0,0.0,0.0,0.0,0.0,0.0,0.0,0.0,0.0,0.0,0.0,0.0,0.0,0.0,0.0,0.0,0.0,0.0,0.0,0.0,0.0,0.0,0.0,0.0,0.0,0.0,0.0,0.0,0.0,0.0,0.0,0.0,0.0,0.0,0.0,0.0,0.0,0.0,0.0,0.0,0.0,0.0,0.0,0.0,0.0,0.0,0.0,0.0,0.0,0.0,0.0,0.0,0.0,0.0,0.0,0.0,0.0,0.0,0.0,0.0,0.0,0.0,0.0,0.0,0.0,0.0,0.0,0.0,0.0,0.0,0.0,0.0,0.0,0.0,0.0,0.0,0.0,0.0,0.0,0.0,0.0,0.0,0.0,0.0,0.0,0.0,0.0,0.0,0.0,0.0,0.0,0.0,0.0,0.0,0.0,0.0,0.0,0.0,0.0,0.0,0.0,0.0,0.0,0.0,0.0,0.0,0.0,0.0,0.0,0.0,0.0,0.0,0.0,0.0,0.0,0.0,0.0,0.0,0.0,0.0,0.0,0.0,0.0,0.0,0.0,0.0,0.0,0.0,0.0,0.0,0.0,0.0,0.0,0.0,0.0,0.0,0.0,0.0,0.0,0.0,0.0,0.0,0.0,0.0,0.0,0.0,0.0,0.0,0.0,0.0,0.0,0.0,0.0,0.0,0.0,0.0,0.0,0.0,0.0,0.0,0.0,0.0,0.0,0.0,0.0,0.0,0.0,0.0,0.0,0.0,0.0,0.0,0.0,0.0,0.0,0.0,0.0,0.0,0.0,0.0,0.0,0.0,0.0,0.0,0.0,0.0,0.0,0.0,0.0,0.0,0.0,0.0,0.0,0.0,0.0,0.0,0.0,0.0,0.0,0.0,0.0,0.0,0.0,0.0,0.0,0.0,0.0,0.0,0.0,0.0,0.0,0.0,0.0,0.0,0.0,0.0,0.0,0.0,0.0,0.0,0.0,0.0,0.0,0.0,0.0,0.0,0.0,0.0,0.0,0.0,0.0,0.0,0.0,0.0,0.0,0.0,0.0,0.0,0.0,0.0,0.0,0.0,0.0,0.0,0.0,0.0,0.0,0.0,0.0,0.0,0.0,0.0,0.0,0.0,0.0,0.0,0.0,0.0,0.0,0.0,0.0,0.0,0.0,0.0,0.0,0.0,0.0,0.0,0.0,0.0,0.0,0.0,0.0,0.0,0.0,0.0,0.0,0.0,0.0,0.0,0.0,0.0,0.0,0.0,0.0,0.0,0.0,0.0,0.0,0.0,0.0,0.0,0.0,0.0,0.0,0.0,0.0,0.0,0.0,0.0,0.0,0.0,0.0,0.0,0.0,0.0,0.0,0.0,0.0,0.0,0.0,0.0,0.0,0.0,0.0,0.0,0.0,0.0,0.0,0.0,0.0,0.0,0.0,0.0,0.0,0.0,0.0,0.0,0.0,0.0,0.0,0.0,0.0,0.0,0.0,0.0,0.0,0.0,0.0,0.0,0.0,0.0,0.0,0.0,0.0,0.0,0.0,0.0,0.0,0.0,0.0,0.0,0.0,0.0,0.0,0.0,0.0,0.0,0.0,0.0,0.0,0.0,0.0,0.0,0.0,0.0,0.0,0.0,0.0,0.0,0.0,0.0,0.0,0.0,0.0,0.0,0.0,0.0,0.0,0.0,0.0,0.0,0.0,0.0,0.0,0.0,0.0,0.0,0.0,0.0,0.0,0.0,0.0,0.0,0.0,0.0,0.0,0.0,0.0,0.0,0.0,0.0,0.0,0.0,0.0,0.0,0.0,0.0,0.0,0.0,0.0,0.0,0.0,0.0,0.0,0.0,0.0,0.0,0.0,0.0,0.0,0.0,0.0,0.0,0.0,0.0,0.0,0.0,0.0,0.0,0.0,0.0,0.0,0.0,0.0,0.0,0.0,0.0,0.0,0.0,0.0,0.0,0.0,0.0,0.0,0.0,0.0,0.0,0.0,0.0,0.0,0.0,0.0,0.0,0.0,0.0,0.0,0.0,0.0,0.0,0.0,0.0,0.0,0.0,0.0,0.0,0.0,0.0,0.0,0.0,0.0,0.0,0.0,0.0,0.0,0.0,0.0,0.0,0.0,0.0,0.0,0.0,0.0,0.0,0.0,0.0,0.0,0.0,0.0,0.0,0.0,0.0,0.0,0.0,0.0,0.0,0.0,0.0,0.0,0.0,0.0,0.0,0.0,0.0,0.0,0.0,0.0,0.0,0.0,0.0,0.0,0.0,0.0,0.0,0.0,0.0,0.0,0.0,0.0,0.0,0.0,0.0,0.0,0.0,0.0,0.0,0.0,0.0,0.0,0.0,0.0,0.0,0.0,0.0,0.0,0.0,0.0,0.0,0.0,0.0,0.0,0.0,0.0,0.0,0.0,0.0,0.0,0.0,0.0,0.0,0.0,0.0,0.0,0.0,0.0,0.0,0.9085,0.0,0.0,0.0,0.0,0.0,0.0,0.0,0.0,0.0,0.0,0.0,0.0,0.0,0.0,0.0,0.0,0.0,0.0,0.0,0.0,0.0,0.0,0.0,0.0,1.2282,1.2985,1.3272,1.3729,1.4138,1.4371,0.0,0.0,0.0,0.0,0.0,0.0,0.0,1.4524,1.4895,1.5246,1.5758,1.6377,1.5572,1.4467,1.311,0.0,0.0,0.0,0.0,0.0,0.0,0.0,0.0,0.0,0.0,0.0,0.0,0.0,0.0,0.0,0.0,0.0,0.0,0.0,0.0,0.0,0.0,0.0,0.0,0.0,0.0,0.0,0.0,0.0,0.0,0.0,0.0,0.0,0.0,0.0,0.0,0.0,0.0,0.0,0.0,0.0,0.0,0.0,0.0,0.0,0.0,0.0,0.0,0.0,0.0,0.0,0.0,0.0,0.0,0.0,0.0,0.0,0.0,0.0,0.0,0.0,0.0,0.0,0.0,0.0,0.0,0.0,0.0,0.0,0.0,0.0,1.0279,0.0,0.0,0.0,0.0,0.0,0.0,0.0,0.0,0.0,0.0,0.0,0.0,0.0,0.0,0.0,0.0,0.0,0.0,0.0,0.0,0.0,1.1643,1.1844,1.2812,1.3568,1.3828,1.4523,1.4984,1.5028,1.5446,0.0,0.0,0.0,1.4956,1.4546,1.4874,1.5478,1.6427,1.6949,1.7736,1.8798,1.9278,1.8215,1.5758,1.4874,0.0,0.0,0.0,0.0,0.0,0.0,0.0,0.0,0.0,0.0,0.0,0.0,0.0,0.0,0.0,0.0,0.0,0.0,0.0,0.0,0.0,0.0,0.0,0.0,0.0,0.0,0.0,0.0,0.0,0.0,0.0,0.0,0.0,0.0,0.0,0.0,0.0,0.0,0.0,0.0,0.0,0.0,0.0,0.0,0.0,0.0,0.0,0.0,0.0,0.0,0.0,0.0,0.0,0.0,0.0,0.0,0.0,0.0,0.0,0.0,0.0,0.0,0.0,1.3749,1.41,1.4561,1.457,1.4782,1.5064,1.3355,1.2472,1.2158,0.0,0.0,0.0,0.0,0.0,0.0,0.0,0.0,0.0,0.0,0.0,0.0,0.0,0.0,0.0,0.0,0.0,0.0,0.0,0.0,1.1785,1.2803,1.3159,1.3813,1.503,1.495,1.5126,1.587,1.5782,1.5584,1.5332,1.5612,1.5555,1.5114,1.5624,1.6389,1.7339,1.9319,2.0735,2.159,2.187,2.1485,2.0402,1.8181,1.6957,1.6457,0.0,0.0,0.0,0.0,0.0,0.0,0.0,0.0,0.0,0.0,0.0,0.0,0.0,0.0,0.0,0.0,0.0,0.0,0.0,0.0,0.0,0.0,0.0,0.0,0.0,0.0,0.0,0.0,0.0,0.0,0.0,0.0,0.0,0.0,0.0,0.0,0.0,0.0,0.0,0.0,0.0,0.9721,1.0387,0.0,0.0,0.0,0.0,0.0,0.0,0.0,0.0,0.0,0.0,0.0,0.0,0.0,0.0,1.4322,1.4709,1.4835,1.478,1.5882,1.6344,1.6304,1.673,1.6936,1.6938,1.675,0.0,1.3912,1.2955,0.0,0.0,0.0,0.0,0.0,0.0,0.0,0.0,0.0,0.0,0.0,0.0,0.0,0.0,0.0,0.0,0.0,0.0,0.0,0.0,0.0,1.4258,1.5216,1.6044,1.6723,1.701,1.6848,1.684,1.6565,1.592,1.6246,1.6293,1.609,1.7205,1.8529,2.0068,2.183,2.2899,2.3232,2.362,2.3574,2.3079,2.217,2.0548,1.8446,1.7083,0.0,0.0,0.0,0.0,0.0,0.0,0.0,0.0,0.0,0.0,0.0,0.0,0.0,0.0,0.0,0.0,0.0,0.0,0.0,0.0,0.0,0.0,0.0,0.0,0.0,0.0,0.0,0.0,0.0,0.0,0.0,0.0,0.0,0.0,0.0,0.0,0.0,0.0,0.0,0.9885,1.1016,1.1179,1.1391,1.1152,0.0,0.0,0.0,0.0,0.0,0.0,0.0,0.0,0.0,1.495,1.5519,1.6019,1.648,1.7055,1.7218,1.695,1.7548,1.7857,1.7884,1.8152,1.8323,1.8448,1.844,1.7875,1.6786,1.5246,1.4071,1.3126,0.0,0.0,0.0,0.0,0.0,1.2955,0.0,0.0,0.0,0.0,0.0,0.0,0.0,0.0,0.0,0.0,0.0,0.0,1.4096,1.5497,1.6605,1.7324,1.8365,1.8734,1.8066,1.7883,1.7464,1.6832,1.6769,1.6839,1.7083,1.8967,2.0917,2.2858,2.4142,2.4815,2.4934,2.5364,2.5471,2.5305,2.5431,2.3843,2.0851,1.941,1.8068,1.6739,0.0,0.0,0.0,0.0,0.0,0.0,0.0,0.0,0.0,0.0,0.0,0.0,0.0,0.0,0.0,0.0,0.0,0.0,0.0,0.0,0.0,0.0,0.0,0.0,0.0,0.0,0.0,0.0,0.0,0.0,0.0,0.0,0.0,0.0,0.0,0.0,0.0,1.131,1.2206,1.2237,1.3006,1.2999,0.0,0.0,0.0,0.0,0.0,0.0,1.4103,1.4938,1.5807,1.6762,1.7621,1.8195,1.8397,1.875,1.8786,1.8591,1.8605,1.8728,1.9016,1.9083,1.9311,1.951,1.951,1.9366,1.9007,1.7261,1.5942,1.5064,1.4767,1.4413,1.4181,1.4867,1.5031,1.5013,0.0,0.0,0.0,0.0,0.0,0.0,0.0,0.0,0.0,0.0,0.0,1.3844,1.593,1.6634,1.756,1.9059,1.9255,1.9414,1.9766,1.8434,1.7784,1.8194,1.7116,1.6929,1.7825,2.0725,2.3135,2.4942,2.602,2.6794,2.7221,2.7512,2.7591,2.7439,2.7249,2.6238,2.4474,2.1992,2.0535,1.9605,1.6455,0.0,0.0,0.0,0.0,0.0,0.0,0.0,0.0,0.0,0.0,0.0,0.0,0.0,0.0,0.0,0.0,0.0,0.0,0.0,0.0,0.0,0.0,0.0,0.0,0.0,0.0,0.0,0.0,0.0,0.0,0.0,0.0,0.0,0.0,0.0,0.0,0.0,0.0,1.4338,1.4864,0.0,0.0,0.0,0.0,1.488,1.564,1.6253,1.6697,1.7018,1.7614,1.8642,1.8766,1.9137,1.9685,1.9181,1.8878,1.8892,1.8857,1.9067,1.936,1.964,1.9891,2.0154,2.0154,1.9975,1.9656,1.841,1.7633,1.7189,1.6607,1.6342,1.6316,1.6653,1.6785,1.6829,0.0,0.0,0.0,0.0,0.0,1.085,1.0852,1.1183,1.1634,1.2202,1.3618,1.5102,1.6535,1.8121,1.9456,2.043,2.1214,2.1431,2.0997,2.0166,1.9763,1.9981,1.9104,1.9596,2.1727,2.3469,2.4986,2.6269,2.708,2.7583,2.7723,2.7774,2.7874,2.8012,2.7918,2.7475,2.6666,2.4321,2.2754,2.1653,1.879,1.6541,0.0,0.0,0.0,0.0,0.0,0.0,0.0,0.0,0.0,0.0,0.0,0.0,0.0,0.0,0.0,0.0,0.0,0.0,0.0,0.0,0.0,0.0,0.0,0.0,0.0,0.0,0.0,0.0,0.0,0.0,0.0,0.0,0.0,0.0,0.0,0.0,0.0,1.5507,1.6317,0.0,0.0,1.5812,1.6221,1.6477,1.6966,1.7533,1.8106,1.8203,1.8628,1.9441,1.9619,1.9943,2.0378,2.0357,2.0288,2.0047,2.0046,2.0103,2.0217,2.0331,2.0558,2.0867,2.0867,2.081,2.064,1.9978,1.928,1.8611,1.8383,1.8169,1.7911,1.7823,1.7911,1.8116,0.0,0.0,0.0,0.0,0.0,1.0966,1.0968,1.1426,1.2005,1.2722,1.4476,1.6232,1.7743,1.9533,2.0972,2.1826,2.2703,2.2946,2.2389,2.1664,2.125,2.1288,2.0864,2.1824,2.4423,2.537,2.6418,2.7574,2.8077,2.8369,2.8472,2.8318,2.84,2.8635,2.8513,2.8339,2.8128,2.6362,2.4877,2.3474,2.1011,1.9144,1.7513,0.0,0.0,0.0,0.0,0.0,0.0,0.0,0.0,0.0,0.0,0.0,0.0,0.0,0.0,0.0,0.0,0.0,0.0,0.0,0.0,0.0,0.0,0.0,0.0,0.0,0.0,0.0,0.0,0.0,0.0,0.0,0.0,0.0,0.0,0.0,1.6556,1.673,1.769,1.7973,1.7026,1.7551,1.7978,1.8116,1.8404,1.8751,1.9133,1.9008,1.9257,1.9901,2.012,2.0442,2.0881,2.0987,2.0902,2.0716,2.0601,2.0601,2.0716,2.0716,2.0902,2.1203,2.1203,2.1203,2.1189,2.0969,2.0521,1.9935,1.9716,1.9403,1.9096,1.8877,1.8862,1.895,0.0,0.0,0.0,0.0,0.0,1.1101,1.1082,1.1675,1.2597,1.4002,1.5389,1.7185,1.9626,2.0869,2.2005,2.3138,2.3599,2.3797,2.3797,2.2757,2.2126,2.2146,2.2288,2.3391,2.5603,2.6283,2.7348,2.8921,2.9088,2.929,2.9606,2.929,2.929,2.9533,2.9125,2.887,2.886,2.821,2.6904,2.5127,2.3186,2.1889,2.0891,0.0,0.0,0.0,0.0,0.0,0.0,0.0,0.0,0.0,0.0,0.0,0.0,0.0,0.0,0.0,0.0,0.0,0.0,0.0,0.0,0.0,0.0,0.0,0.0,0.0,0.0,0.0,0.0,0.0,0.0,0.0,0.0,0.0,1.5355,1.6553,1.7486,1.7987,1.8933,1.9239,1.8345,1.9454,2.0059,1.9823,2.0059,2.0059,1.9808,1.9447,1.9564,2.0139,2.0168,2.0475,2.1174,2.0873,2.0687,2.0687,2.0415,2.0415,2.0702,2.0702,2.0888,2.1203,2.1203,2.1203,2.1203,2.1203,2.1203,2.1145,2.0446,2.0062,1.9852,1.9823,1.9603,1.9324,0.0,0.0,0.0,1.0028,1.061,1.1063,1.0968,1.1715,1.2671,1.3638,1.5821,1.7975,1.9849,2.1494,2.2757,2.3579,2.391,2.412,2.412,2.3002,2.2567,2.2897,2.4815,2.6202,2.6822,2.7963,2.8736,2.9209,2.9558,2.9711,2.9606,2.9501,2.9396,2.9237,2.9116,2.8999,2.8901,2.8686,2.8263,2.7441,2.5292,2.3681,2.2439,0.0,0.0,0.0,0.0,0.0,0.0,0.0,0.0,0.0,0.0,0.0,0.0,0.0,0.0,0.0,0.0,0.0,0.0,0.0,0.0,0.0,0.0,0.0,0.0,0.0,0.0,0.0,0.0,0.0,0.0,0.0,0.0,1.5257,1.5654,1.6869,1.8067,1.8988,1.9216,1.9361,1.9558,1.9752,1.9821,1.9793,1.9799,1.9821,1.9808,1.9447,1.9462,1.9886,1.9886,2.0091,2.0446,2.039,2.0335,2.0335,2.0279,2.0395,2.0683,2.0683,2.087,2.1203,2.1203,2.1203,2.1203,2.1203,2.1203,2.1174,2.075,2.053,2.0398,2.0199,1.9866,1.9583,0.0,0.0,0.0,1.0321,1.073,1.1063,1.1006,1.1756,1.2736,1.3837,1.6146,1.8326,2.0047,2.1709,2.29,2.349,2.3946,2.4093,2.3781,2.3495,2.3805,2.4883,2.6459,2.7579,2.816,2.8897,2.9394,2.9601,3.0056,3.0231,3.0052,2.9946,2.9766,2.9553,2.9371,2.9254,2.9166,2.9085,2.9013,2.8752,2.7008,2.5647,2.4426,2.2873,2.1511,2.0262,1.9021,1.8209,1.7563,1.6628,0.0,0.0,0.0,0.0,0.0,0.0,0.0,0.0,0.0,0.0,0.0,0.0,0.0,0.0,0.0,0.0,0.0,0.0,0.0,0.0,0.0,0.0,0.0,0.0,1.5109,1.5865,1.6368,1.7514,1.8691,1.9775,1.9698,1.978,2.0254,2.0069,1.9915,1.9945,1.9826,1.9761,1.9808,1.9447,1.9433,1.9808,1.9823,1.9916,2.0183,2.0183,2.0183,2.0183,2.0183,2.0285,2.053,2.0662,2.0823,0.0,2.1145,2.1203,2.1203,2.1203,2.1203,0.0,0.0,0.0,0.0,0.0,1.9799,1.9687,0.0,0.0,0.0,1.0572,1.0827,1.1101,1.1101,1.1797,1.284,1.431,1.6327,1.8308,2.0106,2.1549,2.2542,2.306,2.37,2.3866,2.3431,2.4282,2.5571,2.7259,2.7529,2.8146,2.9321,2.9404,2.9632,2.9994,3.0461,3.0669,3.0562,3.0306,3.0125,3.0072,2.9717,2.9606,2.9586,2.9384,2.9301,2.9228,2.8359,2.7427,2.6438,2.478,2.3535,2.2542,2.1542,2.0447,1.9362,1.8609,0.0,0.0,0.0,0.0,0.0,0.0,0.0,0.0,0.0,0.0,0.0,0.0,0.0,0.0,0.0,0.0,0.0,0.0,0.0,0.0,0.0,0.0,0.0,0.0,1.5216,1.6158,1.7191,1.8192,1.9209,2.021,2.0116,2.0147,2.0498,2.0267,2.0081,2.0081,1.9872,1.9764,1.9764,0.0,0.0,0.0,0.0,1.9842,2.012,2.0081,2.0081,2.0081,2.0081,2.011,2.0183,2.053,2.0706,2.0794,2.1086,2.1203,2.1203,2.1261,2.1216,2.1128,2.0823,2.0501,2.0106,1.9535,1.9509,1.9739,0.0,0.0,1.1172,1.1068,1.1132,1.1176,1.1176,1.1858,1.2884,1.431,1.6036,1.7833,1.972,2.0783,2.1714,2.2563,2.31,2.3721,2.4514,2.5948,2.6971,2.7331,2.8767,2.9576,2.9647,3.023,3.0328,2.9994,3.0339,3.0223,2.9802,2.996,2.9802,2.9306,2.9489,2.9606,2.9606,2.9577,2.9435,2.9249,2.8711,2.7717,2.6542,2.5996,2.4888,2.3577,2.3137,2.2494,2.1718,2.0872,1.9712,1.8422,1.7105,1.5459,0.0,0.0,0.0,0.0,0.0,0.0,0.0,0.0,0.0,0.0,0.0,0.0,0.0,0.0,0.0,0.0,0.0,0.0,0.0,1.5317,1.6015,1.6794,1.7572,1.8335,1.9113,1.9925,1.9592,1.9537,2.0117,1.9784,1.9462,1.9462,1.9403,1.9426,1.9426,1.9368,0.0,1.9374,1.9426,1.9403,1.9462,1.9462,1.9462,1.9462,0.0,0.0,2.0183,2.0241,2.0618,2.1115,2.1174,2.1203,2.1203,2.1489,2.129,2.0773,2.0703,2.0479,2.0149,1.9817,1.9859,1.9983,0.0,1.1111,1.1174,1.0648,1.0914,1.1129,1.0896,1.1579,1.2552,1.3663,1.5321,1.69,1.8257,1.9417,2.0286,2.0778,2.1631,2.3035,2.5081,2.6343,2.7394,2.8292,2.9446,3.0004,2.9849,3.0182,3.0256,2.9994,3.038,3.0378,3.0166,3.0293,3.0187,2.9901,2.9835,2.9784,2.9764,2.9538,2.9415,2.9228,2.8396,2.7482,2.6563,2.6313,2.5347,2.422,2.4179,2.3534,2.2652,2.2188,2.1022,1.9593,1.878,1.7181,1.54,0.0,0.0,0.0,0.0,0.0,0.0,0.0,0.0,0.0,0.0,0.0,0.0,0.0,0.0,1.4343,1.4577,0.0,1.5486,1.6102,1.6651,1.7254,1.7938,1.8653,1.9288,1.9845,1.9592,1.9552,2.004,1.962,1.9272,1.9272,1.9272,1.9272,1.9272,1.9272,1.9272,1.9272,1.9272,1.9272,1.9272,1.9272,1.936,1.9573,1.9573,1.9769,2.0183,2.0343,2.0662,2.0969,2.1301,2.1432,2.1432,2.1618,2.132,2.0722,2.0718,2.0332,1.9769,1.9769,1.9979,2.033,0.0,0.0,1.0969,1.0118,1.0598,1.0993,1.0627,1.1335,1.2233,1.3058,1.4562,1.5862,1.6713,1.7874,1.8683,1.8953,2.0419,2.2488,2.5166,2.6313,2.7592,2.9256,2.9777,3.0026,2.9953,3.0005,2.9974,2.987,3.0378,3.0606,3.0553,3.0553,3.0553,3.0532,3.0077,2.987,2.9829,2.9373,2.9125,2.8989,2.798,2.7165,2.651,2.6083,2.5347,2.4529,2.4681,2.3909,2.2716,2.2635,2.1487,2.0048,1.9535,1.8331,1.6818,1.5613,1.4355,0.0,0.0,0.0,0.0,0.0,0.0,0.0,0.0,0.0,1.4416,1.5601,1.5749,1.5752,1.5898,1.607,1.6331,1.6746,1.7207,1.7699,1.8319,1.9018,1.959,1.9875,1.9729,1.9735,2.0055,1.962,1.9272,1.9272,1.9272,1.9272,1.9272,1.9272,1.9272,1.9272,1.9272,1.9301,1.9426,1.9426,1.9535,1.9857,1.9857,2.0018,2.0285,2.0603,2.075,2.095,2.1499,2.1831,2.1888,2.1774,2.1466,2.0944,2.0888,2.0372,1.9672,1.9829,2.0242,2.0681,0.0,0.0,0.0,1.0195,1.0546,1.0821,1.0756,1.1467,1.2314,1.3258,1.4116,1.5002,1.5917,1.6438,1.719,1.8393,2.0772,2.2861,2.4262,2.6565,2.8285,2.9345,2.9854,2.9986,2.971,2.9986,2.9833,2.9373,3.0089,3.0318,3.0077,3.0077,3.0077,3.0056,2.958,2.9373,2.9352,2.8897,2.8562,2.8342,2.7633,2.6931,2.6235,2.5354,2.4827,2.4488,2.4347,2.3431,2.2206,2.1583,2.0735,1.9785,1.8841,1.849,1.8176,1.6552,0.0,1.5242,1.5023,1.4714,0.0,1.5891,1.5456,1.5572,0.0,0.0,1.6609,1.7796,1.7209,1.6505,1.6641,1.6781,1.6967,1.7201,1.7763,1.8319,1.8716,1.9368,1.9891,2.0006,1.9783,1.9735,2.0055,1.962,1.9272,1.9272,1.9272,1.9272,1.9272,1.9272,1.9272,1.9272,1.9272,1.947,1.9764,1.9764,1.9872,2.0179,2.0179,2.0355,2.0676,2.0706,2.105,2.1616,2.193,2.223,2.2456,2.2173,2.203,2.189,2.1612,2.1243,2.0879,2.0662,2.0801,2.1102,0.0,0.0,0.0,0.9619,1.026,1.0721,1.0481,1.1166,1.2047,1.2979,1.3557,1.423,1.5216,1.5696,1.6356,1.7387,1.9474,2.1485,2.3234,2.5586,2.7415,2.8467,2.922,2.9566,2.9444,2.9817,2.9912,2.9704,2.9995,3.0099,2.9994,2.9994,2.9994,2.9973,2.9518,2.9311,2.9249,2.8524,2.7994,2.7681,2.6931,2.6264,2.5576,2.4787,2.4179,2.3701,2.3468,2.248,0.0,2.0959,2.0044,1.9035,1.8954,1.854,1.7961,1.7191,1.6751,0.0,1.6057,0.0,0.0,0.0,1.621,1.6472,1.8348,1.7974,1.7446,1.8245,1.7904,1.7491,1.7555,1.7492,1.7547,0.0,1.8287,1.864,1.8832,1.9491,1.9978,1.9984,1.9918,1.9882,1.9864,1.9532,1.9272,1.9272,1.9272,1.9272,1.9272,1.9272,1.9272,1.9272,1.9514,1.9676,1.9823,1.9945,2.0194,2.046,2.046,2.0691,2.1013,2.1183,2.1654,2.223,2.2343,2.2456,2.257,2.2456,2.2266,2.2071,2.1959,2.1811,2.1643,2.1355,2.1449,2.1728,0.0,0.0,0.0,0.9152,0.9889,1.046,1.027,1.1005,1.1875,1.2687,1.3065,1.3647,1.4596,1.5135,1.5687,1.6415,1.8208,2.0113,2.2117,2.4409,2.6208,2.7398,2.8354,2.8782,2.8731,2.9187,2.9415,2.9415,2.9559,2.9622,2.9622,2.9622,2.9622,2.9601,2.9125,2.8918,2.8856,2.7945,2.7413,2.7134,2.6243,2.5618,2.501,2.4096,2.3283,2.2623,2.2387,2.1453,2.0208,1.9828,1.8978,1.8112,1.824,1.7996,1.7651,1.7524,1.7705,1.7769,1.7009,0.0,0.0,1.6793,1.68,1.7132,1.798,1.8083,1.8062,1.8396,1.8304,1.8213,1.8213,1.8113,1.8176,1.8541,1.8845,1.9099,1.9286,1.9722,2.0031,2.0124,2.0205,2.0086,1.9828,1.962,1.9532,1.9532,1.9532,1.948,1.9428,1.9428,1.942,1.9456,1.9691,1.9896,2.0033,2.0252,2.053,2.0852,2.0852,2.104,2.1318,2.1774,2.2173,2.257,2.2683,2.274,2.274,2.274,2.257,2.2343,2.2343,2.2343,2.2338,2.2064,2.2088,2.2307,0.0,0.0,0.0,0.0,0.9491,0.9935,1.0233,1.114,1.1949,1.2441,1.2749,1.326,1.4147,1.4642,1.5114,1.5584,1.7342,1.919,2.0921,2.3197,2.4978,2.619,2.7154,2.7562,2.7372,2.7759,2.7937,2.7937,2.8442,2.8649,2.8649,2.8649,2.8649,2.8628,2.8173,2.7917,2.7903,2.6993,2.6806,2.6907,2.5716,2.5095,2.4724,2.316,2.1963,2.1176,2.1155,2.0468,1.9294,1.7873,1.736,1.7148,1.6052,1.6527,0.0,1.7509,1.8595,1.9546,0.0,0.0,1.8497,1.7908,1.7723,1.7816,1.8435,1.8701,1.8743,1.864,1.8566,1.8473,1.8413,1.8588,1.8907,1.9288,1.9429,1.9662,2.0255,2.0134,2.0124,2.0467,2.0514,2.0359,0.0,2.0086,2.0086,2.0086,2.0086,1.9983,1.9672,1.9687,1.9732,1.9793,1.9808,2.0062,2.0691,2.0706,2.0867,2.1189,2.1189,2.1375,2.1732,2.2286,2.257,2.2626,2.2853,2.3022,2.3022,2.3022,2.2965,2.2965,2.2965,2.2965,2.2965,2.2934,2.2821,2.2611,0.0,0.0,0.0,0.0,0.0,0.988,0.9958,1.0781,1.1827,1.306,1.382,0.0,0.0,0.0,0.0,0.0,1.6594,1.7999,1.9771,2.1675,2.3236,2.4305,2.5855,2.6601,2.6397,2.7096,2.7489,2.7489,2.7634,2.7717,2.7717,2.7717,2.7717,2.7696,2.7241,2.7034,2.6993,2.6372,2.5816,2.53,2.4902,2.4365,2.368,2.283,2.1735,2.0498,0.0,1.8504,1.7549,1.7313,1.6631,1.595,1.6239,1.6466,1.6826,1.7747,1.8246,1.8472,0.0,0.0,1.8359,1.7854,1.8012,1.8345,1.8447,1.8648,1.8741,1.8522,1.846,1.8496,1.8743,1.8962,1.9124,1.9304,1.9747,2.0059,1.9884,2.0152,2.0389,2.0514,2.0514,0.0,0.0,0.0,0.0,2.0086,2.0086,1.9983,1.9724,1.9672,1.9732,1.9808,1.9974,2.0281,2.072,2.094,2.1215,2.1561,2.1717,2.1945,2.2286,2.2513,2.2683,2.2853,2.2965,2.3022,2.3022,2.3022,2.3022,2.3022,2.3022,2.3022,2.3022,2.3022,2.3078,2.3191,0.0,0.0,0.0,0.0,0.0,0.0,0.0,0.0,0.0,0.0,0.0,0.0,0.0,0.0,0.0,0.0,0.0,1.7031,1.8846,2.0129,2.1417,2.2743,2.4004,2.4767,2.4975,2.5474,2.5889,2.6177,2.6222,2.626,2.6289,2.6472,2.6426,2.6268,2.6069,2.5924,2.5813,2.5357,2.484,2.4281,2.3908,2.3307,2.2475,2.1794,2.0695,0.0,1.8203,1.7114,1.6212,1.6206,1.5822,1.5508,1.6177,1.6772,1.7345,1.8026,1.8336,1.8485,0.0,1.8579,1.8481,1.8009,1.8279,1.8642,1.8536,1.8689,1.8708,1.8338,1.8303,1.8377,1.851,1.8872,1.9263,1.9524,2.0294,2.0667,2.0253,2.0585,2.0809,2.0684,2.0617,0.0,0.0,0.0,0.0,2.0395,2.0395,2.0292,1.9998,2.0,2.0054,2.0077,2.0292,2.0518,2.0896,2.1215,2.1546,2.1831,2.2116,2.24,2.257,2.2683,2.2853,2.3022,2.3022,2.3022,2.3022,2.3022,2.3022,2.3022,2.3022,2.3022,2.3022,2.3022,2.3191,2.3472,0.0,0.0,0.0,0.0,0.0,0.0,0.0,0.0,0.0,0.0,0.0,0.0,0.0,0.0,0.0,0.0,0.0,0.0,1.8159,1.8615,1.962,2.1444,2.1718,2.2247,2.3152,2.3041,2.329,2.4032,2.4238,2.4346,2.4405,2.4787,2.4745,2.4405,2.4575,2.4575,2.4364,2.3971,2.3764,2.366,2.2768,2.1953,2.1204,2.0163,1.901,1.78,1.7211,1.635,1.5341,1.4787,1.5175,1.592,1.5969,1.7389,1.8936,1.8358,1.8822,1.9416,1.8632,1.8644,1.8797,1.8322,1.8523,1.8792,1.8758,1.8741,1.8608,1.807,1.805,1.8003,0.0,0.0,1.9261,1.9912,2.0798,2.1362,2.1232,2.1318,2.131,0.0,0.0,0.0,0.0,0.0,0.0,2.0925,0.0,2.0771,2.0514,2.0564,2.0636,2.059,2.0711,2.0881,2.1203,2.1546,2.1888,2.2116,2.2456,2.2626,2.2626,2.2909,2.3022,2.3022,2.3022,2.3022,2.3022,2.3022,2.3022,2.3022,2.3022,2.3022,2.3022,2.3022,2.3247,2.3528,0.0,0.0,0.0,0.0,0.0,0.0,0.0,0.0,0.0,0.0,0.0,0.0,0.0,0.0,0.0,0.0,0.0,0.0,1.6841,1.7446,1.8262,1.9344,2.0343,2.1145,2.1711,2.2039,2.251,2.3225,2.311,2.3058,2.3087,2.3048,2.297,2.2853,2.2892,2.2892,2.2832,2.237,2.197,2.1592,2.1039,2.0449,1.997,1.9682,1.8701,1.7441,1.7167,1.6115,1.505,0.0,0.0,0.0,0.0,1.8995,1.9633,1.9301,1.9273,1.9253,1.8987,1.8871,1.8769,1.8453,1.8579,1.8708,1.8423,1.8279,1.8063,1.7706,1.7282,1.696,0.0,0.0,0.0,1.8604,1.9766,0.0,2.0342,2.0556,0.0,2.0543,0.0,2.0925,2.0925,2.0925,0.0,0.0,2.0925,2.0771,2.0514,2.0773,2.0796,2.059,2.1098,2.1444,2.1546,2.2116,2.24,2.2456,2.274,2.2909,2.2909,2.2965,2.3022,2.3022,2.3022,2.3022,2.3022,2.3022,2.3022,2.3022,2.3022,2.3022,2.3022,2.3304,2.3528,2.3809,0.0,0.0,0.0,0.0,0.0,0.0,0.0,0.0,0.0,0.0,0.0,0.0,0.0,0.0,0.0,0.0,0.0,0.0,0.0,1.6763,1.7506,1.8681,1.9061,1.9625,2.0402,2.0325,2.0542,2.102,2.1133,2.1115,2.0906,2.0976,2.0906,2.0765,2.0623,2.0538,2.0469,2.0406,2.0215,0.0,0.0,1.937,1.8966,1.8499,1.7654,1.675,1.6608,0.0,0.0,0.0,0.0,2.0043,2.0233,2.0353,2.0342,1.9983,0.0,1.9309,1.9196,1.9169,1.908,1.8679,1.8775,1.8812,1.8228,1.7808,1.7398,1.7076,1.6522,0.0,0.0,0.0,0.0,0.0,0.0,0.0,2.0226,2.0404,2.0534,0.0,2.0575,0.0,2.0909,2.0925,2.0925,0.0,2.0925,2.0885,2.0888,2.1096,2.1225,2.1197,2.1587,2.1918,2.2059,2.24,2.2683,2.2796,2.2909,2.3022,2.3022,2.3022,2.3022,2.3022,0.0,2.3022,2.3022,2.3022,2.3022,2.3022,2.3022,2.3078,2.3247,2.3416,2.3753,2.4144,0.0,0.0,0.0,0.0,0.0,0.0,0.0,0.0,0.0,0.0,1.4531,0.0,0.0,0.0,0.0,0.0,0.0,0.0,0.0,0.0,1.7133,1.8616,1.8041,1.8182,1.9281,1.8635,1.8423,1.8698,1.9144,1.9206,1.8828,1.9153,1.9143,1.8775,1.8536,1.8334,1.8202,1.8542,1.869,1.869,1.8679,1.8526,1.8175,0.0,0.0,0.0,0.0,0.0,0.0,0.0,2.0624,2.0945,2.1518,2.1564,2.1277,2.0551,2.0004,1.9618,1.9359,1.9477,1.9509,1.8919,1.8879,1.8836,1.8117,1.7346,1.667,1.6316,0.0,1.5246,1.4939,1.6419,1.7677,1.77,0.0,2.0785,2.0248,2.0443,2.0506,2.042,2.0369,2.0527,2.0893,2.0925,2.0925,2.0925,2.0972,2.1079,2.1381,2.1547,2.1799,2.2102,2.2117,2.2343,2.2626,2.2626,2.2796,2.3022,2.3022,2.3022,2.3022,2.3022,2.3022,2.3022,0.0,0.0,2.3022,2.3022,2.3022,2.3022,2.3078,2.3247,2.3528,2.3585,2.3921,2.444,0.0,0.0,0.0,0.0,0.0,0.0,0.0,0.0,0.0,0.0,1.5332,1.4805,0.0,0.0,0.0,0.0,0.0,0.0,0.0,0.0,0.0,1.7497,1.7625,1.8047,1.8805,1.8679,1.8831,0.0,0.0,1.9132,1.8959,1.8868,1.8777,1.8716,1.8659,1.8637,1.8585,1.8281,1.8121,1.8099,1.7738,1.7612,1.7616,1.7344,0.0,0.0,0.0,0.0,0.0,0.0,2.2252,2.4016,2.3095,2.2953,2.2876,2.1329,2.0668,2.04,1.9923,1.9603,1.9333,1.8919,1.8381,1.7931,1.7847,1.6971,0.0,0.0,0.0,1.4326,1.3933,1.4985,0.0,1.6596,0.0,0.0,0.0,0.0,1.9682,0.0,0.0,0.0,0.0,0.0,0.0,0.0,0.0,0.0,2.1396,2.1999,2.2506,2.2798,2.2652,2.2626,2.2909,2.2909,2.2965,2.3022,2.3022,2.3022,2.3022,2.3022,2.3022,2.3022,0.0,0.0,2.3022,2.3022,2.3022,2.3022,2.3304,2.3472,2.3585,2.4033,2.4329,2.444,0.0,0.0,0.0,0.0,0.0,0.0,0.0,1.5449,1.6219,1.7606,1.7344,1.694,1.6619,1.639,1.623,0.0,0.0,0.0,0.0,0.0,0.0,0.0,0.0,0.0,0.0,0.0,0.0,0.0,0.0,0.0,0.0,0.0,0.0,0.0,0.0,0.0,1.744,1.7484,1.7451,1.7368,0.0,0.0,0.0,0.0,0.0,0.0,0.0,0.0,0.0,0.0,2.1511,2.4036,2.3553,2.3252,2.2797,2.1417,2.0772,2.0393,1.9917,1.9703,1.938,1.8558,1.8182,1.7871,1.7265,0.0,0.0,0.0,1.4321,1.3481,1.3195,0.0,0.0,0.0,0.0,0.0,0.0,0.0,0.0,0.0,0.0,0.0,0.0,0.0,0.0,0.0,0.0,0.0,2.1719,2.2386,2.2831,2.3006,2.2909,2.2853,2.3022,2.3022,2.3022,2.3022,2.3022,2.3022,2.3022,2.3022,2.3022,2.3022,2.3022,0.0,2.3022,2.3022,2.3022,2.3022,2.336,2.3585,2.3753,2.42,2.459,2.4795,0.0,0.0,0.0,0.0,0.0,0.0,0.0,1.643,1.7381,1.9018,1.9418,1.9198,1.8255,1.7551,1.7039,0.0,0.0,0.0,0.0,0.0,0.0,0.0,0.0,0.0,0.0,0.0,0.0,0.0,0.0,0.0,0.0,0.0,0.0,0.0,0.0,0.0,0.0,0.0,1.7087,0.0,0.0,0.0,0.0,0.0,0.0,0.0,0.0,0.0,0.0,0.0,2.0135,2.2394,2.2909,2.2991,2.2652,2.1472,2.0817,2.0342,1.9847,1.9555,1.9204,1.8295,1.799,1.7649,1.6759,1.5739,0.0,0.0,1.3755,1.2958,1.2779,0.0,1.4942,0.0,0.0,0.0,0.0,0.0,0.0,0.0,0.0,0.0,0.0,0.0,0.0,0.0,0.0,0.0,2.2234,2.2704,2.3022,2.3022,2.3022,2.3022,2.3022,2.3022,2.3022,2.3022,2.3022,2.3022,2.3022,2.3022,2.3022,2.3022,2.3022,0.0,0.0,2.3022,2.3022,2.3135,2.3472,2.3753,2.4033,2.4384,2.4795,2.5165,0.0,0.0,0.0,0.0,0.0,0.0,0.0,1.7387,1.8895,2.1276,2.0676,2.0164,2.054,1.9609,1.846,0.0,0.0,0.0,0.0,0.0,0.0,0.0,0.0,0.0,0.0,0.0,0.0,0.0,0.0,0.0,0.0,0.0,0.0,0.0,0.0,0.0,0.0,0.0,0.0,0.0,0.0,0.0,0.0,0.0,0.0,0.0,0.0,0.0,0.0,0.0,0.0,1.9334,2.0583,2.2274,2.3492,2.2043,0.0,0.0,1.9935,1.9058,1.8394,1.829,1.7366,1.651,1.6718,0.0,0.0,1.4345,1.3676,1.3046,1.2905,1.3013,1.3507,0.0,0.0,1.6599,0.0,0.0,0.0,0.0,0.0,0.0,0.0,0.0,0.0,0.0,0.0,0.0,0.0,2.2974,2.3022,2.3022,2.3022,2.3022,2.3022,2.3022,2.3022,2.3022,2.3022,2.3022,2.3022,2.3022,2.3022,2.3022,0.0,0.0,0.0,2.3022,2.3191,2.3472,2.3753,2.4033,2.4384,2.4663,2.4962,2.5165,0.0,0.0,0.0,0.0,0.0,0.0,1.7243,1.7865,1.8887,2.1134,2.1263,2.1108,2.0929,2.0358,1.945,1.8173,0.0,0.0,0.0,0.0,0.0,0.0,0.0,0.0,0.0,0.0,0.0,0.0,0.0,0.0,0.0,0.0,0.0,0.0,0.0,0.0,0.0,0.0,0.0,0.0,0.0,0.0,0.0,0.0,0.0,0.0,0.0,0.0,0.0,0.0,0.0,0.0,1.819,1.9684,0.0,0.0,2.0825,2.0476,1.9504,1.8852,1.8298,1.7635,1.74,1.7206,1.6428,0.0,1.4926,1.4277,1.3392,1.2726,1.2676,1.2788,1.3226,1.4223,0.0,0.0,0.0,0.0,0.0,0.0,0.0,0.0,0.0,0.0,0.0,0.0,0.0,0.0,0.0,2.3022,2.3022,2.3022,2.3022,2.3022,2.3022,2.3022,2.3022,2.3022,2.3022,2.3022,2.3022,2.3022,2.3022,2.3022,0.0,0.0,0.0,2.3247,2.336,2.3528,2.4033,2.4256,2.444,2.4718,2.4962,2.5165,0.0,0.0,0.0,0.0,0.0,1.5308,1.746,1.7937,1.8768,2.0723,2.1235,2.1348,2.1074,2.0551,1.9865,1.9044,1.8551,0.0,0.0,0.0,0.0,0.0,0.0,0.0,0.0,0.0,1.9048,1.9598,1.9567,0.0,0.0,0.0,0.0,0.0,0.0,0.0,0.0,0.0,0.0,0.0,0.0,0.0,0.0,0.0,0.0,0.0,0.0,0.0,0.0,0.0,0.0,0.0,0.0,0.0,0.0,0.0,2.0257,1.9975,1.9217,1.8598,1.7967,1.7025,1.7352,1.758,0.0,0.0,1.5282,1.4313,1.3323,1.2603,1.2578,1.2707,1.3103,1.3876,0.0,1.537,0.0,0.0,0.0,0.0,0.0,0.0,0.0,0.0,0.0,0.0,0.0,0.0,0.0,2.3022,2.3022,2.3022,2.3022,2.3022,2.3022,2.3022,2.3022,2.3022,2.3022,2.3022,2.3022,2.3022,2.3022,2.3022,0.0,0.0,0.0,2.3416,2.3585,2.3809,2.42,2.444,2.4552,2.4701,2.5034,2.5293,0.0,0.0,0.0,0.0,0.0,0.0,1.6633,1.7581,1.8782,2.0398,2.0442,2.0575,2.1326,2.0246,1.9575,1.9768,1.8699,0.0,0.0,0.0,0.0,0.0,0.0,0.0,0.0,0.0,1.9048,1.9598,1.9737,1.9654,1.9399,0.0,0.0,0.0,0.0,0.0,0.0,0.0,0.0,0.0,0.0,0.0,0.0,0.0,0.0,0.0,0.0,0.0,0.0,0.0,0.0,0.0,0.0,1.6772,1.7202,1.96,1.9941,1.9488,1.9319,1.8279,1.7117,1.6721,1.7047,1.7221,0.0,0.0,1.5281,1.4552,1.3604,1.2847,1.2725,1.27,1.294,1.3586,1.4383,0.0,0.0,0.0,0.0,0.0,0.0,0.0,0.0,0.0,0.0,0.0,0.0,0.0,0.0,2.3022,2.3022,2.3022,2.3022,2.3022,2.3022,2.3022,2.3022,2.3022,2.3022,2.3022,2.3022,2.3022,2.3022,0.0,0.0,0.0,0.0,2.3472,2.3865,2.4384,2.4384,2.4552,2.4812,2.4812,2.52,2.5624,0.0,0.0,0.0,0.0,0.0,0.0,0.0,1.7363,1.8186,1.9363,1.993,2.0447,2.0923,2.0055,1.9573,1.9906,1.9087,0.0,0.0,0.0,0.0,0.0,0.0,0.0,0.0,1.9718,2.0433,2.1874,2.1815,2.201,2.2414,2.1986,2.1462,0.0,0.0,0.0,0.0,0.0,0.0,0.0,0.0,0.0,0.0,0.0,0.0,0.0,0.0,0.0,0.0,0.0,0.0,0.0,0.0,0.0,0.0,1.7097,1.8385,1.9242,1.8689,1.837,1.791,1.6855,1.7273,1.767,1.6429,0.0,1.5869,1.4754,1.3786,1.3069,1.2992,1.2915,1.3336,1.4888,1.5405,0.0,0.0,0.0,0.0,0.0,0.0,0.0,0.0,0.0,0.0,0.0,0.0,0.0,0.0,2.3022,2.3022,2.3022,2.3022,2.3022,2.3022,2.3022,2.3022,2.3022,2.3022,2.3022,2.3022,2.3022,0.0,0.0,0.0,0.0,0.0,2.3921,2.4217,2.444,2.4607,2.4718,2.4812,2.4812,2.5034,2.5331,0.0,0.0,0.0,0.0,0.0,0.0,0.0,1.7019,1.7508,1.8089,1.8969,1.968,2.0159,1.9678,1.9509,1.9961,1.9312,0.0,0.0,0.0,0.0,0.0,0.0,0.0,1.9697,1.9831,2.0723,2.2431,2.237,2.277,2.3578,2.3164,2.2597,2.1864,2.1369,2.101,0.0,0.0,0.0,0.0,0.0,0.0,1.9634,0.0,0.0,0.0,0.0,0.0,0.0,0.0,0.0,0.0,0.0,0.0,0.0,0.0,1.7135,1.8095,1.7921,1.7944,1.7709,1.6655,1.7238,0.0,0.0,0.0,1.6061,1.4968,1.3917,1.3194,1.3162,1.3089,1.35,1.4993,1.54,0.0,0.0,0.0,0.0,0.0,0.0,0.0,0.0,0.0,0.0,0.0,0.0,0.0,0.0,0.0,2.3022,2.3022,2.3022,2.3022,2.3022,2.3022,2.3022,2.3022,2.3022,2.3022,2.3022,2.3022,0.0,0.0,0.0,0.0,0.0,2.4273,2.444,2.4552,2.4701,2.4812,2.4812,2.4812,2.5034,2.5386,0.0,0.0,0.0,0.0,0.0,0.0,0.0,1.6643,1.6826,1.6875,1.7776,1.8628,1.9162,1.9208,1.9403,1.9916,0.0,0.0,0.0,0.0,0.0,0.0,0.0,0.0,1.9283,1.9466,2.0275,2.1769,2.1962,2.2525,2.3506,2.369,2.3195,2.214,2.1967,2.1506,2.086,2.0716,2.0663,2.0571,2.0176,1.993,0.0,0.0,0.0,0.0,0.0,0.0,0.0,0.0,0.0,0.0,0.0,0.0,0.0,0.0,0.0,0.0,0.0,1.7051,1.6753,1.6115,1.6874,1.7477,1.6299,0.0,0.0,1.5105,1.4022,1.3262,1.3339,1.3339,1.3611,1.4512,0.0,0.0,0.0,0.0,0.0,0.0,0.0,0.0,0.0,0.0,0.0,0.0,0.0,0.0,0.0,0.0,2.3022,2.3022,2.3022,2.3022,2.3022,2.3022,2.3022,2.3022,2.3022,2.3022,2.3022,2.3022,0.0,0.0,0.0,0.0,0.0,2.444,2.4607,2.4812,2.4812,2.4812,2.4812,2.4812,2.52,2.5679,0.0,0.0,0.0,0.0,0.0,0.0,0.0,0.0,0.0,0.0,1.8142,1.878,1.9425,1.9316,1.9312,0.0,0.0,0.0,0.0,0.0,0.0,0.0,0.0,0.0,2.0194,2.0727,2.1806,2.3449,2.4144,2.5112,2.6342,2.6238,2.5642,2.4711,2.3991,2.2836,2.1418,2.1389,2.1204,2.088,2.037,2.0068,0.0,0.0,0.0,0.0,1.7639,1.745,0.0,0.0,0.0,0.0,0.0,0.0,0.0,0.0,1.5593,1.5531,1.5627,0.0,1.6543,1.5745,1.6036,1.6343,0.0,1.5425,0.0,0.0,0.0,0.0,0.0,0.0,0.0,0.0,0.0,0.0,0.0,0.0,0.0,0.0,0.0,0.0,0.0,0.0,0.0,0.0,0.0,0.0,0.0,0.0,2.3022,2.3022,2.3022,2.3022,2.3022,2.3022,2.3022,2.3022,2.3022,2.3022,2.3022,2.3247,0.0,0.0,0.0,0.0,2.444,2.4607,2.4757,2.4812,2.4812,2.4812,2.4812,2.5017,2.5348,2.5734,0.0,0.0,0.0,0.0,0.0,0.0,0.0,0.0,0.0,0.0,0.0,1.8462,1.9054,1.9299,0.0,0.0,0.0,0.0,0.0,0.0,0.0,0.0,0.0,1.9982,2.0584,2.0993,2.2157,2.4098,2.4486,2.5461,2.6892,2.6787,2.6211,2.5209,2.4119,2.309,2.2103,2.1804,2.1565,2.1309,2.0554,0.0,0.0,0.0,0.0,0.0,1.7481,1.7183,0.0,1.6965,1.6967,1.6938,0.0,0.0,0.0,0.0,1.53,1.505,1.4979,1.6064,1.7113,1.6509,1.6722,1.6999,1.6765,1.5933,0.0,0.0,0.0,0.0,0.0,0.0,0.0,0.0,0.0,0.0,0.0,0.0,0.0,0.0,0.0,0.0,0.0,0.0,0.0,0.0,0.0,0.0,0.0,0.0,2.3022,2.3022,2.3022,2.3022,2.3022,2.3022,2.3022,2.3022,2.3022,2.3022,2.3022,2.336,0.0,0.0,0.0,0.0,2.459,2.4757,2.4812,2.4812,2.4812,2.4868,2.5017,2.5165,2.5514,2.5898,0.0,0.0,0.0,0.0,0.0,0.0,0.0,0.0,0.0,0.0,0.0,0.0,0.0,0.0,0.0,0.0,0.0,0.0,0.0,0.0,0.0,0.0,1.9656,2.0191,2.0873,2.1004,2.2099,2.4258,2.435,2.5134,2.6565,2.6681,2.607,2.4818,2.3492,2.2719,2.2425,2.1829,2.1535,2.1445,2.0618,0.0,0.0,0.0,0.0,0.0,0.0,0.0,0.0,1.6947,1.7094,1.7172,1.6837,0.0,0.0,0.0,0.0,0.0,1.5103,1.6638,1.805,1.7427,1.7704,1.8205,1.8261,0.0,0.0,0.0,0.0,0.0,0.0,1.6688,0.0,0.0,0.0,0.0,0.0,0.0,0.0,0.0,0.0,0.0,0.0,0.0,0.0,0.0,0.0,0.0,0.0,0.0,0.0,2.3022,2.3022,2.3022,2.3022,2.3022,2.3022,2.3022,2.3022,2.3022,2.3006,2.3416,2.3697,0.0,0.0,0.0,2.4812,2.4812,2.4812,2.4812,2.4812,2.4979,2.5221,2.5276,2.5679,2.619,0.0,0.0,0.0,0.0,0.0,0.0,0.0,0.0,0.0,0.0,0.0,0.0,0.0,0.0,0.0,0.0,0.0,0.0,0.0,0.0,0.0,1.9708,1.9991,2.0654,2.1783,2.1781,2.2652,2.4474,2.5517,2.6474,2.7344,2.7987,2.7229,2.5211,2.3636,2.2357,2.1411,2.0866,2.0426,2.0084,1.996,0.0,0.0,0.0,0.0,0.0,0.0,0.0,0.0,1.5869,1.6423,1.7061,1.6295,0.0,0.0,0.0,0.0,0.0,1.6466,1.8126,1.8969,1.6779,1.7125,1.7912,1.7413,1.706,0.0,0.0,0.0,0.0,0.0,0.0,0.0,0.0,0.0,0.0,0.0,0.0,0.0,0.0,0.0,0.0,0.0,0.0,0.0,0.0,0.0,0.0,0.0,0.0,0.0,2.3022,2.3022,2.3022,2.3022,2.3022,2.3022,2.3022,2.3022,2.3022,2.3022,2.3585,2.3865,0.0,0.0,2.4757,2.4812,2.4812,2.4812,2.4812,2.4812,2.4979,2.5221,2.5514,2.6008,2.6646,0.0,0.0,0.0,0.0,0.0,0.0,0.0,0.0,0.0,0.0,0.0,0.0,0.0,0.0,0.0,0.0,0.0,0.0,0.0,0.0,2.0678,2.1064,2.1478,2.197,2.2513,2.3016,2.4145,2.5968,2.6697,2.7369,2.7972,2.762,2.6611,2.5036,2.4048,2.315,2.2351,2.1526,2.1104,2.0853,0.0,0.0,0.0,0.0,0.0,0.0,0.0,0.0,0.0,0.0,1.643,1.6876,1.6215,0.0,0.0,0.0,0.0,0.0,1.5861,1.7598,1.891,1.7924,1.9109,2.0441,2.0159,1.9351,1.8669,0.0,0.0,0.0,0.0,0.0,0.0,0.0,0.0,0.0,0.0,0.0,0.0,0.0,0.0,0.0,0.0,0.0,0.0,0.0,0.0,0.0,0.0,0.0,0.0,0.0,2.3022,2.3022,2.3022,2.3022,2.3022,2.3022,2.3022,2.3022,2.3022,2.3472,2.3753,2.3921,0.0,2.4663,2.4812,2.4812,2.4812,2.4812,2.4979,2.5183,2.5569,2.6172,2.6738,2.7233,0.0,0.0,0.0,0.0,0.0,0.0,0.0,0.0,0.0,0.0,0.0,0.0,0.0,0.0,0.0,0.0,0.0,0.0,0.0,2.1013,2.1402,2.2103,2.2773,2.3264,2.358,2.4248,2.555,2.7541,2.7819,2.8225,2.872,2.7349,2.6131,2.5048,2.4374,2.375,2.3137,2.2135,2.1652,2.1521,0.0,0.0,0.0,0.0,0.0,0.0,0.0,0.0,0.0,0.0,0.0,0.0,0.0,0.0,0.0,1.5682,1.536,1.536,1.5704,1.7156,1.8718,1.9201,2.0787,2.2316,2.2821,2.1658,2.0667,0.0,0.0,0.0,0.0,0.0,0.0,0.0,0.0,0.0,0.0,0.0,0.0,0.0,0.0,0.0,0.0,0.0,0.0,0.0,0.0,0.0,0.0,0.0,0.0,0.0,2.3022,2.3022,2.3022,2.3022,2.3022,2.3022,2.3022,2.3022,2.3022,2.336,2.3585,2.3809,2.42,2.4552,2.4701,2.4757,2.4812,2.4812,2.5128,2.5459,2.5898,2.6772,2.723,2.751,0.0,0.0,0.0,0.0,0.0,0.0,0.0,0.0,0.0,0.0,0.0,0.0,0.0,0.0,0.0,0.0,0.0,0.0,0.0,2.1012,2.1347,2.1913,2.2962,2.4099,2.5309,2.5192,2.6245,2.8503,2.8881,2.9315,2.9667,2.8142,2.6857,2.575,2.4274,2.3284,2.2582,2.1466,2.0903,2.0718,2.0088,0.0,0.0,0.0,0.0,0.0,0.0,0.0,0.0,0.0,0.0,0.0,0.0,0.0,1.6748,1.6531,1.6186,1.6141,1.7515,1.8225,1.8838,1.981,2.0398,2.1307,2.3414,2.288,0.0,2.4361,0.0,0.0,0.0,0.0,0.0,0.0,0.0,0.0,0.0,0.0,0.0,0.0,0.0,0.0,0.0,0.0,0.0,0.0,0.0,0.0,0.0,0.0,0.0,0.0,0.0,2.3022,2.3022,2.3022,2.3022,2.3022,2.3022,2.3022,2.3022,2.336,2.3528,2.3585,2.4144,2.444,2.444,2.4718,2.4812,2.4812,2.5128,2.5569,2.6172,2.7043,2.7225,2.7191,0.0,0.0,0.0,0.0,0.0,0.0,0.0,0.0,0.0,0.0,0.0,1.9208,1.9736,0.0,0.0,0.0,0.0,0.0,0.0,2.1372,2.186,2.2424,2.3433,2.4371,2.5167,2.6146,2.7383,2.8969,2.9391,2.9341,2.8936,2.7961,2.673,2.5351,2.4633,2.3889,2.3156,2.2229,2.1793,2.1662,2.063,1.9757,0.0,0.0,0.0,0.0,0.0,0.0,0.0,0.0,1.65,1.674,1.6268,1.6665,1.7124,1.6196,1.5915,1.5981,1.6381,1.7848,1.9445,2.0068,2.1287,0.0,0.0,2.4567,2.5074,2.6606,2.6514,0.0,0.0,0.0,0.0,0.0,0.0,0.0,0.0,0.0,0.0,0.0,0.0,0.0,0.0,0.0,0.0,0.0,0.0,0.0,0.0,0.0,0.0,0.0,0.0,2.3022,2.3022,2.3022,2.3022,2.3022,2.3022,2.3022,2.3022,2.3135,2.3304,2.3528,2.3921,2.42,2.444,2.4718,2.4812,2.4868,2.5293,2.5898,2.6464,2.7171,2.7538,2.7784,0.0,0.0,0.0,0.0,0.0,0.0,0.0,0.0,1.7576,0.0,0.0,0.0,0.0,1.951,0.0,0.0,0.0,0.0,2.1093,2.1531,2.1966,2.2557,2.3454,2.4196,2.4722,2.6401,2.786,2.9088,2.9593,2.953,2.8858,2.7875,2.6824,2.5716,2.5071,2.4481,2.3897,2.2784,2.232,2.2135,2.0914,1.9983,0.0,0.0,0.0,0.0,0.0,0.0,0.0,0.0,1.6541,1.6693,1.6358,1.6693,1.7016,1.6033,1.6103,1.6426,1.608,1.776,1.9732,2.0372,0.0,0.0,2.5295,2.6088,2.6976,2.8498,2.8365,0.0,0.0,0.0,0.0,0.0,0.0,0.0,0.0,0.0,0.0,0.0,0.0,0.0,0.0,0.0,0.0,0.0,0.0,0.0,0.0,0.0,0.0,0.0,0.0,2.3022,2.3022,2.3022,2.3022,2.3022,2.3022,2.3022,2.3022,2.3022,2.3135,2.336,2.3641,2.3921,2.4256,2.4535,2.4812,2.5145,2.5531,2.6081,2.6646,2.7225,2.7611,2.7967,0.0,0.0,0.0,0.0,0.0,0.0,0.0,0.0,1.7599,1.8129,1.8657,0.0,0.0,0.0,0.0,0.0,0.0,0.0,2.1276,2.1302,2.1534,2.2076,2.2927,2.3644,2.4171,2.5818,2.742,2.8888,2.9644,2.9973,2.9923,2.8071,2.7188,2.7092,2.5657,2.4901,2.4563,2.2909,2.2102,2.1809,2.0681,2.0322,2.0421,0.0,0.0,0.0,0.0,0.0,0.0,0.0,1.6575,1.5994,1.7027,1.6932,1.6385,1.6244,1.6948,1.7678,1.7161,1.8175,1.9663,2.0753,0.0,0.0,2.6993,2.7372,2.7855,3.0073,0.0,2.9274,0.0,0.0,0.0,0.0,0.0,0.0,0.0,0.0,0.0,0.0,0.0,0.0,0.0,0.0,0.0,0.0,0.0,0.0,0.0,0.0,0.0,0.0,0.0,0.0,2.3022,2.3022,2.3022,2.3022,2.3022,2.3022,2.3022,2.3022,2.3022,2.3022,2.336,2.3641,2.3921,2.4256,2.4923,2.5679,2.5679,2.6081,2.6646,2.7225,2.7368,2.7476,0.0,0.0,0.0,0.0,0.0,0.0,0.0,0.0,1.8154,1.8682,1.8907,0.0,0.0,0.0,0.0,0.0,0.0,0.0,2.0706,2.1095,2.1327,2.1401,2.2396,2.3058,2.3207,2.4841,2.6518,2.813,2.87,2.8477,2.7464,2.6897,2.6214,2.5418,2.5136,2.4693,2.4072,2.3254,2.2892,2.2758,2.203,2.1277,2.0624,0.0,0.0,0.0,0.0,0.0,0.0,0.0,0.0,0.0,1.5752,1.655,1.7311,1.6241,1.7072,1.8107,1.7002,1.8824,0.0,2.1997,0.0,0.0,0.0,2.9226,0.0,0.0,0.0,0.0,0.0,0.0,0.0,0.0,0.0,0.0,0.0,0.0,0.0,0.0,0.0,0.0,0.0,0.0,0.0,0.0,0.0,0.0,0.0,0.0,0.0,0.0,0.0,0.0,2.3641,2.3472,2.336,2.336,2.3135,2.3022,2.3022,2.3022,2.3022,2.3022,2.336,2.3528,2.3641,2.42,2.4757,2.5386,2.5624,2.5898,2.6354,2.7116,2.7368,2.7476,0.0,0.0,0.0,0.0,0.0,0.0,1.8197,1.8275,1.8453,1.8933,1.9057,1.9308,0.0,0.0,0.0,0.0,0.0,0.0,2.0574,2.0887,2.1121,2.125,2.2018,2.2728,2.3335,2.479,2.5844,2.6465,2.7327,2.7241,2.6394,2.6492,2.6135,2.5491,2.561,2.5166,2.4294,2.3519,2.308,2.2818,2.2269,2.1616,2.0989,0.0,0.0,0.0,0.0,0.0,0.0,0.0,0.0,0.0,1.5278,1.5776,1.6382,1.5686,1.6884,1.8358,1.7987,2.0156,0.0,2.4038,2.6557,2.9127,3.0804,0.0,0.0,0.0,0.0,0.0,0.0,0.0,0.0,0.0,0.0,0.0,0.0,0.0,0.0,0.0,0.0,0.0,0.0,0.0,0.0,0.0,0.0,0.0,0.0,0.0,0.0,0.0,0.0,0.0,2.3921,2.3753,2.3641,2.3641,2.3472,2.336,2.336,2.3135,2.3022,2.3022,2.336,2.3472,2.3528,2.4144,2.4629,2.5055,2.5514,2.5953,2.6391,2.7152,2.7476,2.7691,0.0,0.0,1.7021,1.7587,0.0,0.0,1.8367,1.8494,1.8674,1.9032,1.9207,1.9483,0.0,0.0,0.0,2.0628,2.1199,2.1355,2.0883,2.0806,2.1015,2.1511,2.1892,2.2773,2.4258,2.5249,2.5371,2.4479,2.571,2.6259,2.6207,2.6485,2.6582,2.6582,2.6582,2.5955,2.4835,2.3707,2.2897,2.2349,2.1799,2.1538,2.1433,2.1433,0.0,0.0,0.0,0.0,0.0,0.0,0.0,0.0,1.5294,1.4874,1.4466,1.4818,1.6523,1.847,1.9411,0.0,0.0,2.6369,2.8266,0.0,3.2748,0.0,0.0,0.0,0.0,0.0,0.0,0.0,0.0,0.0,0.0,0.0,0.0,0.0,0.0,0.0,0.0,0.0,0.0,0.0,0.0,0.0,0.0,0.0,0.0,0.0,0.0,0.0,0.0,0.0,2.4089,2.4033,2.4033,0.0,2.3977,2.3977,2.3921,2.3304,2.3022,2.3022,2.3304,2.3472,2.3528,2.4089,2.4479,2.4834,2.5404,2.6008,2.6609,2.7206,2.7584,2.796,0.0,0.0,1.6762,1.7365,0.0,0.0,1.8781,1.9233,1.9586,1.9762,1.9813,1.9965,2.0347,2.094,0.0,2.1303,2.1692,2.1923,2.1794,2.1686,2.1684,2.1812,2.2731,2.3803,2.5058,2.4841,2.4612,2.4443,2.5172,2.53,2.4833,2.5363,2.5665,2.576,2.576,2.52,2.4256,2.3496,2.2897,2.24,2.2269,2.1668,2.0857,2.0857,1.9784,0.0,0.0,0.0,0.0,0.0,0.0,0.0,1.4789,1.4866,1.4934,1.4623,1.6567,1.8782,1.859,2.1121,0.0,0.0,2.9535,3.234,3.3101,0.0,0.0,0.0,0.0,0.0,0.0,0.0,0.0,0.0,0.0,0.0,0.0,0.0,0.0,0.0,0.0,0.0,0.0,0.0,0.0,0.0,0.0,0.0,0.0,0.0,0.0,0.0,0.0,2.5404,2.5293,2.5072,2.4889,0.0,2.474,2.4518,2.4256,2.3641,2.3247,2.3022,2.3078,2.3247,2.3528,2.3641,2.4033,2.4535,2.5072,2.5679,2.6282,2.7098,2.7584,2.796,0.0,0.0,0.0,0.0,0.0,0.0,0.0,0.0,2.0195,2.0397,2.0552,2.0681,2.0862,2.1432,0.0,0.0,2.1537,2.1769,2.1715,2.1714,2.1892,2.2293,2.3335,2.3857,2.3877,2.3791,2.3664,2.3386,2.3695,2.4065,2.4438,2.5569,2.6147,2.6212,2.6284,2.5604,2.4316,2.3261,2.2322,2.159,2.159,2.1223,2.0699,2.0699,1.9784,1.8457,1.8412,0.0,0.0,0.0,0.0,0.0,0.0,0.0,1.442,1.4396,1.5908,1.7823,1.9023,0.0,0.0,2.8125,0.0,0.0,0.0,0.0,0.0,0.0,0.0,0.0,0.0,0.0,0.0,0.0,0.0,0.0,0.0,0.0,0.0,0.0,0.0,0.0,0.0,0.0,0.0,0.0,0.0,0.0,0.0,0.0,0.0,0.0,2.6336,2.6282,2.6118,2.5935,2.5881,2.5881,2.5716,2.5459,2.4979,2.4089,2.3585,2.3416,2.3304,2.336,2.3472,2.3472,2.3697,2.4033,2.4906,2.5551,2.6209,2.7098,2.7691,2.8121,0.0,0.0,0.0,0.0,0.0,0.0,0.0,0.0,0.0,2.0935,2.1171,2.1302,2.1328,2.1876,2.1851,0.0,0.0,0.0,2.1431,2.151,2.1922,2.2856,2.3522,2.3472,2.2623,2.2819,2.2794,2.2447,2.2376,2.3225,2.4906,2.6161,2.6884,2.7097,2.7035,2.6078,2.443,2.2893,2.159,2.0542,2.0412,2.0308,2.0229,2.0229,1.9575,1.8588,1.8371,1.7682,1.6891,1.7182,0.0,0.0,0.0,0.0,1.3722,1.4069,1.4996,1.6463,1.91,0.0,2.5379,2.9813,3.168,0.0,0.0,0.0,0.0,0.0,0.0,0.0,0.0,0.0,0.0,0.0,0.0,0.0,0.0,0.0,0.0,0.0,0.0,0.0,0.0,0.0,0.0,0.0,0.0,0.0,0.0,0.0,2.7422,2.7206,2.7206,2.7098,2.6881,2.6881,2.6881,2.6826,2.6718,2.6391,2.5898,2.4851,2.4239,2.4016,2.3753,2.3641,2.3641,2.3585,2.3641,2.3809,2.4778,2.5606,2.6373,2.7098,2.7857,2.8398,0.0,0.0,0.0,0.0,0.0,0.0,0.0,0.0,0.0,0.0,2.1276,2.1328,2.1459,2.1564,2.1564,2.1407,2.1664,2.1891,2.1998,0.0,0.0,2.3268,2.2841,2.2924,2.3753,2.2874,2.2594,2.2995,2.2665,2.4008,2.6886,2.6131,2.6409,2.7459,2.6637,2.5383,2.3835,2.2267,2.0963,1.9865,1.9342,1.8845,1.8427,1.8427,1.8009,1.7356,1.6865,1.6543,1.6307,1.6344,1.5792,0.0,0.0,0.0,0.0,1.3389,1.4277,1.5575,0.0,0.0,2.5592,0.0,3.0962,0.0,0.0,0.0,0.0,0.0,0.0,0.0,0.0,0.0,0.0,0.0,0.0,0.0,0.0,0.0,0.0,0.0,0.0,0.0,0.0,0.0,0.0,0.0,0.0,0.0,0.0,2.8335,2.8174,2.8121,2.8121,2.8121,2.8067,2.8067,2.796,2.7745,2.7206,2.6881,2.6826,2.6445,2.5661,2.4667,2.4423,2.4256,2.4256,2.3977,2.4128,2.4667,2.5055,2.5881,2.6935,2.726,2.7975,2.8828,0.0,0.0,0.0,0.0,0.0,0.0,0.0,0.0,0.0,0.0,0.0,2.2397,2.2451,2.2137,2.1798,2.1511,2.1251,2.1275,2.1638,2.1621,2.1835,2.2426,2.2141,2.2005,2.215,2.1481,2.1329,2.1744,2.1302,2.3069,2.6851,2.6675,2.7832,3.0097,2.8624,2.7208,2.5813,2.3147,2.1172,1.976,1.9159,1.9551,2.0335,1.8715,1.8947,1.9836,1.7617,1.663,1.6283,1.6223,1.5903,1.5458,1.4802,0.0,0.0,0.0,1.3766,0.0,1.8044,2.1614,2.5271,0.0,0.0,0.0,0.0,0.0,0.0,0.0,0.0,0.0,0.0,0.0,0.0,0.0,0.0,0.0,0.0,0.0,0.0,0.0,0.0,0.0,0.0,0.0,0.0,0.0,0.0,0.0,2.892,2.8814,2.8761,2.8761,2.8761,2.8761,2.8761,2.8761,2.8708,2.8548,2.8155,2.7941,2.7941,2.7691,2.6916,2.5771,2.5496,2.5293,2.509,2.4795,2.4778,2.5055,2.5514,2.6227,2.7043,2.753,2.8176,2.8926,0.0,0.0,0.0,0.0,0.0,0.0,0.0,0.0,0.0,0.0,0.0,0.0,2.3001,0.0,0.0,0.0,2.0809,2.0655,2.1017,2.111,2.1253,2.1488,2.1333,2.1049,2.0691,2.0295,2.0295,2.0691,2.0394,2.2513,2.6927,2.74,2.9631,3.3028,3.0851,2.8912,2.7122,2.4131,2.1981,2.0623,2.007,2.0907,2.2298,2.0724,2.1458,2.2875,1.9522,1.7931,0.0,0.0,0.0,0.0,0.0,0.0,0.0,0.0,0.0,0.0,0.0,0.0,2.3592,0.0,0.0,0.0,0.0,0.0,0.0,0.0,0.0,0.0,0.0,0.0,0.0,0.0,0.0,0.0,0.0,0.0,0.0,0.0,0.0,0.0,0.0,0.0,0.0,0.0,0.0,0.0,2.9343,2.9343,2.9343,2.9343,2.9343,2.9343,2.9343,2.9237,2.9237,2.9237,2.8973,2.8794,2.8794,2.8654,2.8174,2.7349,2.6789,2.6373,2.6118,2.5789,2.5661,2.5716,2.6227,2.6772,2.7441,2.8022,2.8711,2.9376,0.0,0.0,0.0,0.0,0.0,0.0,0.0,0.0,0.0,0.0,0.0,0.0,2.2506,2.1904,2.1328,2.0804,2.06,2.0423,2.0271,2.0246,2.0475,2.0929,2.0266,0.0,2.0691,2.0113,2.0113,2.0691,2.0799,2.3296,2.8021,2.8446,3.1159,3.5567,3.2459,2.9306,2.6173,2.4654,2.3626,2.3001,2.2643,2.2591,2.2909,2.4919,0.0,0.0,0.0,0.0,0.0,0.0,0.0,0.0,0.0,0.0,0.0,0.0,0.0,0.0,0.0,1.784,0.0,0.0,0.0,0.0,0.0,0.0,0.0,0.0,0.0,0.0,0.0,0.0,0.0,0.0,0.0,0.0,0.0,0.0,0.0,0.0,0.0,0.0,0.0,0.0,0.0,0.0,0.0,0.0,2.9942,2.9942,2.9942,2.9942,2.9942,2.9942,2.9942,2.9711,2.9554,2.9554,2.9237,2.9079,2.9079,2.9396,2.9501,2.9396,2.8208,2.7565,2.726,2.7043,2.6935,2.6935,2.7206,2.7691,2.834,2.9055,2.9764,3.05,0.0,0.0,0.0,0.0,0.0,0.0,0.0,0.0,0.0,0.0,0.0,0.0,0.0,2.2291,2.1719,2.1121,2.0732,2.0372,2.0093,2.0067,2.0092,2.0191,2.004,1.9989,2.0138,1.9737,1.9762,2.0268,2.0042,2.1926,2.5724,2.6603,2.8324,3.0739,3.1189,3.0907,2.9888,2.6583,2.4883,2.4364,2.4361,2.5478,2.7035,0.0,0.0,0.0,0.0,0.0,0.0,0.0,0.0,0.0,0.0,0.0,0.0,0.0,0.0,0.0,0.0,0.0,0.0,0.0,0.0,0.0,0.0,0.0,0.0,0.0,0.0,0.0,0.0,0.0,0.0,0.0,0.0,0.0,0.0,0.0,0.0,0.0,0.0,0.0,0.0,0.0,0.0,0.0,0.0,0.0,2.9994,2.9994,2.9994,2.9994,3.0203,3.036,3.0516,3.0412,3.036,3.036,3.0256,3.0203,3.0203,3.0308,3.036,3.036,2.9921,2.9323,2.8741,2.8635,2.8475,2.8388,2.8441,2.8832,2.9305,2.9573,3.0203,3.0958,0.0,0.0,0.0,2.2663,0.0,2.2613,2.2219,2.285,2.3219,2.2824,0.0,0.0,0.0,0.0,2.242,2.1432,2.1043,2.0604,2.0093,2.0067,1.9991,1.9811,1.9888,1.9888,1.9811,1.9661,1.9736,1.999,1.999,2.1397,2.4131,2.5172,2.6539,2.8184,2.8954,3.014,3.1293,2.8256,2.6798,2.6611,0.0,0.0,3.0069,0.0,0.0,0.0,0.0,0.0,0.0,0.0,0.0,0.0,0.0,0.0,0.0,0.0,0.0,0.0,1.4893,0.0,0.0,0.0,0.0,0.0,0.0,0.0,0.0,0.0,0.0,0.0,0.0,0.0,0.0,0.0,0.0,0.0,0.0,0.0,0.0,0.0,0.0,0.0,0.0,0.0,0.0,0.0,0.0,0.0,3.0026,3.0172,3.0256,3.0256,3.0464,3.062,3.0776,3.0776,3.0776,3.0776,3.0776,3.0776,3.0776,3.0879,3.0931,3.0931,3.1034,3.0599,2.9796,2.9796,2.9586,2.929,2.9343,2.9627,2.9978,3.0357,3.0942,3.1707,2.2453,2.2898,2.3263,2.3261,2.3347,2.3459,2.3514,2.3627,2.3681,2.3542,0.0,0.0,0.0,0.0,0.0,2.1694,2.1511,2.1121,2.0271,2.022,2.0067,1.9837,1.9811,1.9811,1.9836,1.9939,2.0016,2.0041,2.0731,2.1937,2.3551,2.4296,2.6116,2.8644,2.6095,2.6752,2.9736,2.9282,2.9311,2.9671,0.0,3.1223,3.1594,0.0,0.0,0.0,3.3382,3.1705,0.0,0.0,0.0,0.0,0.0,0.0,0.0,0.0,0.0,0.0,0.0,0.0,0.0,0.0,0.0,0.0,0.0,0.0,0.0,0.0,0.0,0.0,0.0,0.0,0.0,0.0,0.0,0.0,0.0,0.0,0.0,0.0,0.0,0.0,0.0,0.0,0.0,0.0,0.0,3.0104,3.0125,3.0521,3.0776,3.0806,3.0827,3.0827,3.0827,3.0827,3.0827,3.0827,3.0827,3.0827,3.0827,3.1086,3.1219,3.1219,3.1527,3.1167,3.0495,3.0443,3.013,2.9659,2.9942,3.0105,3.0396,3.1446,3.2091,3.2685,2.4168,2.4537,2.4715,2.504,2.4783,2.4423,2.4,2.3977,2.3977,0.0,0.0,0.0,2.4034,2.3473,2.292,2.2291,2.1964,2.1449,2.0623,2.0322,2.0118,1.9965,2.0042,2.0245,2.0598,2.0296,2.0373,2.0807,2.0733,2.1147,2.2108,2.2763,2.3676,2.4736,2.4488,2.5088,2.6289,2.5328,0.0,2.9328,2.9003,3.104,0.0,0.0,0.0,0.0,0.0,3.4685,3.2934,0.0,2.8195,2.4835,0.0,0.0,0.0,0.0,0.0,0.0,1.4727,0.0,0.0,0.0,0.0,0.0,0.0,0.0,0.0,0.0,0.0,0.0,0.0,0.0,0.0,0.0,0.0,0.0,0.0,0.0,0.0,0.0,0.0,0.0,0.0,0.0,0.0,0.0,2.9876,3.0013,3.0356,3.0675,3.073,3.0571,3.0893,3.1167,3.1373,3.1373,3.1373,3.1373,3.1373,3.1373,3.1373,3.168,3.1783,3.1812,3.2139,3.219,3.2088,3.1527,3.1064,3.0754,3.0827,3.119,3.1695,3.2005,3.2632,3.3388,2.4531,2.4955,2.5187,2.5437,2.5441,2.5367,2.5288,2.5082,2.5139,0.0,0.0,0.0,2.5814,2.5818,2.5303,2.3996,2.3467,2.2665,2.1393,2.0912,2.0502,2.0093,2.0399,2.0706,2.0985,2.0758,2.0836,2.1196,2.0784,2.0781,2.1172,2.1511,2.1852,2.2139,2.2008,2.2531,2.3474,0.0,0.0,0.0,3.0082,0.0,0.0,3.6332,3.7595,0.0,0.0,0.0,3.5286,3.4031,3.0999,0.0,0.0,0.0,0.0,0.0,0.0,0.0,0.0,0.0,0.0,0.0,0.0,0.0,1.9611,2.0416,0.0,0.0,0.0,0.0,0.0,0.0,0.0,0.0,0.0,0.0,0.0,0.0,0.0,0.0,0.0,0.0,0.0,0.0,0.0,0.0,3.0252,3.0392,3.0828,3.1184,3.1105,3.0674,3.1133,3.1475,3.1627,3.1876,3.1986,3.1986,3.2088,3.2037,3.1986,3.2319,3.242,3.2342,3.2645,3.2846,3.2946,3.2443,3.2037,3.171,3.171,3.2063,3.2588,3.2696,3.3355,3.4255,0.0,2.47,2.5149,2.5332,2.5813,2.6375,2.7038,2.6686,2.677,0.0,2.8091,2.8313,2.8804,2.9578,2.9021,2.6433,2.5475,2.4298,2.2517,2.1767,2.1068,2.0425,2.0912,2.1221,2.1221,2.1353,2.138,2.1302,2.0964,2.0777,2.0699,2.0699,2.0646,2.0438,1.9368,1.976,2.1146,0.0,0.0,2.7914,3.1939,3.391,0.0,0.0,3.8877,0.0,3.8647,3.8057,3.709,3.6358,3.3195,0.0,0.0,0.0,0.0,0.0,1.9279,0.0,0.0,0.0,0.0,0.0,0.0,0.0,2.1156,2.0852,2.0497,0.0,0.0,0.0,0.0,0.0,0.0,0.0,0.0,0.0,0.0,0.0,0.0,0.0,0.0,0.0,0.0,0.0,3.0576,3.0623,3.0836,3.1017,3.1167,3.1712,3.1705,3.0987,3.1439,3.173,3.1892,3.2274,3.2549,3.2594,3.2745,3.2745,3.2594,3.2996,3.3097,3.2896,3.3097,3.3247,3.3346,3.3296,3.2946,3.242,3.242,3.2768,3.3231,3.3475,3.4171,3.5146,2.5192,2.5558,2.6086,2.7504,2.7452,2.7583,2.869,2.793,2.7818,2.9441,3.0069,3.0675,3.1526,3.0554,2.9512,0.0,2.6557,2.4776,2.3705,2.2464,2.1734,2.1578,2.1788,2.1894,2.1894,2.2083,2.1902,2.1302,2.1329,2.1145,2.0699,2.0699,2.0177,1.9237,1.9002,1.9107,1.9525,0.0,0.0,2.63,2.7661,0.0,3.5834,3.6533,3.7821,3.9254,3.8841,3.8579,3.8135,0.0,3.3979,3.0831,0.0,0.0,0.0,0.0,0.0,0.0,0.0,0.0,0.0,0.0,0.0,0.0,1.8291,1.867,1.9533,0.0,0.0,0.0,0.0,0.0,0.0,0.0,0.0,0.0,0.0,0.0,0.0,0.0,0.0,0.0,0.0,0.0,3.0449,3.0892,3.1111,3.0974,3.0445,3.1292,3.1702,3.154,3.1632,3.2088,3.2887,3.2639,3.2685,3.3047,3.3097,3.3097,3.3047,3.322,3.3369,3.3446,3.3319,3.3618,3.4139,3.4014,3.3469,3.2695,3.2695,3.3151,3.3785,3.3816,3.4603,3.5708,2.4775,2.5401,2.6054,2.6948,2.7811,2.8665,2.9418,2.9386,2.9944,3.1837,3.3112,3.3565,3.2872,0.0,0.0,0.0,0.0,0.0,0.0,2.3427,2.2457,2.1635,2.2027,2.2264,2.2264,2.2347,2.2243,2.1849,2.1616,2.1067,2.0255,2.0543,0.0,0.0,1.9917,2.0414,2.1511,0.0,2.3446,2.6054,2.8961,0.0,3.6253,3.7717,3.8972,3.9939,3.9364,3.8789,3.8004,3.594,3.4502,0.0,0.0,2.936,2.8898,0.0,2.5855,2.6349,0.0,0.0,0.0,2.2495,0.0,0.0,0.0,1.9482,1.9581,0.0,0.0,0.0,0.0,0.0,0.0,0.0,0.0,0.0,0.0,0.0,0.0,0.0,0.0,0.0,0.0,0.0,3.0453,3.0934,3.1279,3.1264,3.0781,3.1739,3.2136,3.1692,3.1972,3.2367,3.2829,3.2878,3.3017,3.3224,3.3627,3.3744,3.3668,3.3915,3.404,3.3991,3.404,3.4237,3.458,3.4359,3.3915,3.3469,3.3469,3.3839,3.4366,3.4366,3.5085,3.6091,2.4383,2.5166,2.5871,2.608,2.7889,2.9422,2.9813,3.0459,3.1746,3.3933,3.5631,0.0,0.0,0.0,0.0,0.0,0.0,0.0,0.0,0.0,2.3677,2.2337,2.2447,2.2582,2.274,2.2506,2.2296,2.206,2.159,2.0806,1.9812,0.0,0.0,0.0,0.0,0.0,0.0,0.0,0.0,2.7333,0.0,3.4214,3.5443,3.8318,3.9494,3.9573,3.9468,3.8789,3.7612,3.5704,0.0,3.492,3.1745,3.1771,0.0,0.0,0.0,0.0,0.0,0.0,0.0,0.0,0.0,2.2714,0.0,0.0,0.0,2.1324,0.0,0.0,0.0,0.0,0.0,0.0,0.0,0.0,0.0,0.0,0.0,0.0,0.0,0.0,0.0,0.0,2.9973,3.0748,3.0874,3.1028,3.1216,3.2146,3.2412,3.1874,3.2157,3.2464,3.2771,3.3031,3.3291,3.3597,3.4099,3.4289,3.4261,3.458,3.4628,3.4482,3.458,3.4726,3.4775,3.4531,3.4286,3.4162,3.4064,3.4369,3.4808,3.4808,3.5481,3.6495,2.5401,2.5715,2.6106,2.7124,2.8412,2.9457,2.9986,3.0448,3.1668,3.4221,0.0,0.0,0.0,0.0,0.0,0.0,0.0,0.0,3.0228,0.0,0.0,2.5806,2.3972,2.3251,2.3887,2.2924,2.193,2.0883,2.0805,2.0465,0.0,0.0,0.0,0.0,2.1773,0.0,0.0,0.0,2.7542,0.0,3.2934,3.2777,0.0,3.4763,3.6175,3.6776,3.8266,3.8423,3.7874,0.0,3.6854,3.5678,0.0,3.3543,0.0,0.0,0.0,0.0,0.0,0.0,0.0,0.0,2.7224,0.0,0.0,0.0,2.2616,2.0194,0.0,0.0,0.0,0.0,0.0,0.0,0.0,0.0,0.0,0.0,0.0,0.0,0.0,0.0,0.0,0.0,0.0,3.0264,2.9012,2.8979,3.0855,3.1529,3.1989,3.24,3.2037,3.2424,3.3839,3.3023,3.3287,3.463,3.4222,3.427,3.4726,3.4531,3.458,3.4726,3.4359,3.4408,3.4775,3.4531,3.4384,3.4335,3.3915,3.4166,3.4808,3.4808,3.5746,3.7012,2.4572,2.52,2.5725,2.5976,2.7222,2.843,2.9269,3.2275,0.0,0.0,0.0,0.0,0.0,0.0,0.0,0.0,0.0,3.3157,0.0,0.0,0.0,2.747,2.5615,2.464,2.4622,2.3472,2.2296,2.1146,2.1146,2.0518,0.0,0.0,0.0,0.0,2.3369,0.0,2.8508,0.0,0.0,0.0,0.0,0.0,0.0,3.594,3.7926,3.8187,3.8579,3.8579,3.8214,0.0,3.6515,0.0,0.0,0.0,0.0,0.0,0.0,0.0,0.0,0.0,0.0,0.0,0.0,0.0,0.0,0.0,2.2207,0.0,0.0,0.0,0.0,0.0,0.0,0.0,0.0,0.0,0.0,0.0,0.0,0.0,0.0,0.0,0.0,0.0,0.0,0.0,0.0,2.812,3.0471,3.139,3.2071,3.2491,3.2274,3.2611,3.3597,3.3164,3.3428,3.4318,3.4414,3.4558,3.4775,3.4677,3.4677,3.4775,3.4604,3.4701,3.5017,3.4726,3.4628,3.458,3.4237,3.4574,3.523,3.523,3.604,3.7143,2.3919,2.4653,2.5268,2.5131,2.6375,2.7945,0.0,0.0,0.0,0.0,0.0,0.0,4.0033,3.8691,0.0,0.0,3.7447,3.5709,0.0,0.0,3.1111,0.0,0.0,0.0,0.0,2.4387,2.2869,2.1747,2.1433,2.0544,0.0,0.0,0.0,0.0,0.0,2.7654,3.1275,0.0,0.0,3.2476,3.2777,3.2908,3.3338,3.7377,3.9181,3.9547,3.9102,3.8841,3.8501,3.7063,3.6488,0.0,3.5678,0.0,0.0,0.0,0.0,0.0,3.2463,0.0,0.0,0.0,0.0,0.0,0.0,0.0,0.0,0.0,0.0,0.0,0.0,0.0,0.0,0.0,0.0,0.0,0.0,0.0,0.0,0.0,0.0,0.0,0.0,0.0,0.0,0.0,0.0,0.0,2.9853,3.1047,3.1831,3.2212,3.2337,3.2629,3.316,3.3114,3.3332,3.379,3.4318,3.4558,3.4558,3.4703,3.4775,3.4775,3.4775,3.492,3.5163,3.4969,3.492,3.4872,3.4677,3.5125,3.5797,3.562,3.6302,3.7251,2.4101,2.4505,0.0,0.0,0.0,0.0,0.0,0.0,0.0,0.0,0.0,0.0,0.0,0.0,0.0,0.0,0.0,3.9524,3.8549,0.0,3.4059,0.0,0.0,2.796,0.0,0.0,0.0,2.2374,0.0,0.0,0.0,0.0,0.0,0.0,0.0,2.7941,3.0309,3.2515,3.5365,3.8397,3.7874,3.8658,3.986,0.0,3.8135,3.9599,3.9599,0.0,0.0,3.8031,3.7456,0.0,0.0,0.0,0.0,0.0,0.0,0.0,0.0,0.0,0.0,3.0065,0.0,0.0,0.0,0.0,2.6028,0.0,0.0,0.0,0.0,0.0,0.0,0.0,0.0,0.0,0.0,0.0,0.0,0.0,0.0,0.0,0.0,0.0,0.0,0.0,0.0,0.0,2.8919,3.0172,3.1006,3.1504,3.1869,3.2273,3.2807,3.2605,3.2779,3.3308,3.3813,3.4006,3.403,3.4534,3.4775,3.4775,3.4775,3.492,3.5235,3.5187,3.5187,3.5187,3.5187,3.567,3.6309,3.5797,3.6459,3.7596,2.414,0.0,0.0,0.0,0.0,0.0,0.0,3.4186,0.0,0.0,0.0,0.0,0.0,0.0,4.2484,0.0,0.0,4.2716,4.1618,3.9498,0.0,0.0,0.0,3.2515,0.0,0.0,0.0,0.0,0.0,0.0,0.0,0.0,0.0,0.0,0.0,2.8595,0.0,0.0,0.0,0.0,0.0,3.8789,4.088,0.0,0.0,4.0148,4.0148,4.0017,0.0,3.9625,3.8919,3.8161,3.837,3.7639,3.6776,3.7168,3.6724,0.0,0.0,0.0,3.5757,3.2267,0.0,0.0,0.0,0.0,0.0,0.0,0.0,0.0,0.0,0.0,0.0,0.0,0.0,0.0,0.0,0.0,0.0,0.0,0.0,0.0,0.0,0.0,0.0,0.0,0.0,0.0,0.0,2.9065,3.017,3.0957,3.1412,3.2147,3.3052,3.2987,3.3165,3.3516,3.4025,3.4172,3.4006,3.4534,3.4872,3.5066,3.5066,3.5332,3.5716,3.5716,3.562,3.5476,3.5476,3.5818,3.636,3.6207,3.6876,3.7838,2.4734,2.5051,0.0,0.0,0.0,0.0,0.0,0.0,0.0,0.0,4.0463,0.0,4.3366,0.0,4.3431,0.0,4.5005,4.4575,4.3213,4.2216,0.0,4.1063,3.8344,0.0,0.0,0.0,0.0,0.0,0.0,2.3939,0.0,0.0,0.0,0.0,0.0,0.0,3.2172,0.0,3.6471,0.0,0.0,3.9891,0.0,0.0,4.0772,4.0749,0.0,4.0592,4.0409,4.0409,3.9808,3.9102,3.9494,3.8841,3.7978,3.8135,3.7639,3.6933,3.6541,3.6698,0.0,3.3692,3.2463,0.0,2.7523,0.0,0.0,0.0,0.0,0.0,0.0,0.0,0.0,0.0,0.0,0.0,0.0,1.864,0.0,0.0,0.0,0.0,0.0,0.0,0.0,0.0,0.0,0.0,0.0,0.0,2.9745,3.0638,3.1297,3.2068,3.3024,3.3158,3.3195,3.3162,3.3893,3.4141,3.4025,3.4557,3.4993,3.5332,3.5332,3.5572,3.6003,3.6003,3.5908,3.5716,3.5716,3.6015,3.6398,3.6389,3.7084,3.8027,2.5787,2.5979,0.0,0.0,2.8486,0.0,0.0,0.0,3.8434,0.0,4.196,4.2911,4.3771,4.415,4.4573,4.5081,4.5731,0.0,4.3743,4.3856,0.0,0.0,4.0749,3.952,3.8893,0.0,0.0,0.0,0.0,0.0,0.0,0.0,0.0,0.0,2.6254,0.0,3.0983,3.5409,3.8474,4.0494,4.1612,4.1944,4.1696,4.1696,0.0,4.1374,4.1324,4.0958,4.0461,4.0461,4.0122,3.9677,3.9677,3.9651,3.9494,3.8919,3.871,3.8423,3.7351,3.7037,3.6515,3.4319,0.0,0.0,0.0,0.0,3.079,0.0,0.0,0.0,0.0,0.0,0.0,0.0,0.0,0.0,0.0,0.0,0.0,0.0,0.0,0.0,0.0,0.0,0.0,0.0,0.0,0.0,0.0,0.0,2.9492,3.0482,3.1406,3.2127,3.2698,3.3024,3.2936,3.2444,3.3457,3.3973,3.4023,3.4563,3.5104,3.562,3.562,3.5764,3.6003,3.6003,3.6003,3.6003,3.6053,3.6207,3.6456,3.6468,3.716,3.808,2.6866,2.8646,3.0416,0.0,3.1468,3.2685,0.0,0.0,0.0,0.0,4.2608,4.3299,4.4292,4.5085,4.5563,4.5715,4.6681,0.0,0.0,0.0,0.0,4.6003,4.3938,4.2317,4.1298,3.7586,0.0,3.204,0.0,0.0,2.572,0.0,0.0,0.0,0.0,0.0,3.0939,3.4433,3.7997,4.134,4.187,4.2065,0.0,0.0,4.1944,4.1845,4.1448,4.1219,4.1089,4.1089,4.0984,4.088,4.088,4.0305,3.9573,3.9416,3.8789,3.8057,3.7743,3.7665,3.7429,3.6384,3.5155,3.3849,0.0,0.0,0.0,0.0,0.0,0.0,0.0,0.0,0.0,0.0,0.0,0.0,0.0,0.0,0.0,0.0,0.0,0.0,0.0,0.0,0.0,0.0,0.0,0.0,0.0,0.0,0.0,2.9302,3.0914,3.2131,3.2982,3.3089,3.2959,3.2636,3.333,3.374,3.4023,3.4563,3.5199,3.5908,3.5908,3.6051,3.631,3.631,3.6193,3.6053,3.6425,3.7048,3.7661,3.7631,3.7993,3.8579,2.8423,0.0,0.0,3.4368,0.0,0.0,3.7478,0.0,0.0,4.1881,4.2815,0.0,4.4535,4.5897,4.6685,4.6685,4.7464,0.0,0.0,0.0,0.0,4.697,4.595,4.4853,4.3702,4.0533,0.0,3.4477,0.0,0.0,2.6667,0.0,0.0,0.0,0.0,2.8097,0.0,3.4712,3.8546,4.1416,4.2135,0.0,0.0,4.2289,4.219,4.2065,4.1746,4.1647,4.1647,4.1498,4.1448,4.1448,4.1448,4.0844,4.0057,3.9821,3.9207,3.8464,3.8136,3.8103,3.8069,3.7637,3.6867,3.5927,3.4721,3.4568,3.4466,0.0,0.0,0.0,0.0,0.0,0.0,0.0,0.0,0.0,0.0,0.0,0.0,0.0,0.0,0.0,0.0,0.0,0.0,0.0,0.0,0.0,0.0,0.0,0.0,2.91,3.0953,3.2336,3.3215,3.324,3.3111,3.2896,3.3152,3.3682,3.4342,3.464,3.5304,3.6193,3.6193,3.6288,3.6405,3.6405,3.631,3.6218,3.6518,3.7219,3.804,3.804,3.8331,3.8841,3.0507,0.0,0.0,0.0,0.0,0.0,0.0,3.9523,0.0,4.1853,0.0,4.4178,4.4914,4.6592,4.7703,4.7762,0.0,4.7812,4.6817,4.7681,4.7754,4.6761,4.7157,4.6843,4.5663,4.3546,0.0,0.0,0.0,0.0,0.0,0.0,0.0,0.0,0.0,0.0,0.0,3.5777,3.9445,0.0,4.2378,4.2722,4.256,4.256,4.2435,4.2262,4.2239,4.219,4.2065,4.1845,4.1746,4.1746,4.1746,4.1297,4.0614,4.0161,3.972,3.9249,3.8463,3.8474,3.8637,3.833,3.8421,3.8158,3.6416,3.6157,3.6327,3.6327,3.5087,3.4781,0.0,0.0,0.0,0.0,0.0,0.0,0.0,0.0,0.0,0.0,0.0,0.0,0.0,0.0,0.0,0.0,0.0,0.0,0.0,0.0,0.0,2.9332,3.1086,0.0,3.3386,0.0,3.3326,3.3111,3.3111,3.369,3.4771,3.4771,3.5374,3.6499,3.6452,3.6452,3.6452,3.6452,3.6502,3.6578,3.6653,3.726,3.819,3.824,3.859,3.905,0.0,0.0,0.0,0.0,0.0,4.2243,4.2917,4.2587,4.274,4.3947,4.5337,4.6248,4.6408,4.717,4.7821,4.8055,4.8198,0.0,0.0,0.0,0.0,4.7885,4.7806,4.7182,4.5967,4.3512,4.0754,0.0,0.0,0.0,0.0,0.0,0.0,0.0,0.0,0.0,3.3512,3.6647,0.0,4.1415,4.2125,4.2583,4.2852,4.2852,4.2922,4.3067,4.2825,4.2484,4.2065,4.2016,4.2043,4.2043,4.2043,4.1249,4.0372,4.0292,3.9887,3.9348,3.8717,3.8948,3.9188,3.8663,3.8557,3.8522,3.8158,3.8078,3.8123,3.8123,3.7685,3.6999,3.6058,0.0,0.0,0.0,0.0,0.0,0.0,0.0,0.0,0.0,0.0,0.0,0.0,0.0,0.0,0.0,0.0,0.0,0.0,0.0,0.0,0.0,0.0,0.0,0.0,0.0,3.3326,3.3111,3.3111,3.3802,3.5041,3.5041,3.574,3.6968,3.6734,3.6662,3.6662,3.6662,3.6966,3.7422,3.7904,3.8486,3.9145,3.9576,3.9905,4.0134,0.0,0.0,0.0,0.0,0.0,0.0,0.0,4.526,0.0,4.5362,4.625,4.6938,4.7056,4.8125,4.8882,4.9061,4.9061,4.918,4.9561,4.9443,4.9443,4.9593,4.9155,0.0,4.7622,4.5368,4.2579,3.94,0.0,0.0,0.0,0.0,0.0,0.0,0.0,3.0808,0.0,0.0,0.0,4.1251,4.2488,4.3101,4.3232,4.3232,4.3328,4.3423,4.328,4.3088,4.2798,4.2435,4.2387,4.2484,4.2338,4.1673,4.0977,4.0977,4.0428,3.9822,3.9712,3.9543,3.9392,3.9392,3.9267,3.9141,3.9114,3.9247,3.9319,3.9185,3.9057,3.826,3.5994,3.3463,0.0,0.0,0.0,0.0,0.0,0.0,0.0,0.0,0.0,0.0,0.0,0.0,0.0,0.0,0.0,0.0,0.0,0.0,0.0,0.0,0.0,0.0,0.0,0.0,0.0,3.3386,3.3386,3.3929,3.4856,3.5137,3.5768,3.6698,3.6841,3.6922,3.6922,3.6922,3.7075,3.7381,3.7967,3.8528,3.9089,3.97,4.0134,4.0415,0.0,4.1158,0.0,0.0,4.3907,0.0,4.569,4.7339,4.7983,4.663,4.7056,4.7594,4.7768,4.9087,5.0018,5.0138,5.0138,5.0259,5.0585,5.0585,5.0618,5.0916,5.0489,4.9961,4.9213,4.7431,4.4714,0.0,0.0,0.0,0.0,0.0,0.0,0.0,0.0,0.0,0.0,0.0,4.0166,4.1495,4.2934,4.3551,4.3586,4.3586,4.3662,4.3662,4.3586,4.3662,4.3662,4.297,4.2873,4.3018,4.2776,4.2322,4.1883,4.1883,4.1346,4.0786,4.0955,4.0485,4.015,4.0477,4.0257,3.9953,3.9898,3.9947,3.998,3.9804,3.9568,3.8632,3.6239,3.4267,0.0,0.0,0.0,0.0,0.0,0.0,0.0,0.0,0.0,0.0,0.0,0.0,0.0,0.0,0.0,1.9281,2.0879,2.3113,0.0,0.0,0.0,3.1902,3.2832,0.0,3.3979,0.0,3.3725,3.4084,3.4889,3.5282,3.5891,3.6676,3.7021,3.7201,3.718,3.733,3.7381,3.7458,3.8152,3.8691,3.9128,3.9719,4.0283,4.0566,0.0,0.0,0.0,0.0,0.0,0.0,0.0,4.8323,4.9256,4.8043,4.8636,4.9213,4.9213,4.9913,5.0465,5.0797,5.0797,5.0916,5.1299,5.1035,5.0857,5.0916,5.1127,5.0739,4.9583,4.8514,4.6267,0.0,0.0,0.0,0.0,0.0,0.0,0.0,0.0,0.0,0.0,3.9745,4.129,4.2916,4.3083,4.3332,4.3586,4.3586,4.3757,4.3926,4.3709,4.3899,4.4256,4.3662,4.3519,4.3519,4.3491,4.3105,4.2711,4.2711,4.2628,4.2435,4.1939,4.2104,4.2371,4.1874,4.1249,4.078,4.078,4.0382,3.9996,3.9952,3.9097,3.7869,3.6332,3.5894,3.4749,0.0,0.0,0.0,0.0,0.0,0.0,0.0,0.0,0.0,0.0,0.0,0.0,0.0,0.0,1.8759,2.1635,2.2033,2.3944,2.7736,0.0,3.0854,3.1642,3.3286,0.0,3.3725,3.3725,3.4418,3.5693,3.5745,3.6482,3.773,3.7526,3.7459,3.7485,3.8049,3.8256,3.8385,3.9424,3.9863,4.0016,4.0611,4.0945,4.1119,0.0,0.0,0.0,0.0,0.0,0.0,0.0,4.8852,4.9819,4.9523,5.0115,5.0708,5.1233,5.153,5.1774,5.1896,5.1896,5.2044,5.2433,5.2286,5.2286,5.2527,5.1971,5.1436,5.0949,4.9464,4.7378,0.0,0.0,0.0,0.0,0.0,0.0,0.0,0.0,3.8348,4.0447,4.1359,4.2547,4.3873,4.4265,4.4498,4.4598,4.4598,4.4721,4.4713,4.4255,4.4209,4.4378,4.4162,4.3974,4.3804,4.3662,4.3448,4.3255,4.3255,4.3053,4.2832,4.2915,4.2611,4.2325,4.2556,4.2157,4.1619,4.139,4.1112,4.0833,4.0324,3.9142,3.8021,3.7442,3.6148,3.4981,0.0,0.0,0.0,0.0,0.0,0.0,0.0,0.0,0.0,0.0,0.0,0.0,0.0,0.0,0.0,2.022,2.166,2.3628,2.6277,0.0,3.1325,3.1862,3.3642,3.4538,3.4666,3.4302,3.4604,3.5496,3.5835,3.6687,3.79,3.792,3.7874,3.7788,3.8501,3.883,3.8909,4.0039,4.0582,4.083,4.141,4.1696,4.1716,4.814,0.0,4.7231,0.0,4.7519,4.731,4.8303,4.9139,4.9947,5.0737,5.1194,5.1732,5.2535,5.2677,5.2738,5.2738,5.2861,5.2983,5.3227,5.3227,5.3295,5.3347,5.2533,0.0,5.1769,5.0227,4.849,4.6618,4.419,0.0,0.0,0.0,0.0,0.0,3.9592,4.1175,4.2739,4.3385,4.4172,4.5015,4.5436,4.5605,4.5605,4.5605,4.5605,4.5549,4.5127,4.4846,4.4706,4.4902,4.4704,4.4319,4.3954,4.3851,4.3851,4.3851,4.3574,4.3324,4.374,4.324,4.2759,4.3343,4.2998,4.2474,4.1992,4.1755,4.1403,4.064,3.9396,3.8367,3.8297,3.6607,3.5311,3.5613,0.0,0.0,0.0,0.0,0.0,0.0,0.0,2.5889,2.4719,0.0,0.0,0.0,0.0,0.0,2.114,2.2321,0.0,0.0,0.0,0.0,0.0,3.4456,3.5537,3.5762,3.5342,3.5447,3.6025,3.6577,3.7314,3.8129,3.8285,3.8134,3.7945,3.8978,3.9336,3.9329,4.0658,4.1285,4.1506,4.1932,4.2065,4.2012,4.814,4.8172,4.8172,4.8172,4.8172,4.8381,4.8982,4.9087,4.9745,5.1542,5.1762,5.1976,5.2535,5.2922,5.3105,5.3105,5.341,5.3592,5.3592,5.3592,5.3347,0.0,0.0,5.2425,5.1769,5.0634,4.9684,4.9032,0.0,0.0,4.3484,0.0,4.1868,4.2542,4.3807,4.4678,4.5276,4.597,4.6251,4.6279,4.6279,4.6279,4.6279,4.6279,4.6279,4.6279,4.6279,4.5858,4.5408,4.6055,4.583,4.5164,4.4546,4.4425,4.4425,4.4425,4.4397,4.4397,4.4425,4.4397,4.4397,4.4397,4.3947,4.3329,4.2711,4.2064,4.1446,4.0828,3.9732,3.882,3.8546,3.7501,3.6225,3.4851,0.0,0.0,0.0,0.0,0.0,0.0,2.7048,2.5434,2.6009,0.0,0.0,0.0,0.0,0.0,0.0,0.0,0.0,2.9107,3.146,0.0,3.3366,3.5713,3.6887,3.6887,3.6887,3.7137,3.7696,3.8309,3.8602,3.8602,3.8602,3.8282,3.7838,3.9568,3.9914,3.9614,4.1373,4.2065,4.2065,4.2065,4.2065,4.2065,4.9288,4.9348,4.9244,4.8852,4.8799,4.8852,4.9061,4.9401,5.0078,5.1292,5.196,5.2463,5.2922,5.3227,5.341,0.0,5.3531,5.3592,0.0,5.3592,5.332,5.275,5.2723,5.2452,5.1769,5.1448,5.0827,5.0046,0.0,0.0,0.0,4.5425,4.5549,4.5745,4.6139,4.6673,4.7207,4.656,4.6532,4.6926,4.6926,4.6926,4.6926,4.6926,4.6926,4.6869,4.6448,4.6167,4.6026,4.6223,4.6167,4.5942,4.5774,4.538,4.4959,4.4537,4.4425,4.4425,4.4425,4.4425,4.4425,4.4425,4.4256,4.3975,4.3357,4.2374,4.1446,4.0828,3.9732,3.8861,3.882,3.777,3.671,3.6153,3.5336,0.0,0.0,0.0,0.0,0.0,2.8771,2.7506,0.0,2.5736,0.0,0.0,0.0,0.0,0.0,0.0,0.0,0.0,3.1973,0.0,3.394,3.6052,3.723,3.743,3.71,3.7207,3.7696,3.8309,3.8602,3.8602,3.8756,3.8604,3.8442,3.996,4.0462,4.0408,4.185,4.2484,4.2631,4.2631,4.2631,4.2631,4.9837,4.974,4.9479,4.9139,4.8904,4.8904,4.9322,4.9662,5.0367,5.1583,5.2253,5.2799,5.3227,5.347,0.0,5.3592,5.3592,5.3592,5.3592,5.3592,5.332,5.275,5.2506,5.2208,5.1769,0.0,0.0,5.0843,4.994,4.8986,4.8021,4.8162,4.8246,4.8246,4.7993,4.8106,4.8336,4.7403,4.7207,4.7544,4.7544,4.7544,4.7544,4.7544,4.7544,4.7516,4.7122,4.6841,4.6673,4.6897,4.6841,4.6645,4.6645,4.6364,4.5858,4.5015,4.4593,4.4425,4.4425,4.4425,4.4425,4.4425,4.4425,4.4256,4.3638,4.2514,4.1502,4.1137,4.0069,3.9183,3.8958,3.8018,3.722,3.6839,3.5815,3.4929,3.4732,0.0,0.0,0.0,0.0,0.0,0.0,2.8102,0.0,0.0,0.0,0.0,0.0,0.0,0.0,2.9807,3.3517,0.0,3.5787,3.723,3.8064,3.8282,3.7977,3.8004,3.8309,3.8684,3.8872,3.8872,3.9024,3.8845,3.8658,4.0191,4.0788,4.08,4.2139,4.2803,4.3018,4.2949,4.29,4.29,4.9706,4.9401,0.0,0.0,4.8675,0.0,4.9801,4.9984,5.0646,5.2394,5.2588,5.2861,5.347,5.3592,5.3592,5.3592,0.0,0.0,0.0,5.3592,5.332,5.275,5.2235,5.1909,5.1769,5.077,5.0615,5.1448,5.0851,5.0703,5.0916,5.0407,5.0125,5.0125,4.9454,4.9122,4.9066,4.842,4.8139,4.8139,4.8083,4.8134,4.8134,4.8134,4.8134,4.8134,4.8134,4.7769,4.7375,4.7937,4.774,4.7263,4.7263,4.7235,4.6982,4.5745,4.4959,4.4481,4.4481,4.4453,4.4425,4.4425,4.4425,4.4256,4.3638,4.2598,4.1727,4.1643,4.0659,3.9648,3.9043,3.8327,3.7681,3.7035,3.5977,3.5124,3.4873,0.0,0.0,0.0,0.0,0.0,0.0,3.0439,3.135,0.0,0.0,0.0,0.0,0.0,2.9984,3.3815,3.5724,3.7284,3.8353,3.902,3.9292,3.9292,3.9319,3.9319,3.9292,3.9319,3.9363,3.9363,3.9336,3.9037,3.8657,4.0423,4.0968,4.0822,4.2338,4.3115,4.3307,4.3018,4.2922,4.2922,0.0,0.0,4.893,4.8486,4.9245,4.9969,5.0232,5.0895,5.1634,5.2508,5.2799,5.3044,5.3193,5.347,5.3592,5.3592,5.3592,5.3592,5.3592,5.3592,5.332,5.275,5.3022,5.275,5.1796,5.2225,5.2331,5.2071,5.2156,5.1985,5.1562,5.1421,5.1337,5.1337,5.0719,5.0438,5.0382,4.9286,4.8785,4.8729,4.828,4.8134,4.8134,4.8134,4.8134,4.8134,4.8134,4.8021,4.7937,4.8078,4.8021,4.7909,4.7909,4.76,4.7066,4.6307,4.5605,4.5127,4.5127,4.4762,4.4425,4.4425,4.4425,4.4256,4.3638,4.3273,4.2767,4.1812,4.1025,4.0154,3.9099,3.8327,3.754,3.6511,3.5695,3.4983,3.4433,3.3592,0.0,0.0,3.2542,3.252,3.1124,3.266,3.3092,0.0,0.0,0.0,0.0,3.3083,3.3707,3.4323,3.6739,3.8038,3.8162,3.8932,3.9292,3.9292,3.9496,3.9496,3.9292,3.9496,3.9612,3.9612,3.9804,3.9738,3.9711,4.1086,4.1599,4.1645,4.2948,4.3471,4.3519,4.3471,4.3423,4.3423,4.8852,4.9035,4.9139,4.9348,4.9842,5.0304,5.0748,5.1247,5.1854,5.2719,5.2983,5.3193,5.3288,5.347,5.3592,5.3592,5.3592,5.3592,5.3592,5.3592,5.3456,5.313,5.3158,5.2946,5.247,5.2701,5.2611,5.2296,5.2267,5.2124,5.1787,5.1787,5.1787,5.1759,5.114,5.0859,5.0857,4.9876,4.9454,4.9398,4.878,4.8504,4.8448,4.8195,4.8134,4.8134,4.8134,4.8134,4.8134,4.8134,4.8134,4.8134,4.8258,4.8082,4.7744,4.7553,4.6671,4.5774,4.5774,4.5296,4.4762,4.4481,4.4425,4.4312,4.4003,4.3694,4.3301,4.2626,4.1755,4.0828,3.9873,3.8945,3.7934,3.6736,3.578,3.4964,3.4301,3.3908,0.0,3.2995,3.3848,3.4222,3.3569,3.4778,3.5183,3.4276,0.0,0.0,3.4936,3.6233,3.6592,3.5683,3.7657,3.8776,3.883,3.9156,3.9292,3.9292,3.9567,3.9612,3.9496,3.9991,4.0123,3.9876,4.0559,4.0686,4.0493,4.1736,4.2325,4.2472,4.3274,4.3662,4.3757,4.3662,4.3586,4.3586,4.9584,4.9531,4.961,5.0498,5.0429,5.0472,5.1258,5.1512,5.1934,5.3052,5.3193,5.3288,5.3592,5.3592,5.3592,5.3592,5.3592,5.3592,5.3592,5.3592,5.3592,5.3652,5.3163,5.3043,5.3288,5.2794,5.2534,5.2491,5.2322,5.2096,5.1927,5.1927,5.1871,5.1759,5.1253,5.1028,5.0972,5.0407,5.0154,5.0097,4.9366,4.9033,4.8925,4.8359,4.8134,4.8134,4.8134,4.8134,4.8134,4.8134,4.8134,4.8207,4.8459,4.8531,4.8581,4.8859,4.7871,4.663,4.6546,4.5886,4.5136,4.4565,4.4425,4.4425,4.4425,4.4003,4.361,4.3526,4.257,4.1531,4.0828,3.9704,3.8452,3.7063,3.6005,3.5048,3.4189,0.0,3.4405,3.4119,3.4994,3.5733,3.6046,3.661,3.7223,3.7767,3.8159,3.8338,0.0,3.8961,3.8725,3.7414,3.8585,3.9326,3.9656,3.9578,3.9489,3.9363,3.9628,3.9744,3.9744,4.0614,4.0675,4.026,4.1484,4.1678,4.1262,4.2426,4.3009,4.3203,4.3554,4.3851,4.4021,4.3804,4.3709,4.3709,4.9165,4.9923,5.042,5.008,5.1005,5.1725,5.1721,5.2372,5.3025,5.347,5.3531,5.3531,5.3592,5.3592,5.3592,5.3592,5.3592,5.3592,5.3592,5.3592,5.3713,5.4014,5.3932,5.381,5.361,5.3733,5.3746,5.3472,5.395,5.3613,5.2574,5.2574,5.2293,5.1787,5.1674,5.1646,5.1618,5.1,5.0772,5.0688,4.9742,4.9239,4.8977,4.8584,4.8308,4.8134,4.8134,4.8134,4.8134,4.8134,4.8258,4.8459,4.8481,4.8631,4.8859,4.8909,4.8717,4.8361,4.7623,4.6389,4.5136,4.4565,4.4425,4.4425,4.4425,4.434,4.4116,4.361,4.2935,4.2064,4.0912,3.9704,3.8339,3.6539,3.6089,3.5349,3.3655,0.0,3.5574,3.5068,3.6473,3.7433,3.7318,3.7863,3.8394,3.8837,3.8961,3.8974,3.8974,3.9726,3.9882,3.9131,3.944,3.9546,3.9363,4.021,4.0299,3.9656,3.9848,3.9952,3.998,4.0836,4.1218,4.1163,4.2083,4.2424,4.2396,4.3097,4.3406,4.3508,4.4079,4.4303,4.4303,4.4303,4.4256,4.4256,4.9035,4.974,5.0315,5.0368,5.1171,5.1829,5.1962,5.2455,5.2922,5.3288,5.347,5.3592,5.3592,5.3592,5.3592,5.3592,5.3592,5.3592,5.3592,5.3592,5.3773,5.4074,5.4074,5.4176,5.4373,5.439,5.4341,5.4147,5.3754,5.3276,5.2686,5.2377,5.2068,5.1787,5.1787,5.1787,5.1759,5.164,5.1581,5.155,5.0881,5.0564,5.0403,4.9933,4.9354,4.8816,4.8816,4.859,4.8308,4.8308,4.8509,4.8731,4.8909,4.9009,4.9157,4.9305,4.9157,4.8681,4.7563,4.6687,4.5844,4.4837,4.4518,4.4425,4.4425,4.4425,4.434,4.4059,4.3497,4.2907,4.2317,4.0912,3.9564,3.8693,3.7467,0.0,0.0,3.6023,3.6483,3.6202,3.7524,3.8511,3.8766,3.9046,3.9424,3.9912,3.9968,3.9968,3.9968,4.0333,4.0529,4.0498,4.0514,4.0432,4.0182,4.068,4.047,3.97,4.0023,4.0364,4.0725,4.1602,4.1971,4.2071,4.3115,4.3385,4.3132,4.375,4.3975,4.4003,4.4312,4.4425,4.4425,4.4425,4.4425,4.4425,4.9165,4.9714,5.0289,5.0864,5.1309,5.1721,5.2059,5.2368,5.2738,5.3071,5.341,5.3592,5.3592,5.3592,5.3592,5.3592,5.3592,5.3592,5.3592,5.3592,5.3773,5.4074,5.4254,5.4552,5.5085,5.493,5.4793,5.4793,5.3838,5.3276,5.3135,5.2658,5.2293,5.2012,5.2066,5.2036,5.1896,5.2167,5.2329,5.2301,5.1913,5.1761,5.1623,5.1098,5.0429,4.9825,4.9825,4.9461,4.9007,4.9007,4.9237,4.9459,4.9515,4.9585,4.9655,4.9678,4.9375,4.885,4.7654,4.7176,4.6699,4.5401,4.4949,4.4734,4.4546,4.4518,4.4472,4.4425,4.3919,4.3497,4.3497,4.2093,4.0828,4.0547,0.0,0.0,0.0,3.7231,3.7428,3.7428,3.8492,3.9393,4.0013,4.0111,4.0309,4.0745,4.0773,4.073,4.0688,4.0828,4.1191,4.1798,4.1753,4.1435,4.0907,4.109,4.0741,3.9876,4.0364,4.0888,4.1407,4.22,4.2654,4.2823,4.3638,4.3891,4.3722,4.4059,4.4284,4.4425,4.4425,4.4425,4.4425,4.4425,4.4425,4.4425,4.9714,5.0315,5.089,5.1439,5.157,5.1721,5.2059,5.2368,5.2738,5.3071,5.341,5.3592,5.3592,5.3592,5.3592,5.3592,5.3592,5.3592,5.3592,5.3592,5.3773,5.4074,5.4671,5.5085,5.5437,5.5468,5.544,5.544,5.5327,5.5018,5.4456,5.44,5.3754,5.263,5.2963,5.2733,5.2167,5.2519,5.268,5.2623,5.223,5.1919,5.1676,5.1334,5.0995,5.0709,5.0709,5.0652,5.0623,5.0623,5.0777,5.0947,5.0421,5.0398,5.0481,4.9872,4.9669,4.9426,4.8519,4.8104,4.7595,4.6291,4.5977,4.5741,4.4957,4.4797,4.4705,4.4472,4.3919,4.3497,4.3497,4.243,4.1165,4.0041,0.0,0.0,3.7231,3.803,3.8761,3.8761,3.9517,4.025,4.0817,4.1141,4.1212,4.1001,4.1001,4.0873,4.0688,4.125,4.2121,4.3283,4.31,4.2314,4.0907,4.1685,4.1513,4.0356,4.0956,4.1323,4.1599,4.2289,4.2879,4.3413,4.2935,4.3329,4.4312,4.3778,4.3891,4.4425,4.4425,4.4425,4.4425,4.4425,4.4425,4.4425,4.927,4.9845,5.042,5.0995,5.1361,5.1721,5.2059,5.2368,5.2738,5.3071,5.341,5.3592,5.3592,5.3592,5.3592,5.3592,5.3592,5.3592,5.3592,5.3592,5.3833,5.4401,5.479,5.5144,5.5496,5.5496,5.5496,5.5496,5.5131,5.4821,5.4569,5.4403,5.4008,5.3528,5.3465,5.3317,5.306,5.2959,5.2947,5.2919,5.2924,5.2943,5.2809,5.2654,5.2232,5.1655,5.1655,5.1368,5.1024,5.1024,5.1257,5.1403,5.1172,5.1164,5.112,5.0481,5.0037,4.964,4.931,4.8769,4.8009,4.7119,4.6508,4.6005,4.5655,4.5285,4.4954,4.4862,4.4553,4.4291,4.4291,4.3448,4.2767,4.2654,0.0,4.0238,3.9901,3.962,3.9675,4.0209,4.0845,4.1426,4.1782,4.1896,4.1938,4.1825,4.1782,4.1938,4.2293,4.2741,4.3189,4.3669,4.3835,4.3212,4.173,4.2206,4.1971,4.0956,4.1311,4.1948,4.2767,4.2654,4.2907,4.3497,4.3245,4.3413,4.3863,4.4003,4.42,4.4425,4.4425,4.4425,4.4425,4.4425,4.4425,4.4425,4.9505,4.9923,5.0429,5.1066,5.1485,5.1846,5.2245,5.2553,5.2861,5.3044,5.341,5.3592,5.3592,5.3592,5.3592,5.3592,5.3592,5.3592,5.3592,5.3592,5.3833,5.4401,5.4758,5.5026,5.532,5.5437,5.5496,5.5496,5.5074,5.4878,5.4878,5.4657,5.4516,5.4346,5.4228,5.4049,5.3758,5.3596,5.3415,5.3213,5.3424,5.35,5.35,5.35,5.3163,5.263,5.263,5.2341,5.1937,5.1937,5.204,5.2165,5.1991,5.1788,5.1527,5.1091,5.0511,4.9988,4.9988,4.9426,4.8644,4.798,4.7376,4.6813,4.6565,4.6003,4.5516,4.5424,4.5143,4.4993,4.5192,4.4571,4.415,4.4573,4.3048,4.1862,4.2088,4.1367,4.1014,4.1696,4.2151,4.2465,4.2697,4.2812,4.2812,4.2697,4.2697,4.294,4.3554,4.3832,4.401,4.418,4.4496,4.4029,4.2823,4.2851,4.248,4.173,4.2032,4.2654,4.3497,4.3048,4.3104,4.3497,4.3301,4.3346,4.3617,4.404,4.4321,4.4518,4.4518,4.4472,4.4425,4.4425,4.4425,4.4425,5.0681,5.0786,5.1092,5.1953,5.2121,5.2245,5.2527,5.2861,5.3132,5.3132,5.341,5.3592,5.3592,5.3592,5.3592,5.3592,5.3592,5.3592,5.3592,5.3592,5.3773,5.4074,5.4401,5.4699,5.4967,5.532,5.5496,5.5496,5.5496,5.5496,5.5496,5.5496,5.5333,5.5026,5.5339,5.499,5.4111,5.4409,5.411,5.35,5.35,5.35,5.35,5.35,5.35,5.35,5.35,5.35,5.35,5.35,5.35,5.3413,5.2775,5.2136,5.1643,5.1643,5.1178,5.0685,5.0734,5.0191,4.9524,4.8885,4.8663,4.847,4.7643,4.6915,4.6436,4.6156,4.5595,4.5338,4.5995,4.5595,4.5138,4.5167,4.4624,4.3995,4.3411,4.3076,4.2988,4.3281,4.3297,4.3384,4.3574,4.3849,4.3892,4.3618,4.3647,4.3774,4.4212,4.4195,4.4481,4.511,4.511,4.4824,4.4195,4.3771,4.3188,4.2643,4.3216,4.3497,4.3497,4.3497,4.3497,4.3469,4.2851,4.3043,4.3806,4.3834,4.4202,4.4797,4.4797,4.4658,4.4425,4.4425,4.4425,4.4425,5.1022,5.1337,5.1705,5.2324,5.2492,5.2553,5.2922,5.3044,5.3193,5.341,5.3531,5.3592,5.3592,5.3592,5.3592,5.3592,5.3592,5.3592,5.3592,5.3592,5.3773,5.4074,5.4194,5.4493,5.4967,5.5085,5.5261,5.5496,5.5496,5.5496,5.5496,5.5729,5.5818,5.5736,5.5736,5.5386,5.4691,5.4583,5.411,5.35,5.35,5.35,5.35,5.35,5.35,5.35,5.35,5.35,5.35,5.35,5.35,5.3471,5.3297,5.2804,5.2281,5.2281,5.1846,5.1236,5.0801,5.054,5.022,4.9553,4.9059,4.8634,4.8383,4.7862,4.7398,4.7304,4.6973,4.6792,4.6993,4.6737,4.6528,4.6528,4.5642,4.4824,4.4669,4.3779,4.3424,4.4148,4.4177,4.4265,4.4457,4.4574,4.4618,4.4501,4.4935,4.5267,4.5396,4.5216,4.5211,4.5338,4.523,4.5024,4.4852,4.4288,4.3885,4.3731,4.3704,4.3969,4.4394,4.3786,4.3589,4.3698,4.35,4.3709,4.4134,4.4516,4.4829,4.5,4.5,4.4954,4.4908,4.4908,4.4908,4.4908,5.1732,5.196,5.2276,5.2746,5.2799,5.2922,5.3227,5.3288,5.3349,5.3592,5.3592,5.3592,5.3592,5.3592,5.3592,5.3592,5.3713,5.3773,5.3773,5.3894,5.4101,5.4281,5.4281,5.4493,5.4967,5.5144,5.532,5.5496,5.5496,5.5496,5.5496,5.5671,5.5845,5.6019,5.5994,5.559,5.4979,5.4768,5.4235,5.35,5.35,5.35,5.35,5.35,5.35,5.35,5.35,5.35,5.35,5.35,5.35,5.35,5.35,5.3239,5.2949,5.2949,5.2484,5.1846,5.1207,5.0859,5.0511,4.9892,4.9378,4.9117,4.9117,4.8624,4.8159,4.8159,4.7862,4.7651,4.7864,4.7625,4.7443,4.7702,4.6897,4.6149,4.589,4.5109,4.4723,4.5062,4.5017,4.5062,4.5285,4.5285,4.5285,4.5285,4.5663,4.5895,4.5895,4.573,4.564,4.564,4.5504,4.5413,4.5413,4.5039,4.4748,4.4567,4.4385,4.4538,4.4908,4.4372,4.4061,4.397,4.4226,4.4333,4.4432,4.5018,4.5276,4.5276,4.5276,4.5184,4.511,4.511,4.511,4.511,5.2543,5.265,5.2799,5.3105,5.3132,5.3227,5.3531,5.3592,5.3592,5.3592,5.3592,5.3592,5.3592,5.3652,5.3652,5.3652,5.3954,5.4134,5.4134,5.4401,5.4607,5.4667,5.4667,5.4758,5.5026,5.532,5.5437,5.5496,5.5496,5.5496,5.5496,5.5496,5.5671,5.599,5.599,5.5623,5.4953,5.5008,5.4421,5.3477,5.35,5.35,5.35,5.35,5.35,5.35,5.35,5.35,5.35,5.35,5.35,5.35,5.35,5.35,5.35,5.35,5.3094,5.2514,5.1875,5.1294,5.0734,4.9979,4.9805,4.9756,4.9746,4.9233,4.8798,4.8798,4.8333,4.813,4.8711,4.8333,4.813,4.8711,4.8275,4.7666,4.7039,4.6726,4.642,4.604,4.5743,4.564,4.5895,4.5895,4.5895,4.5895,4.5895,4.5895,4.5895,4.5895,4.5895,4.5895,4.5895,4.5895,4.5895,4.5895,4.564,4.5184,4.5155,4.511,4.511,4.511,4.4824,4.4355,4.4881,4.4977,4.4742,4.5319,4.5549,4.5549,4.5549,4.5413,4.5184,4.5184,4.5184,4.5184,5.2876,5.3166,5.341,5.347,5.347,5.3531,5.3592,5.3592,5.3592,5.3592,5.3592,5.3592,5.3592,5.3833,5.4014,5.4014,5.4281,5.446,5.446,5.4548,5.4699,5.4908,5.4908,5.5026,5.5379,5.5203,5.5261,5.5496,5.5496,5.5496,5.5496,5.5496,5.5554,5.5613,5.5874,5.5339,5.4343,5.4787,5.4313,5.3213,5.3424,5.35,5.35,5.35,5.35,5.35,5.35,5.35,5.35,5.35,5.35,5.35,5.35,5.35,5.35,5.35,5.3413,5.3181,5.2543,5.2304,5.1875,5.0793,5.0502,5.0386,4.9785,4.9582,4.9465,4.9465,4.9349,4.932,4.9436,4.9349,4.932,4.9436,4.8943,4.8478,4.8286,4.7416,4.6703,4.6604,4.614,4.585,4.5895,4.5895,4.5895,4.5895,4.5895,4.5895,4.5895,4.5895,4.5895,4.5895,4.5895,4.5895,4.5895,4.5895,4.585,4.573,4.5504,4.5413,4.5413,4.523,4.5144,4.5211,4.5355,4.5463,4.5647,4.5792,4.5805,4.5805,4.5805,4.5776,4.573,4.573,4.573,4.573,5.3187,5.347,5.3592,5.3592,5.3592,5.3592,5.3592,5.3592,5.3592,5.3592,5.3713,5.3833,5.3833,5.4161,5.4341,5.4341,5.4639,5.4817,5.4817,5.4936,5.5224,5.5622,5.5709,5.5768,5.5945,5.5768,5.56,5.5496,5.5496,5.5496,5.5496,5.5496,5.5496,5.5496,5.5361,5.4941,5.4315,5.4333,5.3946,5.3319,5.3477,5.35,5.35,5.35,5.35,5.35,5.35,5.35,5.35,5.35,5.35,5.35,5.35,5.35,5.35,5.35,5.35,5.3384,5.2746,5.2623,5.2339,5.1381,5.112,5.0888,4.9901,4.9717,4.9717,4.9717,4.9717,4.9717,4.9717,4.9717,4.9717,4.9717,4.9407,4.9059,4.8721,4.8112,4.7608,4.7317,4.6737,4.6214,4.5924,4.5895,4.5895,4.5895,4.5895,4.5895,4.5895,4.5895,4.5895,4.5895,4.5895,4.5895,4.5895,4.5895,4.5895,4.5895,4.573,4.5685,4.5685,4.5549,4.5549,4.5685,4.5685,4.5776,4.5895,4.5895,4.5895,4.5895,4.5895,4.5895,4.5895,4.5895,4.5895,4.5895,5.3375,5.3592,5.3592,5.3592,5.3592,5.3592,5.3592,5.3592,5.3592,5.3592,5.3894,5.4074,5.4074,5.446,5.4699,5.4758,5.4995,5.5085,5.5085,5.532,5.5777,5.6395,5.6423,5.6479,5.6592,5.6479,5.6114,5.5496,5.5496,5.5496,5.5496,5.5496,5.5496,5.5526,5.4907,5.463,5.4453,5.3935,5.3575,5.3424,5.3448,5.35,5.35,5.35,5.35,5.35,5.35,5.35,5.35,5.35,5.35,5.35,5.3553,5.3553,5.35,5.3553,5.353,5.3384,5.2862,5.2717,5.2572,5.1933,5.1788,5.1468,5.0278,5.0017,4.9988,4.9872,4.9892,4.9863,4.9698,4.9717,4.9717,4.9717,4.9717,4.9494,4.8972,4.8798,4.8537,4.8014,4.7335,4.6637,4.6043,4.5956,4.5956,4.5956,4.594,4.5895,4.5895,4.5895,4.5895,4.5895,4.5895,4.5895,4.5895,4.5895,4.5895,4.5895,4.5895,4.594,4.5956,4.5956,4.5985,4.603,4.603,4.603,4.603,4.5956,4.5956,4.594,4.594,4.5895,4.5895,4.5895,4.5895,4.5895,5.3375,5.3592,5.3592,5.3592,5.3592,5.3592,5.3592,5.3592,5.3592,5.3592,5.3894,5.4074,5.4074,5.4612,5.5026,5.532,5.5379,5.5437,5.5437,5.5437,5.5777,5.6395,5.6423,5.6676,5.7238,5.6704,5.6114,5.5496,5.5496,5.5496,5.5496,5.5496,5.5613,5.5875,5.5223,5.4799,5.4509,5.4125,5.3629,5.316,5.3424,5.35,5.35,5.35,5.35,5.35,5.35,5.35,5.35,5.35,5.35,5.3553,5.3762,5.371,5.3553,5.3762,5.3658,5.35,5.3413,5.3384,5.3239,5.2601,5.2426,5.2252,5.1527,5.1352,5.1207,5.0656,5.054,5.0415,4.9785,4.9717,4.9717,4.9717,4.9717,4.9688,4.9553,4.9059,4.8682,4.8624,4.7736,4.6911,4.6238,4.618,4.618,4.618,4.6001,4.5895,4.5895,4.5895,4.5895,4.5895,4.5895,4.5895,4.5895,4.5895,4.5895,4.5895,4.5895,4.6001,4.618,4.618,4.6269,4.6521,4.6521,4.6521,4.6521,4.6269,4.618,4.6135,4.5956,4.5895,4.5895,4.5895,4.5895,4.5895,5.3375,5.3592,5.3592,5.3592,5.3592,5.3592,5.3592,5.3592,5.3652,5.3833,5.4161,5.446,5.4612,5.5026,5.532,5.5496,5.5496,5.5496,5.5496,5.5496,5.5777,5.6395,5.676,5.6929,5.6845,5.6929,5.6479,5.5496,5.5496,5.5613,5.5787,5.5787,5.5961,5.6193,5.5168,5.4738,5.4701,5.3888,5.3419,5.3319,5.3477,5.35,5.35,5.35,5.35,5.35,5.35,5.35,5.35,5.35,5.3605,5.3762,5.3867,5.389,5.3942,5.4097,5.4045,5.3971,5.3971,5.3971,5.3883,5.3619,5.3428,5.3267,5.2923,5.2791,5.231,5.0946,5.0734,5.0531,4.9785,4.9717,4.9717,4.9717,4.9717,4.9717,4.9717,4.9117,4.8449,4.7706,4.7585,4.7199,4.6268,4.6225,4.6269,4.6403,4.6314,4.6269,4.6269,4.6269,4.6269,4.6269,4.6269,4.6269,4.6269,4.6269,4.6225,4.6046,4.6046,4.6046,4.6046,4.6135,4.6445,4.6931,4.6712,4.7022,4.7686,4.7197,4.6976,4.6976,4.6871,4.6591,4.6269,4.6269,4.6269,4.6269]}]]